GFSCGP_sfc_dewp_000.txt.gz
Dewpoint
20 19 22 22 21 16 13 10 9 16 19 17 16 18 20 23 23 27 27 28 30 38 44 46 49 51 50 52 49 53 55 55 52 52 50 49 49 49 50 48 49 48 50 50
13 21 21 20 18 17 15 14 14 17 19 17 19 16 21 23 26 27 28 32 37 39 39 42 46 50 54 52 53 53 51 49 47 46 49 49 49 48 48 49 49 49 49 48
25 22 21 20 21 20 19 18 25 22 21 19 18 19 21 24 26 28 30 32 34 36 38 41 45 49 51 50 50 46 45 46 48 48 45 46 46 46 45 45 46 46 46 45
23 23 23 22 24 25 21 27 24 21 20 16 18 15 21 23 26 28 31 33 33 33 35 38 43 46 48 49 49 46 46 44 45 46 46 45 44 44 47 49 47 47 46 46
25 25 26 25 26 26 27 28 25 24 22 21 18 19 24 23 24 28 31 33 35 37 39 40 42 44 45 49 50 49 46 44 44 45 45 46 48 48 47 47 46 45 45 44
26 26 28 28 27 26 29 28 27 27 26 30 20 21 28 24 26 29 32 34 36 37 39 39 42 44 45 49 49 48 45 42 44 45 47 46 45 44 43 43 43 41 41 41
26 27 29 28 28 30 26 27 31 33 33 30 26 20 29 28 29 30 32 34 37 40 41 40 40 41 43 46 47 46 45 43 44 44 43 43 44 44 43 42 40 39 39 40
23 28 27 28 28 26 27 26 34 27 30 26 21 15 25 30 30 31 32 33 35 38 41 41 41 43 43 45 46 47 45 43 43 45 43 45 44 42 41 41 39 39 40 40
27 27 28 28 28 27 29 29 25 30 36 31 18 26 28 29 29 29 30 31 33 36 38 39 41 43 43 44 45 46 45 44 44 45 46 43 42 43 41 39 40 40 40 37
25 28 25 24 29 31 28 26 29 33 30 23 18 19 27 28 28 28 28 29 32 36 37 40 39 43 43 44 46 48 46 43 43 41 41 39 40 41 40 40 39 40 40 38
28 30 26 27 28 27 28 28 26 23 30 27 25 20 25 27 27 28 31 31 35 36 37 39 39 40 41 43 43 45 43 42 41 40 39 41 40 40 39 39 39 39 38 37
30 31 38 23 27 28 27 27 25 35 29 36 35 26 28 30 32 32 32 34 36 38 38 38 40 40 40 41 41 41 43 42 41 40 40 38 39 37 37 38 36 36 36 37
34 36 34 27 31 30 25 27 25 33 35 30 34 29 29 36 33 31 31 35 37 38 37 38 39 39 38 38 39 39 41 41 41 39 38 36 36 35 35 34 35 35 35 34
41 29 32 30 23 22 24 21 22 23 34 31 31 26 27 31 32 30 32 36 36 37 39 39 39 38 36 36 36 36 36 41 41 39 37 37 36 34 32 33 32 32 31 29
35 36 32 29 24 22 21 21 21 20 25 27 28 24 25 30 31 35 37 37 37 38 38 38 38 37 34 34 33 32 33 36 39 39 37 38 35 33 32 33 31 31 30 26
37 40 38 36 25 24 25 23 22 21 21 22 24 25 29 35 36 36 37 37 38 37 36 35 35 32 31 30 27 26 28 30 37 34 36 35 35 34 33 32 32 29 27 25
41 41 37 34 33 34 35 35 25 23 24 26 30 29 34 35 35 35 37 38 37 35 35 34 32 29 27 24 24 23 24 26 32 32 33 35 38 35 35 31 28 25 25 26
40 40 40 36 36 31 28 27 27 27 26 26 26 32 35 36 36 36 38 37 35 34 34 31 27 26 25 24 22 23 21 23 25 26 30 35 36 34 32 30 29 26 25 26
41 44 35 35 30 29 28 29 30 31 30 30 35 36 37 36 35 35 36 35 34 33 30 25 24 24 23 20 21 21 22 22 23 23 30 31 36 30 31 29 29 26 25 25
39 44 41 35 30 26 36 30 33 33 31 38 39 38 38 36 36 33 35 34 31 25 23 21 21 19 18 20 20 20 20 21 24 32 32 30 28 30 30 30 28 25 25 24
36 38 36 34 32 33 31 31 34 31 35 42 41 39 38 36 38 38 34 29 24 22 21 21 18 18 19 19 20 21 20 20 28 30 32 33 32 28 28 28 24 24 24 25
34 35 34 35 33 29 34 32 36 41 44 42 40 39 39 38 39 32 28 24 22 20 18 16 17 18 19 19 21 21 21 25 30 32 31 31 29 27 22 24 25 24 24 27
33 39 39 36 36 39 38 39 41 45 43 42 41 39 38 37 33 28 25 24 22 18 16 17 17 19 20 21 21 21 24 27 28 30 28 28 26 24 24 23 23 23 24 26
31 31 42 40 35 34 38 40 43 43 42 40 39 38 38 32 30 26 24 23 20 17 17 18 19 19 21 22 22 25 27 28 28 27 27 26 25 26 25 23 22 23 26 25
40 34 36 36 36 36 40 42 42 42 41 40 38 37 30 28 25 25 22 21 20 19 20 20 20 20 23 23 25 27 27 29 26 27 27 27 29 28 26 23 24 27 24 23
37 34 38 38 39 41 41 41 40 40 39 38 36 29 27 26 24 21 22 22 19 19 19 19 21 23 23 25 27 29 28 29 30 29 28 29 29 29 26 24 24 25 24 21

GFSCGP_sfc_dewp_003.txt.gz
Dewpoint
27 25 23 23 22 19 17 15 19 19 19 21 18 20 23 27 26 29 38 41 41 42 44 48 48 48 49 52 50 51 52 47 47 48 47 46 43 43 43 43 46 45 44 44
21 23 23 23 25 23 18 20 24 20 20 18 17 19 24 28 30 31 37 37 39 41 44 45 46 45 48 45 44 46 47 46 46 47 46 45 43 43 43 43 43 45 46 44
25 25 24 23 27 25 24 25 24 24 22 20 20 21 24 27 30 31 32 34 37 39 42 44 44 45 44 43 42 41 41 42 44 44 41 41 41 42 43 45 45 45 47 44
24 27 27 25 26 26 27 30 27 24 23 18 18 19 24 28 30 32 33 35 36 39 43 43 44 44 44 44 42 41 41 39 40 42 41 41 43 44 46 45 44 45 43 42
28 28 29 28 27 27 30 33 29 28 25 23 21 23 24 28 30 31 33 34 37 39 40 42 43 44 44 43 42 41 40 40 40 39 39 43 42 43 43 43 41 39 40 40
27 30 29 28 29 29 28 31 31 30 28 25 26 27 32 33 30 33 35 36 37 38 39 41 43 43 43 42 41 39 37 38 39 39 39 41 39 39 41 39 37 37 38 39
27 29 30 30 30 32 30 30 28 26 26 25 31 28 34 32 31 34 36 37 38 39 39 39 41 41 41 41 41 40 41 39 39 40 39 38 39 38 37 36 35 35 37 37
27 28 28 30 29 28 30 29 27 24 23 25 20 25 28 30 32 33 33 36 38 38 38 38 39 39 40 40 39 41 40 40 40 39 40 39 39 39 38 36 35 36 37 37
32 28 30 27 28 30 32 26 26 29 29 25 25 27 29 30 30 30 30 31 36 37 37 37 39 40 41 41 43 43 42 41 37 38 38 39 40 40 39 36 35 37 39 37
28 28 27 27 31 32 28 27 28 29 21 19 21 28 31 33 34 30 29 32 34 36 38 39 39 41 41 41 43 42 41 40 38 37 41 42 41 41 41 38 38 37 37 37
33 34 28 30 29 29 30 30 29 27 28 23 22 23 31 32 32 32 33 35 36 37 38 39 39 39 41 40 40 41 41 40 38 38 39 39 38 37 38 37 35 35 35 35
32 32 27 27 30 30 29 30 31 26 27 28 26 23 33 33 32 32 34 36 37 36 37 38 39 38 37 37 36 36 38 39 38 38 39 37 37 35 36 34 33 33 33 33
36 31 27 29 32 31 28 28 34 36 28 23 22 26 33 36 34 33 35 36 36 38 39 39 39 37 35 34 35 35 35 38 38 38 38 37 37 34 31 30 31 30 30 30
41 33 27 26 25 26 24 25 27 33 27 28 27 28 28 36 35 36 37 37 37 38 38 38 37 36 34 32 32 30 30 31 36 40 39 40 41 36 30 32 31 30 28 26
37 32 34 31 28 27 25 24 24 23 26 25 26 28 34 35 36 37 38 38 38 37 36 36 35 33 31 27 24 23 26 28 27 33 36 39 38 36 37 36 33 32 29 25
42 34 30 28 32 31 28 28 27 25 25 24 26 31 36 36 36 37 38 37 36 35 35 34 34 30 25 22 22 24 24 24 25 24 25 30 39 39 38 36 35 32 26 21
36 31 30 28 34 32 25 28 31 28 29 28 26 33 36 36 36 38 36 36 35 35 35 34 32 25 24 23 24 23 23 25 25 25 27 37 37 37 38 38 35 25 23 21
34 33 30 24 27 17 32 31 31 31 31 33 36 36 36 36 37 37 36 34 34 34 34 33 26 23 22 21 21 22 21 23 25 27 31 33 35 36 38 37 29 25 22 20
40 31 25 26 24 26 29 31 31 30 31 39 38 38 37 36 36 35 35 35 34 33 30 24 22 21 19 19 20 21 22 23 24 31 31 31 33 34 33 32 29 27 22 21
40 33 30 24 21 15 28 34 36 35 28 41 39 39 37 36 28 33 37 35 32 25 23 21 19 17 18 19 20 22 22 23 28 32 32 33 34 33 34 34 29 25 21 22
28 27 24 28 17 26 34 35 36 27 28 42 41 39 38 35 35 37 39 31 25 24 21 21 19 18 18 19 21 23 24 24 30 32 33 33 33 33 32 31 23 21 21 26
29 27 29 28 24 21 36 35 29 36 41 42 41 39 39 38 38 39 30 26 25 22 19 18 19 20 21 21 23 23 23 25 29 30 31 31 31 30 25 22 22 22 23 23
29 34 31 31 29 34 38 37 44 44 42 41 40 40 38 38 36 30 27 26 24 19 18 19 19 21 22 23 23 23 26 28 29 29 28 28 27 25 24 24 22 22 23 21
34 37 32 32 36 35 40 44 44 43 42 42 41 40 39 38 30 27 26 23 22 19 19 19 20 20 23 24 23 27 28 28 28 28 28 27 26 27 26 24 23 23 20 19
35 37 33 33 36 39 42 43 43 42 42 42 40 40 39 29 27 23 23 21 20 18 19 20 22 24 24 25 26 27 27 27 27 28 28 27 27 27 26 23 23 25 21 21
39 35 33 32 39 40 41 43 42 41 40 41 41 32 28 24 22 22 21 22 22 22 24 24 25 25 25 28 29 30 30 27 28 28 27 26 26 25 26 25 25 27 25 23

GFSCGP_sfc_dewp_006.txt.gz
Dewpoint
27 23 20 20 21 19 19 19 18 18 18 16 21 25 27 35 40 39 41 44 44 43 43 46 48 47 48 47 48 49 49 50 45 48 49 49 43 43 43 43 46 46 46 46
24 23 23 23 27 26 25 23 22 21 21 16 22 24 30 36 37 38 41 43 43 43 42 43 45 46 46 44 48 49 46 46 46 49 48 46 44 43 44 48 45 46 45 44
24 23 26 27 27 26 28 25 24 23 23 19 24 23 30 31 33 34 36 41 43 43 42 43 44 43 42 41 42 41 41 42 45 44 43 43 43 44 45 44 43 42 41 42
23 28 28 28 26 28 28 30 27 24 21 12 20 20 25 31 33 36 39 41 42 43 43 43 43 42 42 41 40 39 39 39 40 41 41 43 43 42 44 44 41 38 39 40
27 29 29 27 28 29 29 31 28 27 24 23 22 23 25 31 30 33 36 39 41 42 43 43 43 42 42 41 41 40 40 39 39 39 40 43 41 41 42 40 37 36 38 39
27 30 28 28 30 30 30 32 32 30 28 23 26 27 28 30 31 34 35 38 39 41 42 43 43 42 41 41 40 38 37 38 40 39 39 42 39 39 38 35 34 35 37 37
28 29 29 30 30 30 28 31 27 25 24 23 30 30 32 34 33 36 37 37 38 39 41 42 42 41 41 43 40 40 40 39 39 40 39 39 38 36 34 34 35 34 37 37
27 27 27 28 29 27 29 30 26 22 21 23 27 27 27 33 37 37 37 38 38 38 40 41 41 40 40 41 42 42 39 37 39 39 38 39 38 39 37 37 35 38 39 38
29 28 30 28 28 31 31 23 28 27 27 23 26 27 29 31 31 31 32 36 37 37 37 39 40 40 41 41 41 40 38 36 37 38 39 39 40 40 40 41 39 39 38 38
31 26 28 27 32 31 23 27 28 27 19 18 22 27 28 31 31 31 34 35 37 38 38 39 39 40 40 41 41 41 41 37 37 38 40 41 40 40 41 38 37 36 35 36
35 29 27 32 29 28 29 28 29 28 26 21 20 22 30 33 33 34 35 36 37 38 38 39 39 39 38 36 36 37 38 39 38 38 38 38 37 37 38 36 36 35 35 36
34 30 25 27 29 30 29 30 30 24 26 26 24 23 30 32 34 36 36 36 37 38 38 38 37 36 35 34 34 32 35 37 37 38 39 39 38 36 36 35 34 34 33 34
33 28 25 28 32 30 27 29 35 31 26 23 20 21 33 35 34 36 36 37 38 38 37 37 36 34 33 31 28 26 27 28 30 31 36 39 39 39 34 33 33 31 30 30
39 34 26 26 26 27 22 25 32 30 25 25 25 24 33 35 36 37 37 38 37 36 36 35 34 33 29 25 23 23 25 27 27 26 29 30 32 37 34 32 34 36 37 37
36 30 31 28 30 28 26 26 26 25 28 25 26 28 35 35 36 37 38 37 36 35 35 34 34 30 23 23 23 23 25 26 27 27 27 32 38 36 35 36 37 37 38 36
39 29 29 27 34 34 27 27 28 27 25 25 32 33 36 36 38 37 36 35 35 35 34 34 32 26 23 22 21 22 23 25 27 26 31 36 37 37 37 36 36 37 37 26
34 29 26 25 32 30 22 27 30 28 32 28 25 34 36 36 37 36 35 34 34 34 33 32 31 23 22 21 21 20 21 24 26 27 32 33 37 36 37 37 37 37 30 27
33 32 26 20 21 11 29 32 31 35 36 36 35 35 35 37 37 35 34 34 34 33 32 31 22 20 20 19 19 21 21 23 25 31 31 32 33 34 34 35 34 34 28 25
36 27 26 18 21 19 25 30 30 27 35 38 37 37 36 37 35 34 35 34 33 32 27 24 21 20 19 18 19 21 22 23 24 30 31 32 33 33 32 33 33 34 28 21
37 29 25 26 12 8 23 34 35 33 28 39 39 37 36 34 28 32 37 36 32 25 24 21 19 18 18 18 19 21 22 24 25 31 31 32 33 33 33 33 32 30 21 25
26 24 23 23 15 23 28 34 36 26 25 40 39 38 37 34 33 35 38 36 26 24 21 21 19 18 19 20 22 23 23 24 26 30 31 32 32 31 31 31 25 21 25 25
27 25 23 23 18 20 33 34 28 32 39 41 40 39 38 37 37 38 34 26 24 19 19 19 20 20 22 22 23 22 23 25 28 29 29 28 28 27 24 24 23 24 24 23
26 29 28 30 29 32 35 35 39 42 41 41 39 39 38 37 37 29 27 23 20 18 18 19 19 21 23 24 24 22 25 28 28 28 28 27 27 27 26 23 21 22 22 20
33 37 32 32 35 36 37 43 44 43 42 42 40 40 39 37 30 25 23 21 19 18 18 19 22 23 25 25 25 26 28 28 28 27 27 27 27 27 26 23 23 22 19 18
32 36 33 32 35 40 42 42 43 42 42 41 41 40 39 27 23 22 21 21 21 20 22 23 25 26 26 27 29 29 30 30 27 28 28 27 26 26 26 22 23 24 21 21
37 33 32 31 35 36 38 43 42 41 41 42 40 25 24 23 21 21 22 23 23 24 25 25 26 27 27 28 27 29 31 31 30 28 28 27 25 23 25 25 24 27 26 25

GFSCGP_sfc_dewp_009.txt.gz
Dewpoint
27 22 18 19 21 19 19 18 15 17 18 25 27 30 37 39 42 43 42 42 43 44 45 46 47 48 48 50 52 52 53 54 51 49 50 50 45 45 46 46 48 46 44 43
23 22 23 27 28 25 23 21 22 22 23 27 31 31 35 37 40 43 42 41 41 42 42 43 44 45 47 48 50 49 48 48 49 50 49 48 47 45 48 46 43 42 42 41
22 23 25 26 27 27 28 25 23 21 25 28 29 29 29 32 37 40 42 43 41 42 43 43 42 40 41 42 43 41 42 43 46 48 46 43 43 45 43 42 40 39 40 39
25 31 28 27 25 27 26 29 26 23 24 23 25 25 28 32 36 39 41 42 43 42 42 41 40 39 39 39 39 38 39 39 40 41 40 40 41 41 43 41 37 36 39 38
28 29 28 26 27 29 29 30 26 26 22 22 23 24 27 32 34 38 39 41 42 42 41 41 41 40 40 39 39 39 39 39 39 39 40 42 41 40 41 37 35 35 38 39
28 30 28 28 30 29 29 30 31 32 27 23 26 26 27 30 32 36 38 40 41 42 42 42 42 41 41 41 39 38 38 39 40 40 40 41 38 38 34 34 35 35 37 39
28 28 29 31 30 31 30 29 25 23 23 23 29 29 30 31 33 36 37 38 40 41 42 43 41 41 41 41 41 41 40 39 39 39 38 38 35 34 34 36 38 36 38 40
26 25 27 27 28 27 29 29 26 20 21 22 27 26 28 33 36 37 38 38 39 43 41 40 40 41 40 39 36 35 36 36 37 37 37 37 36 38 39 39 39 39 39 39
27 27 29 27 28 31 29 24 28 27 26 23 26 27 29 33 36 35 36 38 38 38 39 39 40 40 40 40 40 38 36 36 37 38 39 39 39 39 40 40 40 38 38 38
30 23 28 26 31 30 26 29 26 26 18 18 23 26 27 29 32 32 34 37 38 38 38 39 39 38 37 37 39 39 39 37 37 38 39 39 40 39 39 40 38 36 35 37
34 25 25 30 28 27 28 27 28 28 25 20 19 25 29 31 32 34 36 37 37 38 38 38 38 36 35 34 34 35 36 35 33 34 36 38 38 38 38 37 36 35 34 36
34 29 25 26 29 31 28 29 27 21 24 25 22 22 31 34 35 36 36 37 38 38 37 36 35 34 33 30 27 28 28 27 29 31 33 34 35 35 36 36 34 35 35 33
32 27 25 28 30 29 27 31 32 28 26 26 18 19 33 34 35 36 37 38 38 37 36 36 34 32 28 25 25 24 25 24 25 25 27 29 32 35 37 36 32 32 33 35
38 32 25 24 25 26 21 25 30 27 23 23 23 23 33 34 35 36 37 37 36 36 35 34 33 29 25 23 23 23 24 25 25 25 27 32 35 36 32 31 32 33 35 36
34 27 30 29 30 28 26 24 29 28 27 25 25 26 31 35 36 37 37 36 35 34 34 33 32 27 22 22 22 22 23 24 25 25 28 33 36 36 35 34 35 35 36 36
34 29 28 27 32 32 25 25 25 25 25 28 30 32 36 36 38 37 36 35 34 33 33 33 32 26 23 21 20 21 22 23 26 25 30 32 33 35 36 36 36 37 37 37
31 29 21 17 29 27 17 24 28 27 30 29 29 32 36 37 37 36 35 35 34 33 32 32 32 23 23 21 21 20 21 23 25 25 31 32 33 34 34 35 36 35 34 30
32 28 23 19 19 8 21 29 31 30 35 35 34 35 36 37 37 36 35 34 34 33 32 32 28 22 22 20 20 21 21 23 24 26 31 31 32 32 32 33 34 33 34 32
34 27 26 16 18 17 19 31 34 30 30 36 35 35 35 37 35 34 35 34 34 33 32 28 23 20 19 19 19 20 21 22 24 25 30 31 32 32 32 32 32 32 31 26
33 27 23 24 9 5 17 32 34 32 26 38 37 36 36 34 29 33 35 35 34 34 24 23 20 18 17 18 20 20 22 23 24 26 30 31 31 32 31 30 30 30 21 25
26 22 18 19 12 21 25 33 34 25 23 39 38 37 36 34 34 33 37 38 31 23 20 21 19 19 20 21 22 23 23 24 25 28 29 29 29 27 27 25 24 21 25 25
29 26 21 24 18 18 31 33 29 32 36 39 39 38 37 36 36 37 38 25 20 18 18 19 20 21 23 23 24 23 23 24 26 28 29 28 27 26 26 25 23 24 24 22
26 27 27 27 27 31 32 35 36 39 39 40 39 39 39 39 38 37 25 21 19 17 18 20 21 23 24 25 25 24 25 27 28 28 28 27 27 27 26 23 22 22 21 19
33 35 30 30 32 34 34 38 42 42 41 41 41 40 39 38 33 24 22 21 20 18 20 21 23 23 25 26 27 29 29 29 29 29 28 28 27 27 26 23 23 22 20 19
32 35 33 32 34 37 39 41 42 43 42 41 41 40 39 33 24 22 22 21 21 21 22 23 24 25 26 27 29 28 28 30 29 28 29 28 28 26 24 22 23 24 22 23
36 32 30 29 33 36 34 40 43 42 42 42 39 33 27 24 22 22 22 22 22 23 23 23 25 26 27 29 28 28 29 30 30 31 30 30 31 26 25 24 23 26 27 27

GFSCGP_sfc_dewp_012.txt.gz
Dewpoint
26 21 18 19 18 12 15 14 14 16 21 32 34 36 37 42 42 42 42 43 43 44 45 49 50 52 52 53 55 54 54 53 52 49 51 48 48 49 48 45 43 43 42 41
23 21 23 27 27 24 22 20 20 23 28 33 34 31 34 36 40 42 42 43 43 43 43 44 46 48 49 50 53 53 50 48 49 49 49 50 47 46 45 41 40 41 40 39
22 23 27 28 27 26 27 22 22 22 31 32 31 31 32 36 41 42 42 42 42 43 43 42 42 42 47 47 45 44 44 44 46 48 45 43 44 45 42 41 37 38 39 39
28 30 27 25 25 27 24 28 25 27 26 25 28 28 30 35 38 40 41 41 42 41 40 39 38 37 38 38 39 39 40 39 40 40 40 39 40 41 42 38 35 37 39 39
28 28 27 25 26 28 28 29 26 24 23 22 25 27 27 35 37 39 40 41 42 41 40 39 38 38 39 39 39 39 39 40 39 39 41 42 40 41 37 35 35 35 37 38
28 30 28 27 30 28 30 30 30 30 27 21 24 25 26 32 35 38 39 41 42 41 41 40 41 41 40 40 39 39 40 39 40 40 40 39 39 35 34 36 37 36 37 38
27 28 28 30 28 30 31 27 24 23 22 22 28 27 27 32 35 38 39 40 41 42 41 41 41 41 41 40 40 39 37 37 37 37 36 36 35 34 36 37 38 37 39 39
26 23 26 27 28 26 28 28 25 19 21 23 27 26 28 32 34 38 39 39 40 41 43 41 40 38 37 36 35 36 36 36 37 37 37 37 36 37 38 39 39 39 39 39
26 25 28 27 28 30 28 24 28 27 25 23 26 27 31 36 36 37 37 38 40 40 39 40 39 39 39 39 38 36 36 37 37 38 38 39 39 39 39 40 40 39 38 38
30 22 28 26 31 30 27 29 24 25 17 17 23 26 27 32 34 36 36 37 38 39 39 39 37 37 37 37 38 39 37 33 31 31 35 35 34 35 36 37 37 37 37 36
30 25 24 29 27 27 28 27 28 27 24 18 18 23 29 32 35 33 35 37 38 38 38 36 35 35 34 33 33 31 28 26 27 29 31 31 32 33 35 36 36 35 34 35
33 29 25 25 29 32 28 28 25 20 19 24 21 20 29 32 33 36 37 37 37 37 36 35 34 33 27 26 26 26 25 25 27 27 29 30 32 33 34 35 35 34 34 34
30 27 25 25 26 27 27 32 29 27 27 25 19 20 33 35 35 36 37 37 37 37 36 35 33 31 26 24 25 25 25 23 24 24 25 29 32 33 33 32 32 32 32 32
36 30 24 22 23 26 23 28 28 25 22 23 23 20 32 33 35 36 37 37 36 35 35 34 32 28 24 24 25 24 23 24 24 23 25 29 31 34 34 33 32 32 33 35
31 26 28 30 30 28 25 23 29 25 25 22 23 23 25 33 35 36 37 36 35 34 34 33 32 27 23 24 24 23 23 24 25 24 25 29 32 33 34 35 35 35 35 36
32 26 26 28 31 30 26 24 25 27 26 28 28 27 32 36 37 37 36 36 35 34 33 33 32 28 24 23 22 21 22 23 25 25 25 30 32 32 33 34 34 34 35 34
27 27 20 13 27 23 16 22 24 25 26 26 26 27 36 36 37 37 36 35 35 34 32 32 32 30 25 23 22 20 21 23 24 25 26 30 32 32 32 32 33 33 33 32
29 26 21 18 18 6 19 27 28 28 30 32 32 33 36 36 37 37 36 36 35 33 31 31 32 30 23 22 20 21 21 22 23 25 26 30 31 31 31 32 32 31 32 31
30 25 23 16 17 16 16 30 32 29 26 35 34 35 36 36 35 35 36 36 35 34 33 32 29 24 20 20 19 19 21 22 23 24 25 28 31 30 31 31 30 29 29 27
31 26 22 18 9 5 18 27 33 30 26 36 36 35 36 35 30 34 36 36 34 33 30 24 21 18 18 18 20 21 22 23 24 25 26 29 30 29 28 27 27 28 22 23
27 25 16 19 11 19 23 32 33 25 25 37 36 36 36 34 36 35 36 35 34 26 19 20 19 19 21 22 23 22 23 24 25 26 28 28 28 28 26 26 25 23 23 25
29 25 20 21 14 14 28 32 28 32 33 37 37 37 36 36 34 36 37 30 20 19 18 19 20 21 23 23 24 25 25 26 27 28 28 28 28 27 26 26 23 24 24 22
26 26 25 24 24 27 31 33 34 36 34 38 38 39 38 37 37 38 29 22 19 18 18 20 21 22 23 25 26 26 27 28 28 29 29 28 28 27 27 25 22 22 21 18
32 32 28 29 29 31 33 34 37 39 38 39 40 40 39 38 38 31 22 20 19 19 20 21 22 22 24 26 27 28 28 28 29 29 28 28 27 27 27 24 22 21 19 18
32 34 31 30 33 34 35 38 38 40 41 41 41 40 39 38 31 25 21 21 20 21 22 22 23 24 25 26 28 28 28 28 29 30 30 29 28 29 27 22 23 23 22 22
35 32 30 29 31 31 31 34 40 41 42 42 40 39 35 32 25 23 23 23 23 23 23 22 24 26 26 27 28 28 28 28 28 30 30 29 29 31 27 24 24 26 27 27

GFSCGP_sfc_dewp_015.txt.gz
Dewpoint
28 23 19 21 17 12 14 14 13 19 29 35 36 37 38 42 42 43 44 45 46 46 50 53 56 58 58 58 58 58 58 55 53 49 52 52 52 49 45 43 44 43 43 43
26 24 24 27 27 23 22 22 24 28 32 35 35 36 39 40 41 42 44 45 46 47 49 51 53 55 57 57 56 56 55 51 50 52 52 52 50 47 42 41 42 41 43 42
26 24 28 28 27 28 27 24 23 27 33 34 33 33 38 40 42 43 44 44 46 48 49 50 51 54 56 56 53 49 49 49 49 49 47 46 48 46 43 40 38 40 41 41
30 30 27 26 26 27 26 27 29 31 28 25 28 19 34 39 41 42 43 44 45 45 46 46 45 46 46 46 46 46 45 43 43 44 44 45 43 43 42 39 39 39 41 41
29 30 27 28 27 30 28 30 28 25 24 24 27 25 29 39 39 41 42 43 43 42 42 39 39 40 40 42 44 44 44 43 43 44 46 44 44 41 39 40 41 41 42 41
29 29 29 28 31 30 33 31 31 30 27 23 24 24 26 35 38 40 41 42 42 41 41 40 41 41 41 42 44 44 41 41 42 43 44 44 42 40 39 41 41 41 41 42
28 28 28 31 29 31 30 29 27 27 28 24 28 27 27 32 37 40 41 41 42 42 42 41 41 41 42 43 42 40 39 38 40 40 40 40 40 40 41 41 41 42 41 41
24 21 25 28 28 28 29 29 30 22 25 24 27 27 27 32 34 39 40 41 42 42 43 42 42 40 39 40 39 39 39 39 40 41 41 42 42 40 37 37 36 37 38 39
29 26 27 28 29 30 28 25 30 28 26 25 25 28 30 34 34 38 39 40 41 42 42 41 40 39 39 38 40 40 37 34 34 36 35 35 34 34 34 36 37 36 39 39
32 26 28 28 30 31 28 29 26 27 22 18 20 25 25 33 33 37 38 39 41 41 41 40 39 40 40 40 41 38 32 28 30 30 32 30 32 33 33 34 33 34 37 39
29 30 28 29 28 28 29 28 29 27 26 19 18 19 31 33 35 36 38 39 41 41 41 39 37 37 37 39 34 30 29 26 27 28 30 32 32 33 33 32 33 34 37 38
32 32 30 25 29 32 29 28 27 26 21 25 26 21 28 34 35 37 37 39 40 40 39 36 35 34 33 30 27 29 27 26 27 28 29 30 31 32 33 33 34 36 35 36
33 31 29 26 26 28 28 31 28 28 30 27 32 21 31 35 35 35 37 38 39 39 36 35 34 28 25 26 27 26 26 25 25 25 25 28 30 32 33 33 34 35 35 35
37 30 29 26 23 27 26 30 27 27 28 25 28 24 25 33 35 36 37 38 38 37 35 34 33 29 25 26 26 27 30 27 25 24 24 28 31 33 34 34 34 35 36 37
33 30 29 30 30 28 25 26 28 24 26 27 25 24 25 30 35 36 38 37 36 35 35 34 33 29 25 26 28 30 27 26 26 26 25 28 31 34 34 34 34 35 36 36
32 30 28 30 30 29 27 26 26 28 28 26 27 27 29 33 36 37 37 36 35 35 35 34 33 30 26 25 29 27 25 25 26 26 27 28 30 32 34 34 34 34 34 34
30 31 25 21 26 23 24 25 25 26 28 29 28 28 35 35 36 37 37 37 36 36 35 34 34 33 28 28 28 25 24 24 25 26 26 28 30 31 33 32 31 31 32 33
30 27 24 27 23 20 22 29 27 27 27 27 29 31 34 35 37 37 38 37 37 36 35 34 34 34 33 27 25 25 21 22 24 25 26 27 28 30 32 31 30 30 31 33
30 29 25 28 21 20 18 23 30 31 25 32 30 33 36 37 37 38 38 38 38 37 35 33 33 32 25 23 22 21 22 23 24 24 25 26 28 30 30 29 29 29 29 28
31 29 30 24 23 19 22 21 35 31 29 32 35 36 37 37 38 35 39 39 38 36 34 31 25 21 21 21 23 24 22 23 25 27 27 28 30 30 29 29 28 28 28 24
32 30 27 21 28 24 24 30 33 27 28 35 37 37 37 37 40 37 38 38 36 33 22 22 21 21 22 24 24 22 24 25 27 27 28 28 29 29 29 29 28 27 25 26
30 29 28 23 23 23 28 33 33 36 36 36 38 38 39 39 37 36 37 32 26 21 20 21 22 23 24 24 24 23 24 27 27 28 29 30 29 29 27 28 28 25 26 26
29 31 31 27 29 31 31 37 36 36 36 37 39 39 39 39 36 37 32 25 20 19 19 21 21 22 23 24 25 25 27 28 28 29 30 30 30 29 28 28 27 25 24 25
33 32 32 32 31 30 32 34 35 36 38 38 39 40 40 39 38 35 24 21 19 19 19 21 20 20 22 25 26 28 29 28 29 29 30 31 29 29 29 28 24 23 25 25
34 34 32 32 33 34 33 36 38 38 40 41 41 41 41 40 38 30 23 21 21 23 26 21 21 23 23 26 27 29 28 29 29 29 27 27 29 27 28 30 25 24 24 25
35 33 35 34 34 34 34 33 37 40 40 42 42 41 39 37 31 24 23 25 26 29 23 21 23 24 25 27 28 28 28 29 30 29 30 31 31 29 30 30 27 27 28 28

GFSCGP_sfc_dewp_018.txt.gz
Dewpoint
28 21 16 17 15 12 10 11 11 17 30 28 26 27 31 38 42 44 44 45 46 47 50 54 56 57 58 60 60 61 60 61 59 55 53 51 51 50 47 45 46 45 44 44
25 20 23 26 20 17 16 14 20 25 31 30 29 31 35 36 40 43 44 45 46 48 50 54 57 57 58 59 59 60 58 57 54 52 52 52 50 47 45 44 45 43 42 41
21 25 27 25 23 21 22 20 25 21 29 30 29 28 34 38 39 41 44 45 46 48 51 53 55 57 59 58 59 57 55 52 52 52 49 49 49 46 44 43 42 41 43 41
27 28 25 25 25 26 22 25 26 28 24 18 28 14 32 36 38 41 43 45 47 49 52 53 53 53 55 54 52 50 50 49 47 45 46 47 44 44 43 42 41 41 44 43
27 26 25 24 26 28 26 29 28 26 24 25 25 19 29 37 36 40 44 46 49 51 49 46 46 48 47 50 49 48 45 44 45 46 47 45 44 42 41 42 42 43 42 43
28 29 28 28 30 29 31 30 28 27 26 23 21 22 17 32 34 39 43 45 47 46 43 41 42 42 43 45 46 46 44 43 44 44 44 44 43 40 38 39 36 32 32 31
26 27 28 30 29 32 30 26 23 24 25 23 27 23 20 27 35 39 42 42 44 43 41 40 40 40 42 44 45 44 42 41 42 41 39 39 39 38 32 30 27 28 26 27
20 25 24 29 29 25 28 26 24 16 21 18 27 20 21 31 33 39 41 40 42 41 41 41 41 42 43 44 43 43 41 39 37 37 36 34 30 27 26 28 28 28 28 29
24 22 27 29 30 30 28 26 30 28 30 28 18 24 28 33 33 37 39 39 40 40 41 42 42 42 43 43 44 42 37 32 32 32 32 30 30 30 30 32 32 29 30 28
30 26 27 29 30 31 29 29 27 28 23 17 15 18 16 31 33 36 38 39 39 39 41 42 41 42 42 42 42 39 33 30 30 32 31 28 30 30 31 31 30 30 31 31
30 28 29 30 28 26 28 27 26 26 28 16 13 10 28 29 33 36 38 39 40 41 42 42 41 41 41 41 36 32 30 30 32 29 30 31 30 31 30 30 30 30 32 31
32 32 32 28 30 32 29 27 24 22 21 29 30 15 28 34 34 35 37 38 40 42 42 42 40 40 40 37 32 31 31 31 29 28 28 28 29 28 29 30 29 31 31 32
34 32 30 27 29 30 29 29 26 29 32 26 32 16 28 33 34 35 37 38 40 42 42 40 38 37 36 33 31 30 32 32 28 24 24 26 27 28 29 30 30 30 31 31
37 32 30 28 23 27 28 29 27 25 26 21 25 13 22 26 30 32 36 38 40 41 41 38 37 35 33 30 28 30 35 34 28 24 23 24 28 29 30 30 30 31 31 32
35 31 30 27 28 27 25 26 27 23 24 25 17 18 14 21 25 29 36 38 39 39 38 37 36 34 30 28 28 37 33 34 28 26 24 26 29 30 30 32 30 32 32 31
34 33 31 30 30 28 26 25 25 25 24 25 22 23 23 26 30 33 36 37 37 38 37 37 37 35 31 28 32 32 33 30 27 26 26 27 28 29 30 30 31 31 30 30
35 35 29 23 27 27 32 28 24 24 27 27 26 25 27 30 32 32 36 37 37 37 37 37 37 35 32 29 32 31 30 27 26 25 25 26 28 28 29 28 28 28 29 30
34 32 31 32 29 30 17 25 24 24 24 23 25 24 27 28 34 36 36 37 38 37 37 38 37 35 33 29 30 30 25 24 24 24 25 25 25 25 26 28 28 30 29 29
31 33 32 36 24 21 11 19 22 26 19 24 24 24 27 35 37 37 38 39 39 39 39 39 37 35 33 30 27 25 23 22 23 22 21 22 26 26 26 26 29 30 29 29
31 33 34 31 35 32 23 25 34 32 25 27 31 33 35 36 38 26 39 39 40 39 39 36 33 31 27 24 24 23 23 23 19 22 23 24 24 25 26 27 28 30 30 27
36 36 36 32 36 28 24 25 34 24 24 33 35 36 38 37 35 38 38 40 40 39 37 33 28 25 25 24 24 22 20 17 22 24 24 24 25 26 27 29 30 29 28 26
32 34 36 31 35 30 26 33 32 35 37 36 36 38 40 40 40 38 38 39 39 36 30 26 25 24 24 24 23 15 15 22 24 25 25 26 28 28 26 30 30 30 28 27
31 34 34 30 31 29 31 34 36 37 38 38 38 37 40 40 40 38 37 36 34 28 24 22 23 24 25 20 19 17 20 25 26 27 27 28 29 28 28 29 29 28 27 27
33 33 35 33 28 30 31 33 33 34 36 36 36 37 38 40 39 39 36 31 28 23 19 20 27 32 21 21 22 24 26 27 27 27 28 28 27 27 28 29 28 28 27 27
35 34 33 33 33 32 31 33 35 35 37 39 39 40 42 42 41 39 33 28 23 23 30 33 29 19 19 23 24 25 26 27 26 27 27 27 28 27 27 27 28 30 27 27
34 32 36 35 33 35 34 35 38 39 39 41 42 42 41 41 40 36 27 24 31 36 33 26 23 22 22 25 27 28 28 27 30 29 29 29 30 29 28 27 28 29 28 28

GFSCGP_sfc_dewp_021.txt.gz
Dewpoint
30 24 22 19 21 15 13 12 6 11 17 13 12 18 23 30 33 36 37 40 43 46 48 51 53 53 53 57 59 61 61 61 60 58 57 56 52 51 49 47 47 47 46 45
25 22 21 17 16 13 11 10 14 15 19 22 15 17 23 28 31 34 36 38 41 44 48 51 54 55 56 57 59 60 59 60 58 55 53 52 51 48 46 46 47 45 45 44
24 24 26 20 16 14 15 13 19 17 21 22 19 20 28 31 33 37 39 39 41 43 48 51 54 56 57 58 58 58 57 57 54 53 51 50 49 47 44 44 43 44 45 44
33 28 23 17 18 18 18 23 19 21 22 16 20 13 23 31 33 36 39 41 43 44 48 51 54 56 57 58 58 55 54 52 52 49 46 46 44 44 45 44 44 44 44 44
23 24 21 19 23 25 29 26 25 22 21 22 20 15 32 32 30 33 37 40 42 46 49 51 53 53 53 53 52 52 50 46 46 47 48 46 46 44 43 43 40 39 37 34
35 28 26 26 27 26 27 27 26 24 19 21 15 17 22 28 28 33 39 42 46 49 49 46 47 48 48 49 49 48 45 44 46 46 47 46 43 40 37 35 31 29 28 28
25 23 27 28 26 28 24 24 22 21 23 22 20 19 18 16 30 31 39 43 47 47 44 42 42 42 44 46 47 46 44 44 45 43 40 40 39 34 32 29 27 28 27 27
20 23 24 27 27 22 25 22 23 15 18 18 23 15 14 28 26 31 39 43 46 44 41 40 40 41 43 45 45 44 43 42 40 39 36 33 32 32 29 29 30 28 28 28
20 21 25 26 27 24 23 24 26 25 28 25 14 11 22 30 30 33 38 41 43 41 39 39 40 42 44 45 45 45 42 38 35 35 37 35 35 31 32 32 32 29 30 26
23 22 24 28 28 29 28 26 24 22 19 17 10 12 11 27 28 33 37 40 41 40 39 40 41 44 44 44 46 45 40 35 36 36 35 35 34 31 33 33 31 30 30 30
23 23 28 29 27 21 27 24 24 24 28 22 15 13 21 18 27 31 35 39 40 40 40 41 42 43 43 44 43 40 35 36 36 33 34 37 31 31 32 32 31 30 31 30
27 25 29 25 29 29 28 26 26 28 22 26 30 17 22 26 28 32 34 37 39 40 40 41 42 42 42 43 40 36 36 37 33 32 30 31 31 29 30 31 30 30 30 30
33 26 27 25 28 29 25 24 25 24 31 23 29 19 23 26 26 28 31 35 38 40 40 41 42 42 42 42 38 35 37 35 32 30 28 28 29 29 30 30 30 30 29 29
37 29 27 26 25 25 28 24 24 26 28 26 24 16 17 21 22 23 29 32 36 38 40 42 42 41 41 41 37 35 36 37 35 30 24 26 28 30 31 31 30 31 30 30
36 31 29 26 27 25 23 21 23 22 23 26 21 13 11 14 17 21 24 30 32 37 40 41 42 40 40 39 36 34 36 39 34 28 25 27 28 30 31 30 30 30 31 29
35 33 33 32 28 27 24 22 19 19 20 18 17 17 18 21 20 24 25 30 32 35 39 40 40 39 38 36 34 32 38 36 33 28 28 28 28 29 30 29 30 30 29 28
37 39 32 23 26 27 31 30 24 19 20 22 24 22 20 24 25 26 26 30 33 35 38 39 39 39 38 35 33 32 36 33 30 28 26 26 27 28 27 26 24 26 28 30
39 36 34 30 31 28 15 21 18 21 19 18 18 19 19 22 29 31 31 31 34 36 37 39 39 39 39 37 32 36 31 30 28 26 26 26 26 22 22 23 24 26 29 29
32 35 33 37 23 20 17 15 19 21 19 20 22 20 20 27 34 32 33 34 33 35 37 39 39 39 39 35 33 31 30 26 27 26 24 21 21 22 23 23 25 27 28 29
31 37 34 31 34 31 27 24 30 28 22 24 24 25 25 30 34 26 33 33 34 36 37 38 39 39 37 34 31 27 29 30 24 22 20 21 21 21 22 24 26 28 29 27
36 38 37 33 36 30 23 24 31 23 30 32 32 30 32 31 32 39 38 34 36 36 37 39 39 36 34 27 28 28 26 26 20 22 21 21 22 23 25 27 27 29 28 29
33 35 37 36 36 30 24 29 28 37 34 32 34 34 37 39 38 38 39 37 37 37 38 37 34 30 27 26 32 33 28 20 22 24 24 24 24 25 26 28 29 29 29 30
32 34 36 30 32 31 29 29 30 34 35 35 35 34 36 37 36 36 37 38 37 37 33 30 27 26 32 35 32 22 21 26 26 27 26 26 27 27 27 28 28 29 28 29
33 33 34 32 25 26 28 30 31 32 34 35 35 37 38 38 39 39 39 37 35 29 24 25 32 35 33 29 21 23 27 29 27 26 26 27 28 26 27 26 26 28 30 30
35 33 31 32 30 28 29 32 35 37 39 39 39 40 42 42 41 40 39 33 28 27 33 34 31 27 24 25 27 28 28 28 26 27 28 28 31 30 28 26 27 29 30 30
34 30 37 36 36 38 35 38 42 41 41 41 41 41 38 39 40 36 28 27 34 34 29 27 29 27 26 28 28 28 29 30 30 30 30 32 31 30 28 26 27 30 31 31

GFSCGP_sfc_dewp_024.txt.gz
Dewpoint
30 27 23 27 26 20 18 18 13 11 16 17 17 17 18 25 30 36 39 41 43 45 47 49 52 53 52 58 61 62 62 62 61 61 59 58 57 55 55 50 52 50 49 48
25 25 25 25 23 20 16 16 12 11 14 16 11 12 18 23 29 33 36 40 43 44 46 51 52 55 57 59 61 62 61 62 60 60 58 56 54 54 50 50 50 49 49 47
29 31 34 24 19 17 16 18 20 13 11 8 25 11 18 20 26 30 34 36 39 42 48 50 53 56 58 60 61 60 60 60 60 58 54 52 50 50 48 49 48 48 48 47
34 31 30 21 20 16 21 27 22 23 19 15 24 22 34 34 25 27 32 36 38 40 47 50 53 55 60 60 60 59 59 58 55 55 53 51 48 47 49 49 49 47 47 45
35 23 22 21 27 27 28 27 27 21 18 29 28 25 29 34 32 31 36 40 41 43 46 50 53 56 57 59 59 58 56 53 52 51 52 51 49 49 48 47 43 41 41 38
24 26 29 31 27 26 29 27 26 20 21 30 23 29 25 29 32 39 34 38 41 44 48 50 53 54 54 56 55 55 49 47 50 50 51 50 47 44 41 39 38 36 36 36
25 20 23 30 20 23 20 20 23 28 30 29 18 18 28 30 39 45 46 38 42 47 49 50 50 50 50 51 51 50 46 46 49 48 46 45 41 41 40 37 36 34 34 34
20 27 21 22 22 34 33 19 28 28 29 24 22 18 17 29 31 36 39 42 46 48 49 47 47 47 48 49 48 47 45 45 44 44 41 40 39 38 38 38 34 35 34 34
32 27 31 25 23 22 21 22 23 28 33 29 17 11 15 26 27 27 40 42 46 46 45 43 43 45 46 47 48 48 45 43 41 40 41 41 40 39 39 37 36 36 35 30
41 36 35 26 25 25 23 21 26 25 24 21 14 12 17 27 25 29 36 41 44 45 42 41 41 45 45 47 48 50 47 41 39 40 42 38 38 40 39 37 35 33 34 34
25 31 26 28 25 16 26 24 21 19 31 31 27 17 22 21 24 30 35 41 43 44 41 41 41 44 45 47 46 47 43 37 38 40 40 40 39 39 37 37 35 33 34 34
25 26 34 22 24 26 25 27 23 37 28 35 36 24 23 26 24 31 32 35 42 43 42 41 42 44 45 45 45 45 41 37 40 38 36 37 39 36 37 36 34 34 33 34
31 29 30 22 25 27 25 23 21 27 38 33 34 27 23 23 22 26 31 34 39 41 41 41 42 43 43 44 45 42 39 39 38 35 34 34 36 35 36 34 35 34 34 33
41 28 25 29 23 27 29 25 21 23 36 34 29 19 18 21 23 23 29 32 34 40 40 41 42 43 43 44 43 41 39 41 37 36 35 32 36 36 34 35 35 34 34 33
34 30 27 24 23 25 27 23 21 20 24 27 27 20 18 18 22 23 26 30 30 30 37 39 42 43 43 44 43 40 39 40 40 38 33 34 34 33 34 36 35 35 35 33
35 36 37 36 29 27 26 24 23 19 18 19 18 19 19 21 25 26 26 24 30 30 31 37 41 44 43 42 43 40 38 39 42 38 34 33 34 32 35 35 34 35 34 32
39 43 38 33 27 27 28 31 24 21 20 21 23 25 23 21 21 28 30 29 31 32 33 36 42 43 44 42 42 39 37 41 40 35 33 33 33 32 34 30 29 29 31 33
43 41 40 37 33 27 19 20 18 19 18 16 14 18 19 28 29 29 28 31 32 36 36 38 40 42 43 42 40 38 35 38 36 32 30 32 32 29 28 29 28 30 32 32
37 41 38 37 30 25 21 19 20 20 20 22 22 22 21 26 29 31 33 35 35 36 36 37 39 41 42 41 39 35 36 32 30 32 32 31 27 26 27 27 29 31 31 32
32 42 42 35 35 31 31 25 27 25 27 27 27 29 29 28 38 35 38 37 38 34 35 36 39 40 41 40 36 32 32 33 33 30 27 26 25 27 27 29 30 31 31 31
39 41 37 36 37 36 26 26 29 28 34 33 33 33 34 34 39 41 41 39 37 35 37 40 40 36 29 30 32 31 33 32 32 32 27 27 29 29 29 30 30 31 31 31
36 38 38 40 35 32 25 28 32 39 40 36 35 36 39 40 40 40 37 37 37 37 37 33 29 31 34 35 35 33 32 30 31 29 29 29 30 28 26 31 31 31 31 31
35 38 41 36 38 36 31 32 32 36 36 37 38 36 38 40 37 37 38 39 37 33 27 27 32 35 34 34 33 31 29 28 29 31 31 31 29 29 29 29 29 29 30 31
33 34 40 38 27 27 29 30 31 34 38 37 38 39 41 41 43 41 40 37 31 25 27 34 34 32 31 29 29 29 30 31 31 31 30 29 30 29 29 29 28 29 30 30
38 34 32 34 32 31 31 37 40 41 41 41 42 41 39 40 40 37 30 30 30 34 32 31 30 31 33 32 30 30 31 31 29 28 29 31 32 32 31 29 29 30 29 30
35 33 41 41 38 39 39 40 40 39 37 37 36 34 33 32 29 31 34 33 29 29 32 32 32 31 31 31 29 29 30 31 31 31 32 33 32 32 30 29 29 30 31 31

GFSCGP_sfc_dewp_030.txt.gz
Dewpoint
35 27 27 27 28 27 26 24 23 22 18 27 25 24 38 41 42 42 43 42 42 46 49 52 58 58 56 57 58 60 59 58 57 57 56 56 56 55 54 52 49 47 47 47
30 28 29 29 30 29 28 26 25 23 21 25 24 22 31 33 39 41 42 42 42 43 44 48 54 55 56 57 59 59 59 58 56 57 57 57 56 52 49 48 47 46 46 46
29 30 33 30 28 28 27 27 26 25 19 14 20 24 26 27 38 41 42 43 43 43 43 45 50 54 56 56 59 59 59 58 57 56 58 53 49 47 46 45 45 45 45 45
31 33 31 30 28 29 24 27 27 25 23 13 22 21 28 29 29 40 39 41 43 44 44 49 51 55 56 59 60 60 60 59 58 58 56 52 49 45 45 45 45 45 45 39
28 31 28 30 28 30 28 28 27 29 26 25 24 19 22 31 22 34 35 38 41 45 46 49 55 58 58 60 60 60 60 59 59 58 54 50 47 46 47 46 43 35 35 36
29 33 31 30 31 30 29 29 30 32 30 24 27 23 23 29 27 25 33 36 39 44 49 51 57 59 60 60 60 60 59 58 56 58 50 48 46 44 42 37 33 34 36 37
29 28 28 32 28 31 29 25 23 22 25 23 30 25 24 30 32 32 33 33 40 46 50 54 57 58 59 59 59 59 53 47 47 48 47 45 40 38 34 34 34 34 35 34
24 25 32 34 29 28 27 25 25 20 23 23 30 27 27 29 31 34 35 38 45 48 51 54 55 57 57 57 55 51 47 42 41 40 38 36 34 35 35 35 35 36 34 34
28 27 35 36 33 31 27 24 29 30 32 29 27 24 26 33 34 37 38 38 45 50 52 52 52 52 50 48 47 47 44 41 39 39 36 38 38 37 36 35 35 36 34 33
33 27 33 35 33 32 28 27 24 29 22 22 19 20 26 29 31 34 39 38 46 49 49 50 50 49 48 47 47 46 43 41 39 39 39 36 36 37 36 37 35 34 34 33
37 28 31 34 32 28 27 25 25 26 26 21 22 21 22 27 31 37 38 40 47 47 49 49 49 48 47 46 45 45 42 38 39 36 36 36 36 37 37 37 35 34 34 33
37 34 30 29 30 34 29 28 30 25 19 27 25 22 27 25 30 37 39 42 47 46 47 48 48 47 46 46 46 44 41 37 35 37 37 37 37 39 37 36 35 34 33 33
34 29 25 24 24 28 27 26 28 32 29 25 22 23 25 24 22 29 35 42 46 46 43 45 46 46 46 46 45 44 41 38 38 40 36 36 36 37 35 36 35 34 32 32
36 29 24 22 20 25 27 31 31 29 26 26 26 25 26 25 23 22 26 33 44 45 43 41 43 44 45 45 45 44 40 40 40 37 34 35 36 37 35 36 34 34 33 33
32 27 28 27 31 32 28 29 29 26 27 25 25 26 25 25 24 24 26 28 38 43 42 41 41 42 44 45 45 41 40 42 39 37 35 35 37 37 36 35 34 34 34 32
35 29 32 29 30 27 25 25 26 26 26 28 25 25 27 26 28 29 28 29 29 31 34 38 41 43 44 45 45 44 40 40 39 36 36 37 38 37 37 35 34 30 29 29
34 31 28 26 26 22 22 23 23 25 27 25 22 26 27 29 30 28 31 32 32 34 36 42 43 43 44 45 44 43 42 39 37 38 39 37 35 32 32 31 29 30 31 32
33 31 28 25 22 14 25 26 25 26 25 25 26 26 31 33 35 34 33 32 31 32 34 36 39 44 44 45 43 40 41 42 39 34 33 33 33 31 32 33 34 35 34 32
39 34 30 22 22 24 23 25 23 23 26 29 28 29 29 34 36 36 37 38 37 36 33 32 33 34 34 37 37 35 34 31 29 29 31 32 33 34 36 37 36 34 33 30
37 32 29 27 21 15 25 29 29 29 27 32 33 33 34 32 31 36 38 35 31 33 33 33 33 32 32 32 32 31 31 32 33 33 34 36 37 37 36 36 34 32 30 30
28 28 24 22 20 25 30 31 29 16 21 33 34 33 33 34 36 38 33 33 34 34 33 33 33 33 33 34 34 33 34 34 36 38 39 38 38 37 35 34 31 30 29 28
28 28 26 30 24 21 35 29 24 29 36 34 33 34 37 40 39 33 31 33 33 33 34 33 33 33 33 34 35 35 36 36 37 38 38 36 34 32 31 31 28 28 27 27
27 31 29 30 29 34 32 33 36 36 36 38 41 42 42 41 34 30 32 34 33 32 30 29 29 30 31 32 33 33 35 36 35 33 32 32 32 32 31 28 27 27 27 25
34 38 34 32 34 36 41 42 42 42 38 35 37 39 37 31 31 32 33 33 32 31 30 29 30 32 33 32 31 32 32 31 31 30 30 30 30 29 29 29 29 29 25 25
35 34 33 33 39 40 40 39 38 35 36 34 34 34 34 34 33 32 31 30 30 31 33 33 33 32 31 31 31 30 30 31 29 29 29 29 28 29 29 29 30 29 28 27
35 33 31 30 37 37 38 38 38 36 36 36 35 35 34 32 30 30 31 32 32 32 32 31 32 31 31 30 30 30 30 30 29 29 29 28 27 27 29 28 28 30 31 31

GFSCGP_sfc_dewp_033.txt.gz
Dewpoint
34 28 26 26 28 28 27 26 25 24 24 26 28 26 37 41 43 44 45 47 54 54 54 56 57 57 60 59 59 59 58 57 56 56 56 55 55 55 54 53 49 48 50 48
29 28 28 30 28 29 28 26 25 26 23 22 24 23 35 41 41 43 43 44 45 54 54 56 57 58 59 58 59 59 58 57 56 56 56 56 55 53 52 50 47 47 47 46
28 27 33 30 27 27 27 27 26 26 23 21 23 22 24 28 40 41 44 43 44 47 52 54 57 58 58 57 58 58 58 57 56 56 56 53 49 48 46 45 45 45 46 45
30 32 31 30 28 27 25 28 28 25 23 11 20 17 26 27 34 40 42 43 42 44 48 50 55 57 56 56 58 59 58 58 56 56 56 53 52 49 45 45 45 45 44 41
27 32 29 28 26 29 27 32 27 28 26 23 24 19 21 30 27 36 40 42 43 42 44 47 52 55 56 56 58 59 59 59 57 56 56 54 51 46 46 45 44 35 37 37
28 32 29 27 30 30 31 29 29 31 28 22 26 22 22 27 26 30 39 40 41 44 46 49 50 54 55 58 58 58 59 58 58 57 55 54 49 46 44 42 36 35 37 36
28 28 29 33 27 29 27 24 20 19 23 21 28 25 25 25 29 30 33 37 38 41 48 53 56 56 57 58 58 58 58 58 58 58 53 50 47 45 43 39 35 36 35 34
24 22 29 34 28 27 29 24 23 18 21 20 29 27 25 29 31 32 32 34 38 44 48 53 56 57 57 58 58 59 58 52 51 53 49 46 45 47 47 44 38 36 35 35
26 25 33 35 33 29 28 24 28 28 30 26 26 26 24 29 32 37 37 40 44 47 50 54 57 58 58 58 58 57 51 47 45 45 42 40 42 42 42 41 36 35 36 34
28 23 31 33 34 32 29 29 22 27 21 21 21 20 24 27 27 32 38 37 45 49 52 53 55 55 55 54 51 50 46 43 41 40 40 39 38 37 36 35 35 34 35 36
35 25 26 35 30 26 27 25 25 26 25 20 20 22 23 27 29 29 33 37 42 49 51 52 53 53 52 49 48 46 42 38 38 39 38 38 37 38 35 33 33 33 35 34
34 30 27 27 31 32 29 28 27 25 20 26 25 22 25 23 27 31 35 37 43 49 50 51 51 50 48 48 47 45 42 39 39 40 41 39 37 36 35 34 34 35 33 34
35 29 25 24 26 27 28 28 31 30 28 24 22 22 25 25 22 24 34 37 43 47 48 49 49 48 47 46 46 46 44 43 41 41 40 36 37 36 35 35 35 34 33 33
35 29 26 24 24 26 26 29 29 29 26 25 25 24 25 25 26 25 24 31 42 47 45 47 47 48 48 47 46 46 45 42 41 40 38 38 37 37 35 35 35 35 34 33
32 26 25 25 24 30 27 27 30 27 27 25 26 27 27 25 23 24 25 28 36 44 44 43 45 46 47 48 47 46 44 44 44 40 38 39 37 38 37 37 36 36 35 33
34 27 30 29 29 27 25 25 25 26 26 28 26 25 28 27 29 29 29 30 32 35 41 42 42 44 46 46 46 44 43 43 41 40 40 39 39 38 37 35 34 33 33 33
31 30 28 24 26 23 23 24 24 24 26 26 22 24 28 29 29 30 33 33 34 36 38 40 42 42 43 45 45 42 42 41 40 39 40 37 34 32 33 33 34 35 36 37
31 29 28 25 22 16 26 27 25 25 26 26 26 27 31 32 34 34 33 31 33 35 35 34 35 41 44 44 42 41 40 39 37 35 33 33 34 34 35 35 37 38 37 36
36 31 28 23 23 24 24 25 25 24 23 28 28 30 33 35 36 36 37 35 33 33 33 33 33 33 34 34 35 31 31 31 32 32 35 36 37 37 38 37 37 37 37 35
32 32 30 25 19 17 26 27 28 29 25 30 31 31 32 31 29 35 35 33 34 33 33 33 33 33 32 32 32 31 31 32 33 35 37 39 39 38 37 37 37 35 32 30
28 28 26 21 20 24 26 30 26 20 23 33 33 34 34 31 34 35 34 34 34 33 33 33 34 34 33 33 34 34 36 37 38 40 40 39 39 38 38 36 35 33 30 28
29 28 25 25 20 19 31 31 21 27 34 35 34 34 37 37 33 34 34 33 33 33 32 32 33 33 34 35 36 36 36 37 38 39 38 37 37 34 32 31 30 29 28 27
26 30 29 29 28 32 33 29 33 36 34 34 36 39 40 32 32 34 33 33 31 29 28 29 31 31 32 33 35 35 36 35 34 32 31 31 31 31 31 29 28 27 27 26
33 37 31 30 34 35 39 40 39 40 39 39 41 40 35 32 33 33 32 31 30 29 29 31 32 31 31 31 31 32 32 31 30 29 29 29 29 29 29 29 29 28 26 25
34 36 34 34 38 39 38 37 35 35 35 35 35 34 33 34 33 32 31 31 31 32 33 33 32 31 31 31 30 30 30 30 29 29 29 29 28 28 29 29 29 29 29 28
35 34 32 32 39 36 38 37 37 35 35 35 33 33 33 32 30 30 31 32 32 32 32 31 31 31 29 29 29 30 31 30 29 29 29 28 28 28 28 28 28 30 31 31

GFSCGP_sfc_dewp_036.txt.gz
Dewpoint
34 27 25 26 26 26 26 26 25 24 25 26 32 33 40 46 48 50 51 52 54 52 52 53 55 56 57 59 59 59 57 57 57 56 55 54 54 55 54 54 51 52 50 48
29 27 28 29 30 28 28 25 24 25 23 24 25 29 39 43 46 48 49 49 51 53 52 52 56 56 57 59 59 58 58 57 57 57 55 55 54 53 53 50 47 49 47 46
27 26 32 28 27 25 25 25 25 25 26 23 23 23 36 37 42 44 47 47 49 51 53 53 56 56 57 59 59 59 58 57 56 56 55 52 50 49 48 46 45 46 46 45
29 31 30 29 27 26 25 27 28 27 23 14 21 14 25 32 39 40 42 44 44 47 51 54 55 56 57 58 58 59 58 57 56 56 55 53 53 50 48 46 45 45 45 42
28 29 29 27 26 28 26 30 29 27 25 23 23 18 19 29 30 38 39 42 43 44 46 51 54 56 58 57 57 58 58 57 57 56 56 54 52 52 50 45 44 39 38 37
28 32 29 26 28 29 31 28 25 29 27 22 24 22 22 28 27 32 37 41 43 43 44 48 51 55 57 56 57 57 58 58 57 56 55 54 51 48 48 45 39 37 37 36
27 28 29 32 27 30 27 23 20 18 23 22 27 25 25 25 27 30 31 37 41 43 43 46 48 53 55 55 56 57 58 58 58 57 55 53 51 50 48 44 39 37 36 36
24 22 28 31 26 25 26 23 22 16 20 18 27 24 22 28 32 34 33 32 40 42 44 45 48 51 54 56 57 57 58 58 58 57 56 54 54 50 49 45 40 39 36 37
25 23 31 34 32 28 27 24 26 27 28 25 24 25 21 29 35 36 35 37 36 40 44 46 50 53 55 56 57 57 58 58 57 57 54 52 51 50 47 44 42 37 36 35
28 20 29 31 34 32 27 29 23 25 19 19 21 19 20 24 26 35 36 37 39 44 48 50 54 55 56 56 57 57 58 56 53 52 51 49 48 48 47 43 39 37 35 35
30 21 22 34 29 25 26 25 25 25 25 20 18 20 24 24 28 29 30 36 38 45 49 52 54 56 56 56 55 55 53 49 45 45 44 44 44 46 45 43 40 37 35 37
31 27 22 24 31 30 27 26 27 24 20 26 24 22 25 23 23 26 29 33 38 44 49 51 52 52 53 53 52 52 49 45 44 45 44 45 44 43 41 38 34 35 34 37
33 27 23 23 24 27 27 28 30 29 27 24 21 22 24 26 25 24 26 30 37 46 49 50 50 50 51 50 50 49 46 44 43 44 44 44 39 39 34 33 34 35 35 35
34 29 24 22 22 25 24 27 30 28 26 25 24 23 24 25 26 26 26 26 30 43 47 48 49 49 48 49 49 47 46 43 43 43 42 38 41 37 36 36 35 35 35 34
30 24 26 25 24 26 26 26 28 26 26 25 26 25 26 27 25 24 26 27 33 44 46 46 47 48 48 48 48 47 46 44 45 41 39 39 39 38 37 37 36 37 35 34
32 26 28 28 28 27 28 26 27 28 28 27 26 25 28 27 29 30 28 33 37 40 42 43 43 46 47 48 47 46 44 43 43 41 40 40 40 38 39 37 35 34 34 36
30 29 27 24 25 23 23 24 25 25 26 27 25 27 27 28 30 31 33 35 35 36 36 36 40 43 44 44 45 44 42 42 40 40 40 38 37 34 34 35 36 37 38 38
29 28 27 24 23 16 24 27 26 25 25 25 25 26 28 30 33 35 35 33 34 33 34 33 35 36 37 40 40 39 39 37 35 34 34 35 36 37 38 38 38 38 38 38
34 30 26 24 23 22 23 25 25 24 21 27 26 32 33 35 35 35 33 34 33 33 33 33 33 32 32 32 32 32 33 33 34 35 37 38 39 38 38 38 38 38 38 37
32 31 29 23 19 18 25 26 27 26 22 29 32 33 35 32 26 33 33 34 33 33 33 33 32 32 32 32 32 33 34 35 37 38 39 39 39 39 38 38 37 37 37 35
29 28 25 21 20 25 28 27 28 20 23 31 33 34 33 30 30 34 34 33 33 33 33 34 34 33 33 34 35 36 37 37 39 39 40 39 39 39 39 38 36 34 32 30
32 29 25 24 20 23 29 29 24 28 33 34 33 34 34 35 34 34 33 32 32 32 32 33 33 34 35 36 36 36 36 38 38 39 38 37 36 33 32 31 30 30 29 27
29 32 30 30 30 32 32 30 31 32 34 34 34 37 36 34 34 33 33 30 29 29 30 31 32 32 32 33 33 33 33 33 32 30 30 30 30 30 29 29 28 28 27 25
33 33 30 29 31 32 35 39 37 37 36 38 39 38 34 33 34 32 30 28 28 29 30 31 31 30 30 31 31 31 31 30 29 28 29 29 28 29 28 28 29 28 26 26
33 34 33 31 37 38 38 38 36 36 37 35 35 34 34 34 32 31 30 30 31 32 32 32 31 30 29 30 31 31 30 30 29 29 30 29 28 28 28 28 28 28 28 29
36 34 32 31 35 34 34 36 36 36 35 35 34 33 34 33 32 31 31 32 32 31 31 30 29 29 30 28 28 29 30 29 29 28 29 27 27 26 27 27 27 29 31 31

GFSCGP_sfc_dewp_039.txt.gz
Dewpoint
34 29 26 25 28 25 27 25 24 25 25 31 35 34 42 49 50 50 50 51 53 53 54 53 55 56 56 57 59 59 61 62 60 60 59 59 60 61 61 60 60 58 55 52
30 30 29 29 29 29 27 25 24 26 23 26 24 27 36 46 48 49 50 51 52 53 53 53 54 55 56 56 58 61 61 61 60 60 58 58 59 58 58 57 55 56 53 51
30 27 32 29 28 27 26 25 25 25 26 24 25 24 32 41 45 47 49 50 51 52 53 52 54 55 56 56 58 60 60 60 59 59 58 56 55 54 54 52 51 52 51 49
30 31 30 28 27 26 24 26 27 27 24 18 23 16 22 34 40 43 46 48 49 50 52 53 53 55 56 56 58 59 60 60 59 59 58 57 56 54 54 52 49 49 49 48
29 29 30 29 28 28 26 30 29 27 25 24 24 19 20 29 33 40 43 45 47 49 50 52 54 54 56 58 60 60 60 60 59 59 59 59 57 57 54 50 49 48 47 46
30 31 31 30 28 29 30 28 26 29 28 24 24 23 22 26 28 33 39 44 44 46 48 49 53 56 56 59 60 61 60 59 59 58 58 57 57 54 52 48 46 45 43 41
27 29 29 31 27 30 28 26 23 20 26 23 28 25 26 27 28 30 33 37 43 45 47 47 49 53 56 58 59 60 59 59 59 58 57 57 56 54 52 49 46 44 42 40
23 22 28 32 29 27 28 26 26 17 21 19 27 23 20 29 30 34 36 35 35 42 46 46 47 50 55 57 59 59 59 59 58 58 58 57 56 54 54 51 47 44 42 40
27 23 30 33 31 28 27 25 27 29 30 27 24 25 24 27 31 34 36 37 35 38 43 45 47 49 53 57 58 59 59 59 59 59 58 57 56 55 53 50 47 46 42 39
31 25 29 30 33 32 29 29 27 28 23 21 21 21 18 23 26 30 33 36 38 42 41 45 47 50 52 56 57 59 59 58 59 59 58 57 57 56 53 49 46 45 42 40
31 26 24 33 30 27 28 27 27 26 27 22 20 20 28 25 27 31 32 33 39 41 45 47 49 53 54 56 57 57 58 58 58 57 57 57 55 54 52 50 47 44 42 40
32 31 27 24 30 29 28 30 29 30 23 27 27 22 26 29 27 27 29 31 38 40 44 48 52 54 56 57 57 57 57 57 56 55 53 53 53 51 50 49 47 44 42 39
34 29 24 22 26 28 29 29 29 29 30 27 31 25 25 27 28 28 28 29 33 42 46 49 52 53 54 55 55 55 55 54 51 49 49 49 48 49 49 49 47 43 39 38
35 31 27 21 23 27 28 29 30 30 29 28 28 26 27 27 28 29 30 30 30 32 45 49 51 51 52 53 53 53 51 49 47 47 47 47 47 47 46 42 39 38 38 36
35 29 29 26 24 25 25 28 29 27 29 30 28 25 27 29 29 30 30 30 37 43 46 47 49 50 50 50 50 50 48 47 46 44 43 43 43 41 40 39 39 39 38 36
34 30 28 27 28 27 29 27 29 29 28 27 27 27 30 29 28 30 30 38 40 40 42 43 43 46 48 49 49 48 46 45 45 43 41 41 40 39 39 39 38 37 36 39
34 33 30 25 26 26 28 29 27 27 29 30 28 30 30 28 30 33 36 36 36 36 38 39 41 43 44 45 47 46 45 44 43 41 40 39 37 36 37 38 39 39 39 40
33 33 31 29 27 26 27 27 27 29 29 27 27 27 28 30 34 34 34 35 34 34 36 36 37 37 38 40 40 40 39 39 38 37 36 36 37 38 39 39 39 39 40 40
34 33 29 30 26 26 24 26 27 27 23 27 26 27 31 35 35 33 34 34 34 35 34 34 34 35 35 36 36 36 36 36 37 37 37 38 38 39 39 39 40 40 40 40
32 34 35 26 27 25 30 27 29 27 24 29 30 33 35 35 34 34 34 34 34 34 34 34 34 34 34 35 36 36 37 37 38 38 39 39 39 39 39 39 39 38 37 37
32 31 31 26 31 30 30 27 30 26 27 33 33 35 37 33 33 36 34 34 34 34 34 34 34 35 36 37 38 37 38 38 39 40 40 40 39 39 38 37 36 35 34 34
32 31 32 29 32 29 31 27 29 35 33 35 36 38 38 36 35 34 33 33 33 33 34 34 35 36 37 37 37 37 37 38 38 36 34 32 32 31 30 32 32 31 31 31
34 35 33 33 35 38 33 35 34 33 34 36 37 37 37 35 34 33 32 32 32 32 33 34 34 33 33 33 33 31 31 30 29 29 29 30 30 30 29 29 30 29 30 30
34 34 36 35 35 34 35 35 37 35 36 36 37 38 37 35 34 32 31 31 31 32 31 31 31 30 30 30 30 30 30 30 30 30 30 30 29 28 28 27 27 27 28 29
36 35 33 33 34 38 38 39 38 37 39 38 36 36 36 35 32 30 30 31 30 31 30 30 30 30 30 29 29 30 30 30 28 28 27 26 26 25 23 23 25 25 25 27
36 35 34 34 34 36 34 38 38 38 37 37 35 35 35 33 31 30 30 31 31 31 30 29 29 27 26 26 25 25 25 23 23 21 21 22 22 22 20 19 18 24 24 24

GFSCGP_sfc_dewp_042.txt.gz
Dewpoint
34 29 21 19 19 22 23 19 19 21 24 27 26 28 32 43 46 44 43 45 47 47 49 54 56 57 56 56 56 56 58 60 60 61 58 54 52 55 60 62 62 61 59 58
31 27 27 28 28 26 26 22 21 24 25 25 21 22 28 39 45 45 43 44 46 47 49 50 54 55 56 56 58 58 57 58 60 59 59 54 55 54 57 60 61 61 60 57
27 26 30 28 27 27 26 24 24 23 26 24 24 21 28 36 43 45 46 44 45 46 48 50 50 53 55 55 56 57 57 59 60 59 58 55 57 59 59 60 60 59 59 56
28 28 28 28 25 27 23 25 25 26 25 18 24 15 22 28 37 42 43 46 44 46 48 48 50 50 52 54 56 56 57 59 59 60 58 57 54 53 56 58 57 56 57 55
26 28 29 26 24 27 24 28 27 27 24 24 21 16 19 26 24 31 39 43 45 43 46 48 50 50 51 54 56 57 57 59 59 60 60 59 58 56 57 57 55 55 55 53
25 30 28 26 28 27 30 28 28 29 26 22 20 19 18 18 18 22 29 37 43 45 46 47 48 51 52 54 56 57 57 58 60 61 61 61 61 59 59 56 53 52 52 51
27 27 27 29 28 30 28 27 24 21 23 22 26 22 20 21 25 28 29 30 38 43 46 47 47 49 52 54 57 58 57 56 60 61 61 61 61 61 58 57 54 51 51 50
21 21 24 28 28 24 26 26 25 17 20 19 25 19 19 25 28 30 33 35 36 36 43 45 48 49 51 54 57 59 58 58 60 61 59 60 60 60 59 59 56 52 50 49
22 19 26 29 29 27 28 26 26 26 31 24 18 19 21 24 25 27 30 35 36 36 36 40 45 48 50 54 57 60 59 59 59 60 60 59 59 59 58 58 56 52 50 47
26 24 28 32 32 32 29 28 26 26 21 18 18 18 14 19 19 24 23 28 34 38 38 41 43 45 49 52 56 60 60 58 59 61 60 59 59 59 58 57 55 51 48 45
24 25 29 32 29 25 29 27 27 25 26 21 19 17 21 20 22 26 27 29 33 36 40 43 45 48 50 52 54 57 57 57 58 59 59 59 59 59 58 57 55 52 50 47
27 27 27 23 28 29 24 25 27 26 22 28 29 21 21 24 27 27 27 29 33 38 39 43 47 51 52 53 54 55 56 56 57 59 59 59 58 57 57 55 54 51 48 44
31 27 25 23 26 28 25 26 25 28 30 27 31 23 25 27 28 29 30 29 30 35 39 45 49 51 53 55 56 56 57 57 57 57 56 56 55 54 53 52 50 48 46 45
35 27 25 22 20 20 25 25 26 28 29 27 28 23 23 24 25 25 28 31 30 31 34 44 49 50 52 55 56 56 57 56 54 53 53 53 53 52 53 52 50 48 46 42
32 26 26 21 18 17 18 18 25 25 27 26 25 21 23 21 25 24 31 30 34 37 41 46 48 50 52 53 54 54 53 53 52 51 50 50 50 48 47 46 45 44 44 40
32 25 29 26 23 23 20 20 20 24 23 25 25 23 23 26 29 30 30 34 38 41 43 45 48 50 50 51 51 51 50 50 49 47 46 45 44 42 41 41 40 39 38 39
34 31 29 23 26 25 29 29 24 25 28 28 25 25 25 26 29 31 34 37 39 41 42 43 44 45 46 48 49 48 47 47 46 44 43 42 41 39 39 38 37 39 39 41
36 34 33 29 32 30 22 27 26 26 26 26 26 25 25 27 28 34 36 38 38 39 39 40 41 42 44 45 45 45 43 43 42 41 39 39 40 39 39 39 39 40 40 40
37 36 33 36 27 23 24 26 27 28 25 25 25 25 24 30 34 34 36 37 38 39 39 39 39 40 41 41 41 40 40 40 39 39 39 39 39 39 39 39 40 41 40 41
35 37 38 31 28 30 25 25 28 27 27 25 27 28 28 33 34 31 36 36 37 37 37 38 38 39 39 39 40 40 39 39 38 39 38 39 39 39 39 40 40 39 38 38
34 34 36 33 34 30 30 29 29 27 30 30 29 30 34 34 33 37 36 36 36 36 36 37 38 38 39 39 39 38 38 38 39 39 40 39 38 37 37 35 34 33 32 32
33 34 36 34 37 33 31 28 29 33 37 34 35 35 38 38 38 37 36 35 35 35 36 37 38 38 38 38 38 37 37 38 38 36 33 31 29 26 26 28 29 28 29 30
34 35 35 33 34 36 35 33 34 37 34 36 36 36 38 38 36 36 35 35 35 35 35 36 36 37 37 37 36 35 34 32 30 28 28 29 29 29 29 29 29 28 29 29
36 37 38 36 32 35 36 34 35 34 35 34 35 38 39 37 37 36 35 35 34 34 34 34 34 33 33 32 31 30 29 28 28 29 28 28 27 26 25 22 20 20 23 24
35 35 35 36 35 36 37 36 35 35 36 36 36 38 38 37 36 35 34 34 34 33 33 33 32 31 30 30 29 29 28 28 26 26 24 22 22 18 16 15 18 21 22 24
35 34 37 38 37 39 34 36 38 37 37 37 37 38 38 37 35 34 34 34 33 33 32 31 30 29 27 27 26 25 24 23 22 18 18 21 21 21 16 14 15 24 22 21

GFSCGP_sfc_dewp_045.txt.gz
Dewpoint
31 27 24 21 19 15 18 17 19 24 21 21 23 22 32 39 41 38 41 41 45 48 49 53 52 52 52 53 54 54 55 56 60 59 54 51 50 50 51 54 56 59 59 59
28 28 24 22 21 19 20 18 16 18 21 22 21 23 22 35 38 38 37 41 41 43 49 53 53 51 54 53 53 54 54 55 59 60 57 53 51 48 51 54 60 61 60 59
26 25 26 23 21 22 22 22 23 19 24 22 21 19 19 27 36 38 38 38 42 42 44 49 51 52 53 52 53 53 54 56 57 56 56 54 51 51 50 53 56 61 60 59
25 26 25 23 22 22 21 21 21 22 21 19 25 20 30 25 31 37 38 38 39 41 43 44 47 52 53 54 55 55 55 55 57 57 57 55 50 51 54 57 58 59 61 60
24 25 26 24 22 23 22 25 24 24 24 23 19 13 24 20 23 30 36 38 38 40 42 44 45 45 51 54 55 56 56 55 56 57 57 58 55 53 54 56 59 60 59 59
24 24 24 23 23 24 25 26 26 26 25 24 19 17 24 18 16 17 29 35 38 38 40 43 45 46 46 49 55 58 55 55 56 57 58 58 58 57 58 60 58 56 57 57
23 24 24 25 25 27 26 26 24 23 23 23 25 18 19 32 19 21 23 26 35 39 40 41 42 45 47 49 53 55 54 53 56 59 60 60 61 61 60 61 59 57 57 56
22 21 24 26 25 24 26 26 26 27 22 20 24 16 17 22 23 24 26 29 30 35 40 41 41 43 47 50 52 55 54 54 54 59 61 62 62 62 62 61 60 58 58 56
22 20 20 22 24 25 25 25 26 27 26 24 19 18 17 18 18 21 24 29 33 34 35 39 41 43 45 49 54 58 57 55 56 60 61 62 61 60 61 61 60 59 57 55
23 22 21 24 26 26 26 26 26 26 23 23 16 17 16 19 18 19 20 24 29 35 35 35 38 42 45 48 54 60 59 58 58 61 61 60 60 60 60 60 59 57 56 52
23 24 24 29 28 25 25 27 26 24 26 26 22 18 23 19 20 20 23 23 26 28 38 40 40 41 44 48 51 55 58 58 59 60 60 60 58 59 60 60 59 57 54 51
25 26 27 26 27 26 25 25 26 27 24 27 28 23 23 22 22 24 25 25 27 30 33 39 44 47 48 49 50 54 57 57 57 60 60 60 59 58 59 59 58 56 54 52
26 24 26 24 26 26 25 25 24 27 27 27 33 26 22 23 23 24 25 26 27 31 33 39 45 48 50 51 53 54 56 55 55 56 59 59 59 58 57 56 54 52 51 49
35 26 25 25 25 24 24 22 22 24 30 27 25 22 22 23 23 22 24 27 28 29 30 36 44 47 50 53 54 55 56 57 57 56 56 56 55 54 54 53 51 49 48 47
31 25 25 22 22 20 20 21 21 20 22 24 24 20 21 22 23 21 29 28 26 30 32 35 43 47 51 53 54 56 56 55 55 54 54 54 53 53 53 52 51 49 47 44
30 28 26 24 22 20 18 16 16 16 19 19 19 19 22 20 20 21 24 27 29 34 38 43 46 49 51 53 53 53 53 53 53 51 50 50 48 46 46 45 45 45 43 42
29 32 28 27 23 23 26 22 18 17 18 21 22 24 23 22 21 24 27 28 34 39 42 44 47 49 51 51 51 51 50 50 48 46 45 44 43 42 41 40 39 39 40 40
34 32 31 31 33 27 24 23 21 21 20 20 21 22 22 22 22 26 30 32 38 41 43 44 45 46 47 47 47 47 45 45 44 43 42 42 42 40 40 40 40 41 41 41
33 37 35 34 30 25 20 22 23 22 21 20 21 22 22 22 28 33 34 37 40 41 41 41 42 43 43 43 43 43 42 42 41 41 41 41 41 40 40 40 41 41 41 41
35 37 39 34 28 27 27 24 25 23 27 23 22 24 25 26 33 28 36 38 39 39 39 40 41 41 41 41 41 41 40 40 39 40 40 40 40 40 40 41 41 41 40 39
36 37 38 35 33 29 25 23 26 28 28 27 25 25 26 26 31 36 38 39 38 37 38 40 40 40 40 41 41 39 39 39 39 40 40 40 40 40 39 37 34 32 31 31
34 34 37 36 34 33 33 29 28 33 36 34 33 30 31 32 39 38 37 37 36 36 37 38 39 40 40 40 40 39 38 39 39 39 38 35 29 25 26 29 28 27 29 32
32 35 36 33 33 38 36 35 34 32 32 36 35 32 33 39 38 38 37 36 36 36 37 38 39 39 39 39 39 38 38 37 36 32 28 27 26 26 26 27 28 26 26 27
27 36 38 36 34 33 36 35 34 35 36 35 35 33 36 40 38 37 36 36 36 36 36 37 38 38 38 37 36 36 35 32 30 29 28 27 26 25 22 19 17 19 24 25
32 35 35 34 31 33 32 36 37 35 36 35 34 34 36 40 37 37 36 36 36 35 36 37 37 36 34 33 32 30 29 29 26 26 24 24 21 18 17 16 18 21 23 22
29 33 37 36 32 39 39 38 35 38 36 37 36 35 38 38 37 36 36 36 35 36 36 35 35 33 31 30 29 28 27 26 24 22 21 24 24 21 15 14 20 23 22 22

GFSCGP_sfc_dewp_048.txt.gz
Dewpoint
27 25 24 24 24 18 14 15 21 25 27 31 21 24 42 44 41 39 40 45 45 48 51 51 50 52 52 50 51 50 48 51 57 56 53 55 53 55 55 55 55 60 60 61
26 27 27 25 23 19 16 15 17 16 24 21 16 20 38 45 43 37 39 43 44 46 51 50 49 50 51 51 51 53 54 54 56 57 57 55 54 52 53 55 57 61 61 60
25 25 27 24 22 19 18 17 19 24 23 23 21 17 26 35 34 35 38 41 44 45 49 51 50 50 51 53 53 54 54 54 56 59 58 56 54 53 51 53 59 61 61 60
25 24 24 25 19 17 17 19 19 21 20 16 23 19 22 24 35 33 35 39 41 42 49 51 52 52 53 53 54 55 54 54 55 59 58 57 52 51 51 53 57 60 61 61
25 24 23 25 21 20 20 26 24 23 21 21 22 23 20 23 27 31 35 38 41 43 44 50 50 51 52 53 55 55 54 54 56 56 58 57 56 54 55 53 59 59 61 61
22 23 23 25 24 23 22 23 26 25 24 24 21 19 26 27 32 27 34 37 39 41 42 45 48 51 51 53 55 55 55 54 56 57 57 59 58 56 57 59 59 60 60 60
21 21 22 24 22 23 23 24 25 24 25 26 21 20 25 28 30 27 31 35 38 40 41 43 44 45 50 53 55 56 56 55 56 59 58 58 59 60 59 59 59 59 59 59
20 21 21 24 23 24 25 24 28 27 29 29 29 20 19 26 24 24 23 28 36 39 41 42 44 46 46 50 55 56 56 55 55 57 60 59 59 60 60 60 61 59 58 58
21 21 20 24 24 24 25 24 27 32 32 31 29 27 25 22 19 20 23 27 33 33 40 41 42 47 48 49 51 55 55 55 55 57 60 60 59 60 61 61 60 59 59 58
25 25 22 21 23 24 24 25 26 26 27 26 18 16 17 21 19 19 20 28 33 37 38 39 42 45 46 49 51 54 55 54 55 56 61 59 57 59 61 61 60 60 59 57
24 26 25 23 22 21 23 24 30 28 26 28 27 23 35 27 24 23 27 26 35 37 40 41 42 44 45 47 50 55 56 55 56 58 61 61 60 59 61 60 59 59 58 52
26 31 27 22 23 25 25 25 28 29 27 32 38 27 28 30 26 27 27 28 32 36 37 42 44 46 46 48 51 57 57 57 60 60 61 61 60 60 59 59 59 57 53 51
27 26 26 23 28 26 24 25 25 28 30 30 32 28 25 25 24 25 31 28 30 33 32 38 45 47 48 50 51 54 58 58 60 59 60 60 60 59 58 57 55 55 53 52
39 28 25 26 28 26 25 25 28 30 32 31 30 26 25 24 27 24 28 28 27 32 32 33 43 47 50 52 54 55 57 58 59 60 60 58 57 56 54 53 51 50 48 46
35 30 28 24 23 23 24 23 22 21 23 26 27 23 23 24 28 31 31 31 28 28 30 33 39 47 51 54 55 56 58 58 58 58 57 56 55 55 54 52 51 50 48 46
31 30 30 29 24 23 25 27 21 20 20 19 21 22 22 22 24 27 23 24 28 28 29 35 38 46 52 53 55 56 55 56 56 54 53 53 53 53 53 52 50 48 45 42
33 35 30 28 26 24 24 27 22 21 19 20 21 25 24 23 24 24 25 26 28 31 38 42 44 50 53 54 55 54 54 53 52 50 49 48 46 45 44 42 42 42 42 42
34 34 34 32 34 25 25 26 23 23 21 20 19 19 21 23 24 23 30 33 35 39 41 45 50 52 53 53 52 52 50 49 47 46 45 44 43 41 41 40 41 41 42 41
35 37 38 32 28 28 23 25 24 25 23 23 21 20 20 21 31 34 34 38 41 43 45 46 48 50 50 48 48 46 45 44 43 43 42 42 42 41 41 41 42 42 42 41
33 38 37 38 28 26 31 28 27 26 26 26 24 27 27 25 34 32 37 39 42 43 43 44 45 45 45 45 44 43 42 42 42 42 41 42 42 41 41 42 42 42 41 41
35 36 36 35 34 34 28 27 28 26 29 33 30 28 33 33 34 39 39 41 41 40 41 42 42 42 42 42 42 41 41 40 41 41 41 41 41 41 41 41 41 39 37 36
36 35 36 37 34 31 35 30 28 34 40 38 35 37 43 40 41 40 39 40 39 38 39 40 41 41 42 41 41 39 39 40 41 41 40 40 39 35 33 33 32 30 33 34
33 35 37 34 35 40 38 36 38 40 40 41 40 38 39 43 40 39 39 39 37 37 38 39 40 41 41 40 40 39 39 40 40 39 33 29 28 28 29 31 31 30 31 30
28 36 37 35 36 38 38 39 39 38 40 38 38 38 41 42 40 39 39 38 37 37 37 38 40 40 40 40 39 39 39 38 34 30 29 29 28 27 26 21 22 28 28 28
31 30 34 34 34 32 31 38 40 41 41 40 38 39 39 41 41 39 38 38 37 37 38 39 40 39 39 39 38 37 35 32 29 29 27 27 27 23 21 21 23 25 21 24
30 30 33 38 36 39 40 41 41 39 37 37 39 40 38 39 41 39 38 38 37 37 39 39 39 38 36 35 33 32 31 30 29 26 26 29 28 25 21 20 20 26 23 24

GFSCGP_sfc_dewp_051.txt.gz
Dewpoint
29 25 24 24 25 24 22 18 14 18 27 28 37 39 39 44 47 45 46 50 50 49 51 52 52 51 51 52 51 52 52 51 52 53 50 48 48 52 53 55 54 57 59 60
26 24 26 27 27 26 24 20 16 25 28 30 35 38 40 44 46 43 45 47 47 49 50 50 51 51 51 52 51 50 50 50 50 55 45 45 50 53 54 54 54 56 60 60
26 27 27 27 27 24 22 19 19 25 26 24 23 36 40 41 45 46 45 46 47 49 49 49 50 50 49 49 49 48 47 48 50 55 53 50 53 53 51 53 53 56 60 60
27 28 26 26 25 24 17 20 25 26 24 19 22 19 36 40 43 45 42 44 45 50 49 49 50 50 49 48 50 50 47 47 50 54 54 51 53 52 50 50 53 59 60 60
26 26 26 26 26 24 20 27 29 28 25 24 23 22 23 38 40 42 41 44 43 50 49 49 47 49 50 50 49 51 50 50 52 54 55 56 56 53 51 50 54 58 60 60
24 26 25 24 27 26 26 29 28 28 26 24 24 23 26 27 29 37 38 40 43 45 50 50 49 49 49 51 52 52 52 53 53 54 55 57 58 57 53 53 54 59 60 60
25 23 24 24 25 27 25 24 24 28 24 24 29 26 27 29 31 33 35 38 41 44 47 50 50 50 50 50 52 53 53 53 53 53 54 57 58 57 55 56 56 57 58 58
23 22 23 24 24 24 25 24 28 25 26 29 31 26 24 29 30 30 30 36 38 41 45 49 50 51 51 51 52 53 53 53 53 54 56 57 57 58 58 58 58 58 58 58
23 22 23 21 25 24 26 25 28 34 35 31 31 29 28 28 24 23 23 25 36 39 41 45 48 49 49 51 51 53 53 52 54 55 57 57 57 57 58 58 59 58 56 56
28 25 24 23 22 26 24 27 25 33 28 30 26 27 26 29 23 20 20 25 31 35 40 42 44 46 47 50 51 53 54 54 54 55 58 57 57 58 59 59 58 58 57 56
24 25 26 27 24 23 26 24 28 30 32 25 23 25 33 27 30 23 22 26 30 34 35 41 43 45 45 46 50 54 55 57 56 55 56 58 57 58 59 59 58 58 56 54
25 30 25 22 25 24 24 25 28 31 28 33 28 27 29 28 27 28 25 25 26 36 37 38 41 44 46 47 53 55 56 59 58 57 58 59 59 59 59 58 58 58 56 53
27 27 23 24 25 25 22 24 28 32 35 32 28 30 31 31 28 24 26 27 29 28 34 40 43 44 47 49 52 54 56 56 56 58 60 60 60 59 58 57 56 55 53 51
32 28 26 22 25 30 30 27 26 29 29 30 31 30 31 30 28 23 25 29 28 30 29 42 44 45 48 50 54 56 57 58 58 59 60 58 57 56 55 54 53 52 52 49
32 26 26 27 25 27 28 28 26 26 30 30 30 28 29 27 27 29 30 29 29 29 29 33 44 47 50 53 56 56 57 59 60 59 57 55 54 54 53 51 51 49 48 47
34 30 28 27 27 28 24 23 27 27 27 29 29 28 31 27 29 29 29 29 27 26 26 27 36 50 53 54 56 55 55 56 56 56 55 54 54 53 52 51 49 48 45 44
35 32 31 26 27 27 25 28 26 29 29 25 24 24 26 25 26 27 29 27 28 28 31 36 42 51 53 55 55 54 54 54 53 53 53 53 51 50 50 49 46 43 41 40
40 33 32 28 29 22 26 27 28 29 28 24 21 21 22 23 24 25 26 27 30 37 40 44 52 54 54 54 53 52 50 49 48 46 47 46 44 42 42 41 41 41 40 39
41 36 31 28 26 27 27 28 29 27 25 27 23 23 21 21 26 31 33 35 39 41 45 49 52 52 52 51 51 49 47 45 44 44 44 42 41 40 40 40 40 40 40 40
41 40 35 30 25 23 29 31 32 30 26 28 28 28 27 27 27 29 35 42 44 45 45 47 48 48 49 47 47 46 44 44 43 42 42 41 41 41 41 40 41 40 41 40
35 34 31 29 27 32 33 31 32 27 27 31 32 30 31 28 33 35 39 42 43 43 44 45 45 45 44 44 44 42 42 42 42 42 42 42 42 41 41 41 40 40 39 37
34 32 30 34 31 28 38 35 27 32 33 33 33 33 38 36 38 38 41 41 41 41 42 42 42 42 42 42 42 41 40 41 41 41 41 41 40 40 40 40 37 35 34 31
33 36 34 33 33 38 39 40 42 38 38 41 39 38 40 40 40 40 40 40 39 39 40 41 41 41 42 41 40 39 40 40 40 40 40 40 36 35 32 29 31 32 31 28
33 37 34 35 35 31 30 38 41 44 39 39 38 38 41 42 41 39 40 39 38 38 39 40 41 40 40 40 40 40 40 40 39 33 29 30 29 29 26 27 28 26 25 25
32 35 35 34 34 34 36 36 40 42 42 40 39 38 37 43 41 40 39 38 37 38 39 40 40 40 39 39 39 39 39 34 29 29 29 28 27 23 23 25 22 21 24 26
32 31 34 33 36 37 36 37 44 41 38 38 41 39 37 41 40 40 39 38 38 38 40 40 40 39 37 37 36 36 34 31 30 26 26 26 26 23 20 22 21 25 23 24

GFSCGP_sfc_dewp_054.txt.gz
Dewpoint
30 26 24 24 25 25 24 23 22 21 26 35 36 35 37 43 45 50 51 50 51 52 52 51 51 51 53 53 53 52 53 53 54 53 51 51 50 51 52 54 54 54 57 57
26 25 26 27 27 27 26 25 24 21 27 26 35 35 38 41 44 45 49 51 51 51 52 51 51 51 52 52 52 52 51 52 53 53 51 49 48 50 53 53 53 54 57 58
24 26 26 26 25 25 26 26 22 19 25 26 33 32 40 42 44 45 48 51 51 50 51 51 51 50 51 51 51 52 51 50 51 53 50 47 48 53 52 53 53 54 56 58
27 25 25 27 26 26 25 25 21 24 23 19 22 18 34 40 40 44 46 47 48 50 50 51 51 50 50 51 51 51 51 50 50 52 52 45 44 45 49 53 53 53 56 58
27 28 27 26 26 27 26 28 24 27 25 24 23 21 23 38 38 41 44 46 47 49 50 49 50 50 50 51 50 49 49 49 49 49 54 50 48 49 52 53 51 53 58 59
25 26 26 26 27 27 27 28 28 29 26 23 25 23 24 37 37 40 41 44 46 49 49 49 50 49 50 49 49 48 47 48 48 48 52 53 51 52 53 53 52 53 57 59
23 24 25 26 24 27 26 24 22 23 24 23 27 28 27 33 37 41 40 43 44 49 49 49 49 49 49 48 48 49 47 46 47 47 50 52 52 53 55 55 53 53 56 57
24 24 25 26 24 23 25 25 25 21 25 27 31 26 23 29 31 39 41 40 43 45 50 49 48 48 49 49 49 49 49 47 47 48 51 52 52 54 57 57 55 54 56 57
25 24 25 24 24 25 26 25 28 31 34 29 29 30 28 28 27 29 37 38 40 44 46 50 49 48 48 49 50 50 50 50 50 51 53 53 54 54 57 58 57 56 56 57
27 25 26 24 26 24 25 28 26 31 26 24 29 29 25 27 23 22 26 34 38 41 44 47 50 51 50 50 51 53 52 52 52 53 54 54 54 56 57 58 57 57 57 56
25 26 26 29 26 23 26 25 29 30 31 25 23 24 31 29 29 24 20 27 34 39 42 45 48 50 51 52 52 53 54 54 54 55 54 55 56 57 58 58 58 58 58 57
27 26 23 23 26 26 25 26 28 28 27 30 27 25 29 28 27 27 26 26 33 37 40 41 44 48 50 51 52 53 54 54 55 55 55 56 58 58 59 58 58 59 57 56
28 26 24 22 24 27 24 25 26 31 33 30 27 28 32 30 29 29 27 26 27 36 37 40 42 43 45 47 49 52 54 55 56 57 57 58 58 58 59 59 58 57 56 54
40 29 24 22 24 27 27 25 25 29 29 29 30 29 30 31 29 29 26 26 28 30 37 39 43 45 46 46 47 49 55 56 56 57 57 58 58 58 59 58 57 56 55 53
38 27 28 25 26 25 23 26 28 25 28 27 28 30 30 31 30 30 28 29 28 28 29 40 42 45 49 52 50 49 53 56 56 56 55 57 58 58 58 57 55 53 53 51
40 34 28 28 26 27 25 23 27 27 29 29 29 31 31 31 30 29 30 29 27 28 29 36 43 46 52 55 54 54 55 56 57 56 58 57 56 55 54 53 51 50 48 48
39 38 34 26 26 25 25 27 27 25 29 29 28 31 31 30 30 29 29 29 29 28 29 30 41 49 54 55 56 56 56 57 57 57 56 55 54 52 51 50 48 46 45 45
37 37 36 28 28 23 26 26 27 27 27 29 26 24 26 26 27 29 30 28 30 29 28 30 44 52 55 55 54 54 54 54 54 54 53 53 52 51 49 46 44 42 43 41
40 38 33 27 26 26 27 27 27 28 26 28 24 25 24 23 27 29 30 30 30 32 38 47 52 53 54 54 52 51 50 49 49 48 49 48 46 45 45 44 43 40 39 39
42 39 34 32 28 22 27 29 32 30 26 28 28 31 29 28 25 28 32 38 40 43 48 51 51 51 51 49 49 47 46 46 45 45 44 44 44 43 42 41 40 39 39 38
35 35 33 32 29 30 34 35 32 26 26 31 33 33 30 28 31 30 35 42 43 46 48 49 51 51 49 48 46 45 44 44 43 42 41 41 41 40 40 40 40 40 40 39
31 33 32 33 31 27 38 36 29 35 38 34 36 35 34 35 32 36 40 42 43 45 46 47 47 46 45 45 44 43 42 42 42 42 42 41 41 40 40 40 39 39 36 33
29 32 33 35 34 37 39 38 44 41 39 39 40 39 38 39 37 39 41 42 42 44 43 44 44 42 42 42 43 41 41 41 41 41 41 40 40 40 39 38 35 33 32 30
32 34 35 35 36 36 37 40 43 41 40 41 42 40 40 39 40 40 40 40 40 41 41 41 42 41 40 40 40 40 40 41 40 40 38 37 35 30 29 29 30 29 28 28
31 38 35 34 34 34 34 33 35 38 42 42 42 40 39 37 41 39 40 39 39 40 40 41 41 40 39 40 40 40 40 38 35 32 29 27 27 27 24 21 23 25 26 27
35 35 35 32 35 35 33 33 36 37 38 38 42 39 40 40 40 41 40 39 39 40 41 41 40 39 39 39 39 37 34 32 30 27 26 25 25 24 18 18 21 26 26 27

GFSCGP_sfc_dewp_057.txt.gz
Dewpoint
27 24 24 24 24 24 24 23 22 23 24 32 34 34 36 44 49 49 49 50 49 50 51 51 52 53 53 52 53 53 54 55 55 51 53 52 51 51 52 54 54 56 57 57
26 24 24 27 27 26 25 24 24 25 25 32 29 29 36 41 44 50 50 49 49 50 50 51 50 51 53 52 52 53 53 53 54 51 49 50 49 50 52 52 53 54 55 57
26 25 26 26 26 25 25 26 25 25 25 29 32 26 38 39 43 45 50 51 50 50 50 50 49 50 52 52 52 52 52 52 52 52 51 49 48 49 51 51 53 53 54 56
28 27 26 26 24 25 23 27 27 23 22 20 24 19 22 38 39 43 45 50 51 51 51 51 50 49 50 51 52 51 51 51 51 53 52 49 46 45 48 51 52 53 54 55
29 28 27 24 24 27 26 30 28 26 25 23 23 20 22 38 37 37 43 47 50 50 51 51 51 50 50 51 51 52 51 50 50 51 52 50 47 46 47 51 52 52 54 55
27 28 27 27 28 27 28 29 29 30 26 23 24 22 23 35 36 34 40 45 48 48 50 50 51 51 50 51 51 51 51 51 49 50 52 52 48 47 49 51 52 53 53 55
22 24 25 27 26 28 27 24 22 20 23 22 27 26 25 28 35 35 38 43 47 47 49 49 50 50 49 50 51 50 50 50 50 49 49 52 52 49 49 50 52 53 52 54
19 21 24 27 25 24 26 25 24 19 22 22 31 26 26 28 29 35 39 41 44 47 48 49 49 49 49 49 50 49 49 49 49 49 48 49 52 52 51 50 53 54 53 54
25 24 26 25 26 25 26 25 27 28 32 29 28 29 29 28 27 35 40 40 42 45 48 49 49 49 48 49 49 49 49 48 48 49 49 48 49 51 51 52 53 56 55 55
27 24 27 24 25 26 25 28 26 30 26 24 26 27 26 28 26 28 31 39 40 42 46 49 49 50 49 49 49 49 49 47 47 47 47 47 48 51 50 52 54 57 57 57
25 26 25 27 25 23 25 26 28 30 29 23 22 24 30 30 31 26 24 28 39 40 44 47 49 50 49 50 51 51 50 49 49 48 47 48 49 51 53 53 55 57 57 57
29 28 24 23 25 27 25 26 28 26 25 28 26 23 28 30 30 29 25 24 31 39 42 44 47 50 49 49 50 51 53 52 52 50 50 51 52 53 54 55 57 58 57 57
37 28 23 23 24 26 24 25 26 31 31 28 26 26 31 31 29 28 28 29 27 32 38 42 45 47 50 50 50 51 52 53 53 54 53 54 55 55 55 56 58 58 58 58
41 31 26 24 24 26 26 25 25 28 27 25 28 26 29 30 30 31 31 29 27 27 35 39 42 45 49 50 51 52 52 53 54 54 54 55 56 56 56 57 58 58 58 56
39 34 34 29 25 25 26 26 25 25 26 25 25 29 28 30 31 31 31 30 27 27 32 38 40 42 44 47 49 51 52 54 54 54 54 54 56 57 57 58 58 58 56 55
40 34 36 30 29 26 25 25 25 25 27 28 28 28 32 32 32 31 30 30 28 28 29 33 40 43 46 45 46 47 49 53 54 54 55 56 57 57 57 58 56 55 53 52
36 35 34 30 33 28 26 27 25 26 29 30 29 31 31 31 31 31 31 30 30 29 29 30 39 43 46 48 50 49 49 53 56 55 56 56 57 57 56 53 51 51 50 49
37 36 36 32 31 26 30 29 27 27 27 28 29 29 28 28 30 31 30 31 31 30 30 30 33 44 47 53 54 53 54 55 55 55 56 56 55 53 52 51 49 46 46 45
38 37 33 31 30 31 30 28 28 27 25 27 28 28 25 24 26 25 27 30 32 32 31 31 34 49 53 53 53 53 52 55 55 54 54 53 52 51 49 47 46 45 44 44
39 36 31 31 27 25 30 30 30 30 26 29 28 29 29 27 29 29 29 31 33 32 36 46 51 52 52 51 52 51 49 51 51 51 50 50 49 48 46 45 43 42 42 40
34 34 31 31 30 30 35 36 39 30 28 34 31 31 29 30 32 32 32 33 40 42 48 51 51 52 51 50 50 48 47 47 48 47 46 46 46 45 44 42 40 40 40 37
29 30 30 32 30 26 38 38 38 37 37 38 40 40 38 36 34 33 33 35 42 44 49 50 50 48 48 48 48 46 45 43 42 42 42 42 42 41 40 40 39 39 35 32
26 29 29 31 31 39 38 40 41 44 42 38 39 40 39 39 38 37 36 40 42 45 47 49 48 45 45 46 46 45 42 42 42 41 41 41 40 40 39 38 36 34 33 30
30 33 30 33 31 33 31 35 36 37 41 42 43 42 40 38 38 39 39 41 42 43 44 44 45 44 43 43 43 42 42 42 41 40 40 38 34 32 32 32 33 32 32 30
29 33 32 32 32 33 33 34 35 38 40 41 43 42 40 40 41 41 41 41 41 43 43 44 44 42 40 41 41 41 41 41 39 36 32 30 28 26 26 26 27 27 28 30
37 36 35 31 39 40 38 40 41 36 37 40 40 41 40 42 41 42 42 41 40 41 42 41 40 40 40 40 38 38 38 36 33 29 29 28 26 24 23 22 23 28 29 29

GFSCGP_sfc_dewp_060.txt.gz
Dewpoint
30 27 25 24 25 21 21 22 21 21 23 26 25 31 31 40 48 46 48 50 49 48 50 52 52 54 54 55 55 55 55 55 55 54 54 55 54 53 54 55 57 58 58 58
26 25 26 26 26 25 24 23 22 24 26 26 26 28 32 41 44 47 48 48 49 49 50 51 50 52 52 53 53 54 54 54 55 56 54 54 53 51 52 53 54 56 57 58
26 26 26 26 26 25 25 24 24 24 26 25 30 27 29 36 41 47 50 50 50 49 49 49 49 50 52 52 52 53 53 54 54 54 53 49 49 53 50 51 52 53 54 56
27 28 26 25 24 24 22 26 25 25 23 21 26 23 21 28 37 43 45 50 50 49 50 49 48 48 51 52 52 52 52 52 52 53 52 49 48 50 50 50 51 52 54 54
27 28 26 26 25 25 22 28 27 27 24 23 23 20 21 37 32 35 41 45 49 50 50 50 50 49 50 52 52 52 52 52 51 51 50 50 48 48 48 51 51 52 54 54
26 29 28 25 27 27 29 27 28 29 26 23 23 22 23 25 30 32 36 42 47 50 51 51 51 50 50 51 51 51 51 50 51 52 51 50 49 48 47 47 50 51 52 53
24 26 26 27 25 29 27 25 22 21 24 23 25 24 24 27 29 33 33 38 45 49 50 50 50 49 49 50 50 51 51 50 50 50 51 52 50 49 48 47 49 50 51 52
19 18 23 25 24 24 26 26 24 20 21 21 29 27 26 29 30 31 34 37 45 48 49 50 50 50 49 50 50 50 51 51 51 49 49 51 52 51 49 49 50 51 52 52
21 20 25 26 26 24 25 25 27 27 30 28 27 27 28 27 27 28 36 39 43 47 48 49 49 50 49 49 50 50 50 50 50 50 49 49 50 52 52 51 50 51 52 53
27 24 27 26 25 27 26 28 26 28 25 24 24 27 23 25 26 27 31 39 41 45 47 48 49 49 50 49 50 50 50 49 49 50 50 49 48 50 51 52 51 51 52 54
26 25 25 27 24 23 24 24 27 29 28 22 21 24 30 28 30 30 27 29 39 42 45 48 49 50 49 49 49 50 50 49 48 49 49 49 49 49 50 50 51 52 53 56
29 28 24 22 25 27 24 26 27 25 23 28 26 22 27 29 30 31 30 26 24 38 42 45 48 49 50 49 49 49 49 49 49 49 48 49 50 50 49 50 50 52 54 56
36 28 23 24 24 25 23 24 26 30 29 26 25 24 30 30 30 29 28 28 29 30 39 43 46 49 50 50 49 50 50 49 50 50 49 48 48 49 49 50 51 53 54 56
42 34 27 24 26 26 25 24 24 27 25 25 27 25 27 30 30 29 30 30 30 29 31 39 43 47 50 50 50 50 51 51 50 50 50 49 49 50 50 51 53 54 56 55
38 32 35 35 33 30 26 25 25 24 26 24 24 27 27 28 29 30 31 31 31 29 27 35 41 44 47 50 50 50 50 51 52 52 51 51 52 52 53 54 55 56 56 56
38 31 34 30 34 32 30 25 25 25 26 27 27 27 29 30 30 31 31 32 31 30 29 29 37 41 45 48 49 50 51 51 52 52 52 52 53 53 54 55 56 56 56 57
35 33 31 29 33 31 26 28 27 26 27 27 25 28 30 31 32 32 32 32 32 31 30 29 32 39 41 44 48 49 51 52 53 53 53 53 53 54 55 56 56 56 56 54
35 34 33 30 29 25 30 29 31 29 28 29 29 30 30 31 32 31 32 32 32 32 31 31 30 35 42 45 47 47 48 50 53 53 54 54 54 55 56 55 55 53 51 51
40 35 32 27 26 27 26 29 30 32 30 29 28 28 28 29 25 26 27 28 29 31 33 33 32 32 38 48 52 51 51 52 53 53 53 54 56 55 52 51 48 47 47 47
38 36 30 32 25 21 25 35 38 38 26 34 34 32 31 29 27 29 30 30 30 32 33 32 36 41 47 50 52 52 54 52 53 52 54 54 53 51 49 47 46 46 45 42
32 33 30 30 27 28 33 37 39 30 25 40 40 39 37 32 31 33 35 33 33 38 42 47 49 49 50 51 52 50 51 53 51 50 49 49 49 48 46 44 43 42 40 36
29 30 27 30 28 23 35 36 34 36 40 39 39 41 40 39 39 39 38 37 36 38 45 49 49 48 48 49 50 47 47 46 46 46 45 45 44 42 41 41 39 37 35 32
24 29 28 29 29 34 37 36 39 42 41 41 39 39 41 41 37 38 38 39 41 43 46 48 48 47 47 48 48 46 42 43 43 43 42 41 41 41 40 39 36 35 34 32
28 32 29 29 28 33 33 34 36 38 40 38 38 39 40 41 40 39 40 40 41 43 45 46 46 45 43 44 44 43 43 43 42 41 39 37 36 35 35 35 35 33 32 31
26 32 30 30 35 37 37 39 41 39 41 37 35 39 41 41 40 42 43 42 42 42 43 44 43 41 41 42 43 44 43 41 39 36 34 32 31 30 29 29 29 30 31 32
36 34 31 29 38 38 38 39 38 39 39 37 37 39 36 35 38 41 41 41 41 41 41 39 38 37 36 35 35 38 39 37 34 32 30 29 29 28 28 27 27 30 30 29

GFSCGP_sfc_dewp_063.txt.gz
Dewpoint
33 29 25 22 26 23 22 21 20 20 21 23 26 27 27 34 48 49 50 51 51 50 51 51 52 54 55 57 56 56 56 58 58 57 56 56 57 58 58 59 57 57 56 57
28 29 29 26 26 23 23 22 22 23 25 24 25 26 27 35 40 45 47 49 50 51 50 51 50 54 54 55 56 56 55 56 57 57 56 55 57 56 57 58 57 57 57 57
26 25 29 26 25 24 24 24 24 21 24 25 27 25 25 31 39 44 46 46 49 51 50 50 50 51 53 53 54 55 54 55 56 56 55 54 53 54 54 55 56 57 58 58
23 27 26 26 24 24 23 25 24 23 21 21 26 21 25 25 30 39 42 48 49 50 51 50 49 50 52 53 55 55 54 54 55 55 55 54 52 52 54 54 55 56 58 58
26 28 26 24 23 25 20 27 26 24 24 25 24 22 23 28 27 28 35 44 48 50 51 50 50 50 51 52 54 54 54 54 54 54 53 51 53 53 52 52 54 54 56 56
25 30 27 23 27 26 27 26 28 29 27 24 24 23 22 24 26 28 32 38 45 50 51 51 51 50 50 52 53 54 53 53 53 53 53 52 52 51 51 51 52 54 56 56
27 25 27 28 26 27 26 26 22 23 25 23 26 23 23 27 27 30 32 33 42 48 51 51 51 50 50 51 52 53 52 52 53 53 52 52 52 52 52 51 52 53 54 55
22 21 25 27 27 26 26 24 25 20 22 21 27 24 22 30 31 32 32 33 38 47 50 51 51 51 50 51 52 52 51 52 52 53 52 52 52 52 51 51 51 52 54 54
22 20 23 26 27 27 27 25 28 27 31 27 26 28 28 28 27 28 29 38 41 47 49 50 51 51 51 51 51 52 51 51 52 52 53 53 53 52 52 53 54 53 53 54
27 24 26 24 26 26 27 28 24 28 22 22 24 26 22 26 26 28 31 31 40 45 48 49 51 52 51 51 51 52 52 51 52 52 53 52 52 53 53 54 53 53 53 53
28 25 25 28 24 23 24 25 28 27 28 23 21 23 33 30 31 31 34 33 32 42 46 48 50 51 51 51 51 52 52 51 52 52 52 53 52 53 53 54 54 54 55 54
29 30 25 24 25 26 25 26 28 26 25 29 28 23 29 32 32 33 33 33 32 29 40 47 49 50 51 51 50 51 51 51 52 52 52 53 53 52 52 52 53 54 54 54
38 29 24 23 25 26 24 25 28 31 30 26 27 24 29 31 31 32 33 33 32 33 33 43 48 49 50 50 50 50 51 51 51 52 52 53 53 53 52 52 52 53 53 54
41 35 28 22 27 31 26 25 25 27 28 26 27 25 27 29 31 31 33 34 33 34 33 36 45 48 50 51 50 50 52 52 51 51 50 51 52 52 53 53 53 53 53 53
39 32 35 34 32 32 31 29 27 23 25 25 25 25 26 30 30 31 33 34 33 33 33 33 38 44 48 50 51 51 51 52 52 51 50 51 52 51 52 52 53 53 53 53
31 33 34 30 32 30 29 29 27 25 26 26 26 26 29 30 31 31 32 32 31 33 33 34 35 39 45 49 50 51 51 53 52 52 51 51 52 51 52 52 53 53 54 54
29 34 31 25 32 29 28 28 27 28 28 28 27 29 30 29 32 33 34 34 34 35 35 35 35 37 42 46 50 51 52 52 53 53 52 52 52 52 53 53 53 54 56 56
28 34 33 29 29 19 29 32 29 30 29 30 29 31 31 31 32 31 34 34 35 34 35 36 36 37 39 42 46 50 50 52 52 52 52 53 54 53 53 54 55 56 57 56
32 30 33 28 25 24 21 29 33 33 29 38 37 38 38 37 33 31 31 33 34 35 35 35 36 36 36 39 44 46 49 51 52 53 53 53 54 54 54 55 56 54 52 50
32 34 34 31 27 22 27 33 37 38 27 38 38 37 38 38 36 35 38 40 39 35 34 37 38 36 36 38 47 47 47 49 51 53 53 54 55 55 55 51 49 47 47 44
31 33 31 31 29 28 31 35 38 24 26 38 40 39 39 37 38 41 41 40 40 39 39 46 48 47 48 49 51 51 52 51 52 53 54 54 54 52 50 47 45 44 40 37
30 29 30 31 30 24 33 36 31 35 38 39 40 39 39 40 41 41 40 40 41 42 45 48 50 49 50 52 52 52 51 50 51 50 49 48 47 46 45 44 42 38 36 34
25 32 32 32 32 34 37 37 38 40 40 40 40 39 37 39 38 41 40 41 41 43 45 47 48 47 47 49 49 48 46 47 46 45 43 42 43 43 41 38 36 35 34 33
28 33 32 31 28 33 35 38 41 39 41 40 37 38 40 37 39 41 42 42 42 43 44 45 45 43 43 44 45 45 44 44 44 42 41 40 38 37 36 36 35 34 33 31
27 32 31 31 32 36 38 40 38 38 38 36 35 34 33 33 36 39 42 41 42 41 40 40 40 38 37 38 41 43 44 42 39 37 36 34 33 31 30 30 32 32 32 33
36 34 33 31 36 35 37 39 36 36 35 33 32 31 29 29 30 35 32 32 31 32 34 33 33 33 32 31 31 34 37 38 35 34 33 33 32 30 29 28 28 30 30 29

GFSCGP_sfc_dewp_066.txt.gz
Dewpoint
34 28 25 24 24 20 16 17 15 13 17 18 17 19 23 25 34 41 42 45 49 50 51 50 52 53 55 58 57 58 57 57 58 57 58 58 58 59 58 57 58 58 55 57
32 30 26 25 23 21 18 17 16 15 21 21 14 19 23 23 28 33 40 43 46 50 51 50 51 52 55 57 57 57 57 57 57 57 57 55 58 57 58 56 58 57 57 57
26 24 28 27 23 21 19 17 18 16 21 21 23 22 22 21 30 35 39 40 44 48 50 50 51 52 54 55 56 57 57 57 57 57 57 55 55 56 57 57 57 57 57 56
22 19 24 26 25 21 19 19 19 20 20 10 24 16 19 21 22 27 32 41 43 47 49 50 50 51 53 54 56 57 57 57 57 57 56 55 52 51 54 55 56 55 58 57
23 19 19 22 21 22 21 20 23 22 20 17 15 20 16 21 21 20 23 33 43 46 49 50 50 50 51 54 54 56 56 56 56 56 55 54 52 52 55 55 56 55 57 58
29 26 22 19 21 24 23 22 23 23 20 20 19 21 17 17 21 21 24 29 38 45 49 50 51 50 50 53 55 55 55 55 56 56 56 55 55 54 54 55 56 55 56 57
27 23 25 24 20 24 23 22 21 20 22 18 21 22 22 20 22 25 27 28 35 44 49 50 50 50 49 51 53 53 54 53 56 55 55 54 54 54 53 54 54 54 55 55
18 21 23 27 23 23 23 22 21 18 20 20 24 21 20 22 24 28 28 30 33 42 48 49 50 51 50 51 52 54 53 52 54 55 55 54 53 53 53 54 53 54 54 54
20 21 24 26 26 24 25 24 24 24 29 24 23 23 25 23 23 24 26 30 35 39 45 48 50 51 51 50 52 53 52 52 53 55 56 55 54 54 53 54 54 54 54 53
22 21 23 24 26 26 26 25 24 25 22 21 21 22 20 22 22 22 28 30 35 41 44 47 49 52 52 51 52 54 53 51 53 54 55 54 54 54 53 54 54 54 54 54
25 25 25 23 26 22 25 25 26 24 23 23 21 22 27 25 25 26 28 30 33 39 44 46 48 51 52 52 51 52 52 51 52 53 54 54 55 56 55 55 55 54 55 54
27 28 24 23 24 23 22 24 25 24 24 26 28 23 27 29 28 30 29 29 32 31 38 44 48 50 51 52 51 51 52 52 52 53 53 54 55 54 55 55 55 56 55 55
34 25 20 20 23 25 24 24 24 25 25 25 29 23 26 29 28 28 30 28 30 32 34 39 46 48 50 51 52 51 52 51 52 52 52 54 54 55 55 54 54 55 54 55
38 32 23 16 18 26 24 23 23 26 26 24 23 22 23 24 25 26 27 29 32 33 32 36 42 46 48 50 51 51 52 52 52 51 51 52 54 55 55 54 54 54 54 53
33 35 34 32 32 31 30 29 26 22 23 24 23 23 23 24 26 27 29 30 30 30 32 33 35 41 45 49 50 51 52 52 52 51 50 52 54 53 54 54 54 55 55 54
30 33 31 26 28 29 28 28 28 27 26 25 25 25 27 28 29 29 30 30 28 31 32 32 33 34 38 44 48 50 51 52 53 52 52 51 52 52 53 54 54 54 54 53
27 30 28 23 26 23 25 29 28 27 27 27 27 28 30 30 31 32 32 32 32 32 32 33 35 36 37 39 45 49 50 52 52 52 52 52 52 52 53 52 52 52 54 54
25 33 29 27 28 20 29 30 28 28 30 29 30 34 35 36 36 34 37 37 36 35 36 33 34 36 36 38 40 46 47 50 52 52 51 52 52 52 52 53 52 53 54 55
30 29 33 24 22 22 19 28 28 26 32 32 31 34 35 35 36 36 39 40 41 41 40 38 36 37 40 38 37 40 43 47 49 51 51 52 52 52 53 53 54 55 56 56
28 30 30 31 22 16 22 33 35 36 22 28 33 33 33 34 36 35 39 40 40 41 41 43 43 46 46 46 44 40 41 44 47 49 50 51 53 53 53 55 55 57 57 54
28 29 27 28 27 23 26 33 37 22 27 33 32 32 33 32 34 39 40 39 40 41 43 47 47 48 50 51 51 47 44 44 46 49 52 53 54 54 55 56 54 49 44 41
27 26 28 27 26 26 34 30 26 35 35 38 38 39 41 41 40 37 36 38 40 41 44 47 48 48 49 50 52 50 51 52 53 53 54 54 54 50 50 47 44 42 40 36
27 27 29 27 28 36 37 35 41 41 40 41 40 39 39 40 40 39 38 40 42 42 43 46 46 46 46 45 48 49 48 48 46 46 45 44 42 42 42 41 39 37 36 35
26 30 29 27 28 31 35 39 39 39 39 38 37 37 36 36 37 37 40 42 42 41 40 42 43 43 42 40 40 42 45 45 43 42 40 40 38 37 37 37 36 35 34 33
26 29 24 25 26 33 38 38 39 38 38 37 35 34 33 33 33 35 37 35 35 35 35 36 38 39 38 37 35 36 38 40 38 37 36 34 34 32 31 30 32 32 33 33
31 28 30 28 36 36 36 37 37 37 37 36 33 32 31 30 31 32 32 32 32 32 32 31 31 31 32 32 32 32 34 35 35 34 34 33 32 31 29 28 28 30 30 30

GFSCGP_sfc_dewp_069.txt.gz
Dewpoint
19 22 24 24 25 23 19 17 17 19 17 19 19 16 18 20 25 30 34 36 43 46 46 49 51 53 57 58 59 58 57 58 59 59 59 57 57 58 59 58 58 57 56 56
13 19 21 23 24 23 21 18 18 18 16 18 17 13 13 17 21 25 31 35 38 46 46 49 51 52 54 57 58 58 57 57 58 58 57 57 56 57 55 57 58 56 56 54
23 16 22 24 24 23 23 22 21 18 17 20 19 16 17 18 21 22 27 29 34 43 46 49 50 52 54 56 57 58 57 57 57 57 57 57 57 57 55 55 57 57 57 56
30 22 23 25 25 24 22 21 20 18 18 17 18 12 18 18 20 23 26 31 32 40 46 48 50 50 53 55 57 57 57 57 56 57 56 55 54 55 54 54 55 55 59 56
34 28 21 24 25 25 24 23 21 20 20 21 18 13 16 18 16 18 20 26 35 38 46 48 49 49 51 55 56 57 57 57 57 57 56 55 54 54 55 53 54 56 56 58
31 32 32 22 20 23 23 23 22 23 22 21 20 18 17 17 18 19 19 22 32 38 44 47 49 49 48 54 56 57 57 57 57 57 57 56 55 54 53 56 53 55 56 57
31 30 30 30 18 24 20 22 21 21 21 21 20 18 20 18 19 20 23 24 32 37 44 47 47 48 48 51 55 55 56 55 57 57 57 57 56 53 53 55 56 55 56 57
32 27 28 26 22 20 22 22 23 22 23 21 21 19 20 22 21 24 25 27 28 35 44 46 47 48 48 50 53 54 54 54 56 57 56 57 56 54 53 54 55 56 55 55
26 24 27 31 25 23 23 21 23 22 28 26 21 23 23 24 21 21 22 27 30 34 42 46 47 48 49 49 52 54 53 53 55 56 57 57 57 56 56 56 57 57 56 53
29 24 26 32 28 27 27 24 22 21 24 24 23 23 21 22 21 21 25 28 32 35 39 44 47 49 50 50 51 54 53 52 52 55 57 56 56 57 56 56 56 56 57 56
25 23 28 28 31 26 24 23 25 24 24 23 24 25 26 25 26 24 28 28 32 38 40 43 46 49 50 50 50 52 52 52 52 53 55 56 56 56 57 56 56 56 57 57
24 25 26 26 28 29 26 26 26 25 24 26 29 28 25 27 27 28 27 27 30 30 40 42 45 48 50 51 51 50 52 52 52 53 53 56 57 57 57 56 57 57 56 57
34 26 22 24 29 25 27 28 26 28 29 32 30 25 28 27 26 26 27 27 28 31 32 38 44 46 48 50 51 50 51 51 51 51 53 55 57 57 57 57 57 57 57 56
34 32 28 24 25 24 25 24 24 26 28 26 28 27 25 24 24 25 26 28 29 30 31 33 39 44 47 49 51 51 52 52 51 50 51 53 56 56 57 57 57 57 57 56
32 35 35 26 31 27 25 24 23 23 25 24 24 22 22 24 25 26 28 29 29 28 28 30 33 39 43 47 49 51 51 52 52 51 50 52 56 56 56 57 57 57 57 56
32 32 37 32 27 28 26 25 24 24 25 25 25 25 26 26 28 29 30 30 29 29 30 32 33 33 34 41 46 48 51 53 53 53 53 52 54 54 55 57 57 57 57 56
27 32 33 32 31 28 26 28 28 29 28 29 27 30 32 29 31 33 34 34 37 36 35 35 35 33 36 37 39 46 48 51 53 53 53 53 53 53 55 55 55 55 57 57
27 29 30 31 32 24 32 30 29 31 30 29 30 29 30 30 31 35 37 38 39 39 40 40 39 37 37 40 38 39 42 48 50 51 52 53 53 53 53 54 54 55 56 56
28 28 30 26 28 31 24 30 32 34 31 29 31 31 30 29 32 37 38 39 39 40 40 43 44 45 45 45 46 41 38 40 46 50 52 51 53 53 53 53 55 55 56 56
26 29 30 29 27 23 27 31 34 29 30 28 30 30 30 29 27 28 34 38 38 38 41 44 46 48 49 50 51 49 45 40 40 45 50 51 52 53 53 55 55 56 56 56
27 28 26 28 25 21 27 31 34 26 32 33 34 35 36 35 35 37 37 37 37 39 41 45 46 47 48 48 49 50 49 50 51 49 48 50 51 53 53 54 56 56 54 46
25 26 26 26 24 22 32 29 30 36 37 38 36 37 38 38 38 39 39 38 39 40 41 43 45 46 46 46 48 48 47 48 51 52 51 50 50 51 53 52 49 48 44 39
26 25 26 24 26 35 37 38 39 40 38 38 38 37 37 37 37 37 38 40 41 40 40 41 43 43 43 40 40 41 42 44 45 44 44 43 42 41 41 42 41 39 39 38
26 30 30 30 31 34 37 37 38 38 38 37 36 36 36 36 36 36 38 37 37 36 36 37 39 38 36 35 35 36 39 39 38 36 36 36 35 35 35 35 36 35 35 34
29 27 23 24 30 34 36 37 37 37 38 37 36 35 35 34 34 34 34 34 34 34 34 34 34 34 32 32 32 33 35 37 35 33 33 33 32 31 29 29 31 31 32 33
24 30 27 32 36 36 36 37 36 36 35 35 35 34 33 32 32 32 32 31 30 30 31 30 30 31 30 30 30 31 32 34 34 32 31 31 30 30 28 27 27 30 30 30

GFSCGP_sfc_dewp_072.txt.gz
Dewpoint
21 23 23 25 26 26 23 20 17 16 18 19 20 17 16 20 21 28 29 32 37 44 46 49 52 54 56 59 59 59 59 59 59 59 58 58 58 58 57 58 58 59 59 57
30 23 27 24 25 23 23 23 22 19 18 19 18 17 18 17 19 23 28 31 34 43 45 49 51 53 56 56 58 58 57 58 58 59 58 57 58 57 56 57 58 58 58 57
34 30 25 24 17 23 24 23 23 19 18 19 17 17 19 18 17 18 24 28 32 43 45 48 50 52 55 55 57 57 57 58 58 58 57 57 57 57 56 55 56 57 56 56
38 39 26 30 28 19 22 24 24 21 21 19 19 16 19 19 19 19 22 28 30 35 46 48 50 52 53 55 57 57 57 57 58 58 57 56 55 54 53 51 53 57 58 56
34 35 32 30 29 23 24 30 30 23 21 23 18 17 18 17 18 19 23 27 32 34 46 47 49 51 52 55 55 58 57 57 57 57 56 56 55 54 53 50 51 56 57 57
31 33 35 35 34 28 28 28 33 28 25 21 20 19 19 19 19 20 21 23 31 35 46 47 50 50 51 55 55 58 57 57 56 57 56 56 55 54 54 52 52 55 55 57
31 30 34 35 32 31 28 34 30 26 23 23 21 19 22 22 20 20 21 22 31 37 44 46 48 48 50 54 56 57 57 56 57 57 56 56 56 55 55 52 51 54 54 55
29 29 31 36 32 31 27 31 25 23 24 22 21 19 20 22 19 23 23 26 31 35 43 46 48 48 48 54 55 56 56 56 57 57 57 56 56 55 55 54 52 52 54 55
29 28 31 34 35 34 31 26 27 26 28 29 24 20 25 22 21 21 22 25 28 32 41 45 47 49 49 51 55 55 56 55 56 57 57 57 56 56 55 55 55 54 54 54
29 31 31 33 33 37 34 32 29 25 24 28 26 25 22 25 23 21 23 30 34 35 39 45 46 49 49 50 53 56 55 54 56 56 57 57 56 56 55 54 54 56 56 55
30 34 30 34 36 33 31 27 29 26 24 27 29 27 37 30 25 25 30 32 37 42 41 44 46 49 50 51 52 54 54 53 55 56 56 56 56 57 57 55 55 54 57 56
35 33 27 25 26 35 32 30 28 28 26 25 31 28 35 33 28 30 28 28 34 39 42 44 46 49 49 50 50 52 54 53 53 55 56 56 56 56 57 56 56 56 55 56
32 31 23 24 25 36 34 33 33 32 34 31 33 26 32 30 28 27 31 30 33 34 37 42 46 47 49 50 51 50 53 53 53 53 55 56 56 56 56 56 56 56 56 55
36 31 29 25 29 35 33 31 32 33 33 33 34 31 34 30 26 28 31 32 32 35 34 37 42 45 48 51 52 52 52 53 52 52 53 54 56 56 56 56 56 56 56 55
36 34 36 35 33 34 36 32 32 31 32 30 30 30 33 34 33 30 31 30 29 30 33 34 36 41 45 49 52 52 52 53 53 52 51 53 55 56 57 56 57 56 56 55
33 31 32 29 30 32 37 32 32 34 32 29 26 28 31 31 31 34 37 38 37 38 38 38 37 36 37 44 48 51 52 53 53 52 51 52 53 55 55 56 57 57 56 56
28 31 33 29 35 34 29 32 32 30 29 30 31 35 34 32 31 37 38 39 39 39 40 41 43 43 43 41 44 44 51 53 53 53 53 52 52 52 55 55 55 55 56 56
28 29 32 30 31 25 30 37 34 34 36 37 36 35 33 30 35 37 38 39 39 39 41 44 45 47 48 50 50 50 48 45 52 53 53 53 53 53 53 54 54 55 55 55
30 29 29 29 27 31 29 36 39 32 37 40 37 34 30 27 36 34 34 38 39 40 42 45 47 49 49 48 49 50 50 48 43 51 52 53 54 53 53 53 54 54 55 55
27 31 30 31 26 25 29 37 40 39 34 37 36 34 34 32 35 35 37 37 38 40 43 44 47 47 46 46 49 50 49 49 49 52 53 53 53 53 53 54 54 54 55 55
27 29 27 29 29 25 28 38 41 31 34 39 37 35 36 35 36 38 39 39 40 40 42 43 46 44 42 42 45 45 44 44 46 48 48 46 47 50 53 55 54 55 54 46
26 27 28 27 25 23 35 35 32 39 41 36 36 37 37 37 36 36 38 39 38 38 38 39 42 40 38 37 39 40 40 41 41 40 39 38 38 39 42 48 46 45 43 39
25 27 28 25 27 38 39 38 39 39 37 36 36 35 36 36 35 35 36 37 36 35 35 35 36 36 35 34 34 35 36 38 37 35 34 33 32 31 33 36 38 38 38 36
32 33 34 32 37 37 36 37 37 37 37 36 35 35 35 35 34 35 34 34 33 33 32 33 34 32 32 32 32 33 34 37 35 34 32 31 30 29 28 29 31 32 33 32
32 31 28 36 39 39 36 35 36 35 36 35 35 34 33 33 33 33 32 30 30 29 29 30 29 29 29 29 30 31 32 34 34 32 31 30 29 28 27 28 29 29 30 31
34 34 34 36 35 38 35 34 35 34 34 34 33 32 32 31 31 31 28 28 26 25 26 25 26 25 26 26 27 28 31 31 32 30 30 30 28 27 26 25 26 30 31 31

GFSCGP_sfc_dewp_075.txt.gz
Dewpoint
29 18 17 19 28 28 27 26 24 21 19 20 19 16 16 19 20 27 27 27 37 44 47 50 55 56 58 59 59 58 58 59 59 58 58 58 57 59 59 59 58 59 58 58
30 22 23 24 27 26 27 25 23 23 24 23 23 25 18 19 20 21 28 29 33 44 48 50 55 55 57 58 58 58 58 58 59 58 57 58 57 58 58 58 58 57 57 57
30 32 34 32 22 25 24 23 23 22 23 24 21 19 17 20 21 21 27 29 33 45 48 49 54 54 55 57 58 57 56 58 58 58 57 58 57 57 56 57 56 55 56 57
37 37 35 36 28 25 25 28 26 23 25 28 30 20 19 19 20 21 19 28 32 44 48 49 52 54 54 55 57 57 57 57 58 58 57 57 56 55 55 55 55 55 58 57
30 36 34 36 31 27 27 32 31 33 34 33 30 22 20 21 20 21 20 27 30 44 48 49 50 54 54 54 57 57 57 57 57 58 57 56 56 55 55 54 54 56 56 57
32 32 36 36 34 31 35 34 32 35 34 30 31 25 20 20 21 23 21 26 28 44 47 48 50 52 54 55 56 57 57 56 57 58 56 56 55 54 54 53 52 54 55 57
28 30 33 36 33 33 33 33 31 30 30 29 27 24 21 24 23 23 24 26 31 45 46 48 50 51 53 54 55 56 56 56 57 57 56 55 55 54 53 50 50 52 55 56
25 25 32 34 34 32 31 36 32 27 26 24 24 21 21 24 24 22 21 29 35 44 46 48 49 50 53 54 54 55 56 56 56 56 56 56 55 54 53 51 49 50 54 55
27 27 32 33 35 36 35 35 34 33 30 32 32 21 23 23 23 24 24 26 34 43 45 47 48 49 53 54 54 55 54 54 57 56 56 56 56 55 55 53 51 50 53 54
31 28 30 32 38 39 36 36 31 34 28 27 28 29 21 24 22 23 23 27 29 38 45 47 47 48 53 54 55 55 56 55 55 57 57 56 56 56 55 55 53 51 51 53
31 34 30 36 37 36 36 36 37 36 35 28 30 33 39 35 31 27 31 32 36 38 44 46 47 48 50 54 54 55 56 55 56 56 56 56 56 56 56 54 55 54 52 52
37 37 30 28 32 36 34 38 37 34 31 31 29 32 40 36 31 30 31 30 32 38 42 46 47 48 48 50 54 54 54 55 55 55 56 56 56 57 56 55 54 55 55 54
33 34 29 25 27 27 33 37 37 37 37 34 31 32 40 33 30 28 30 32 33 38 42 45 47 48 48 49 51 53 54 53 54 55 55 55 55 55 55 56 55 54 54 55
36 31 28 27 31 35 35 38 36 36 35 33 33 34 39 39 33 32 33 34 35 37 36 43 46 48 48 49 50 52 53 54 53 55 55 55 55 55 54 55 56 56 55 54
36 30 32 32 30 33 33 34 38 35 36 36 36 34 39 40 39 38 38 39 39 39 41 42 42 43 46 51 51 50 52 53 53 53 54 55 55 55 55 55 56 56 55 55
35 30 32 29 29 32 33 36 37 39 36 37 37 37 42 42 43 38 38 38 39 40 42 44 46 48 48 49 52 53 52 52 53 52 52 53 55 56 56 56 56 56 55 55
33 30 28 27 31 32 32 35 38 38 39 39 37 39 42 43 39 38 38 39 39 42 43 46 48 47 47 48 49 50 52 54 55 53 52 52 53 54 55 56 56 55 55 55
29 30 30 28 31 26 32 36 38 39 40 40 40 40 40 41 36 37 38 38 39 43 45 47 46 45 45 45 49 50 49 49 50 53 54 54 54 53 54 55 55 55 56 56
31 31 28 26 27 29 32 39 38 38 37 40 41 42 41 42 38 37 39 40 42 44 46 45 43 42 41 41 45 46 45 46 46 48 49 48 50 50 54 54 54 55 55 55
27 31 28 29 26 25 32 39 38 38 34 40 41 40 39 37 36 36 39 38 38 39 44 42 39 38 37 37 41 42 42 42 42 43 43 42 42 44 46 50 52 55 55 55
25 28 27 27 27 29 37 39 38 32 35 43 40 37 35 35 36 39 38 36 36 36 36 38 36 34 34 34 37 37 37 38 39 39 39 38 37 38 38 43 44 44 49 49
25 28 27 27 25 23 40 40 37 41 43 38 38 38 37 36 36 36 35 33 33 33 33 35 34 32 32 32 33 34 34 36 37 36 34 33 33 33 34 35 37 38 39 39
28 29 29 27 28 39 40 42 39 37 36 36 36 36 36 35 35 34 32 32 30 30 30 32 31 31 30 30 31 31 32 35 35 33 32 31 30 30 30 31 30 32 34 34
34 30 32 32 37 37 36 36 36 37 36 35 34 34 34 33 33 31 30 29 28 27 28 28 28 27 27 27 28 30 31 33 33 32 30 29 28 28 28 28 29 29 30 30
35 36 36 34 35 37 37 35 35 35 35 34 33 31 31 31 30 29 27 26 25 25 25 25 26 25 25 26 27 28 30 31 30 30 29 28 27 26 27 28 28 28 29 29
36 32 33 32 36 35 35 34 34 33 32 30 30 28 27 27 27 25 24 23 23 23 23 23 24 25 25 25 27 28 29 29 29 28 28 27 27 26 25 24 25 30 30 30

GFSCGP_sfc_dewp_078.txt.gz
Dewpoint
29 22 21 16 24 29 28 27 26 26 27 26 26 23 23 24 24 17 19 26 40 45 48 54 56 58 58 56 56 56 57 59 59 59 58 59 58 60 60 60 59 59 58 58
32 25 25 22 24 24 26 26 25 26 26 24 23 22 26 26 25 21 22 26 36 46 49 54 56 57 57 57 56 57 57 58 57 58 58 58 58 59 59 59 58 58 58 57
30 31 30 26 31 33 26 24 25 24 28 27 24 25 27 28 25 20 23 27 33 46 49 54 55 56 56 56 56 57 57 57 58 58 58 58 58 58 58 58 58 58 58 57
34 37 36 35 34 33 31 25 26 28 30 27 30 26 28 29 28 22 22 26 33 46 49 53 54 55 55 56 57 57 57 58 58 57 57 56 56 55 57 57 57 56 57 57
30 33 34 34 35 35 33 28 29 32 32 33 28 28 27 28 24 22 22 23 35 46 48 52 53 55 55 56 56 56 57 57 58 57 57 56 55 55 56 57 56 56 57 57
31 33 34 34 35 35 32 32 31 33 33 28 26 30 27 26 25 23 24 24 34 46 48 51 53 54 54 55 56 56 56 57 58 57 57 56 55 55 55 55 55 55 56 57
28 29 31 35 33 34 34 33 28 27 28 24 26 28 27 29 27 25 24 23 34 46 48 50 53 53 53 55 55 56 57 56 57 57 57 56 56 55 54 54 54 54 54 56
24 22 31 35 32 33 34 35 31 23 26 26 28 25 25 28 28 26 25 28 40 46 48 49 51 52 53 54 55 55 56 56 56 57 56 56 55 55 55 54 53 53 54 55
26 26 31 33 34 34 37 35 36 35 36 31 31 29 24 24 24 24 24 38 44 46 47 49 51 52 53 53 55 55 55 55 55 57 57 56 56 55 54 53 53 52 53 54
30 26 30 35 35 37 36 40 34 35 27 26 28 28 26 33 31 25 24 35 44 45 47 49 50 52 53 53 54 54 54 54 56 57 57 56 56 55 54 53 50 51 51 53
34 31 30 37 35 35 37 37 37 35 34 31 29 32 37 39 39 33 30 32 41 45 47 48 49 52 53 54 54 54 54 53 55 56 56 56 56 56 55 54 52 50 50 53
37 33 28 29 31 38 39 37 37 31 31 33 32 32 44 44 40 33 31 35 37 44 47 48 48 51 53 54 54 55 55 54 55 56 56 56 56 56 55 55 55 53 51 51
33 31 25 25 29 36 33 35 36 39 37 34 31 32 44 43 42 38 37 39 39 41 46 47 48 49 52 53 54 54 55 55 55 55 56 56 56 56 55 55 55 55 53 52
36 31 28 24 28 33 34 35 36 38 33 31 33 33 40 42 43 42 39 41 42 43 44 46 48 49 50 51 54 54 55 55 55 55 55 55 55 55 55 56 56 55 55 55
35 28 31 31 31 30 29 34 33 34 36 33 31 35 41 45 45 42 40 42 44 46 48 48 48 49 52 53 53 52 53 54 54 55 55 54 55 55 55 55 55 56 55 54
35 28 30 28 28 30 31 33 31 32 36 35 35 37 42 47 47 41 39 41 44 46 46 45 46 46 47 50 52 53 54 55 55 54 55 56 55 55 55 54 54 54 55 55
33 33 28 23 29 28 28 32 32 32 37 37 35 36 44 46 44 43 39 42 45 45 44 43 43 42 43 45 47 47 48 50 52 55 54 54 55 55 55 55 55 54 55 55
32 31 29 25 28 23 33 34 39 40 40 40 40 42 43 41 42 40 44 45 45 42 40 40 40 39 39 42 43 44 44 45 46 46 47 47 47 49 52 56 55 55 55 55
32 30 25 21 24 23 30 37 39 35 35 42 41 43 43 40 37 36 38 42 40 39 37 37 37 37 36 38 39 39 39 40 41 42 42 43 44 45 47 49 49 54 56 55
31 31 26 26 22 19 32 36 40 41 33 41 43 43 42 40 35 34 35 36 35 36 35 34 34 34 33 35 37 36 37 37 37 37 37 37 38 40 42 44 44 45 47 52
26 27 26 24 24 27 32 40 42 32 35 40 40 40 40 39 37 34 33 32 32 33 33 33 31 31 31 32 35 34 35 35 34 33 32 31 32 34 35 38 39 40 43 40
26 26 25 27 26 22 39 39 36 40 42 41 40 39 39 37 34 33 30 29 30 30 30 30 30 29 29 29 31 32 32 34 32 31 30 29 29 29 30 31 33 36 37 35
30 29 27 27 28 39 41 41 42 41 39 36 37 36 36 33 31 30 28 28 27 27 27 28 27 27 27 28 29 29 31 33 31 29 28 28 28 28 28 29 30 30 32 31
34 37 32 31 36 37 37 37 37 36 33 32 32 33 33 30 29 28 26 26 25 25 25 25 26 25 26 27 28 29 30 31 30 29 27 27 27 27 28 28 28 29 28 28
33 35 35 33 34 36 36 36 33 33 32 30 28 28 29 28 26 25 24 23 23 23 24 25 25 26 26 27 28 28 28 30 28 27 27 27 26 26 25 26 28 28 30 30
33 30 33 31 34 34 34 33 31 29 27 27 26 25 25 25 24 23 22 22 22 22 22 23 23 24 25 26 27 28 28 28 27 26 26 27 26 25 24 23 24 28 29 30

GFSCGP_sfc_dewp_081.txt.gz
Dewpoint
28 21 19 17 24 25 27 26 26 27 27 26 25 25 25 27 25 26 26 24 21 35 44 53 56 57 56 55 55 56 56 57 59 59 59 60 60 61 62 62 62 60 58 55
32 26 25 23 21 20 22 23 23 26 27 26 26 26 26 26 26 27 26 26 21 43 52 55 56 57 57 55 55 55 55 57 56 59 58 59 60 60 61 61 61 61 58 54
30 31 33 27 24 25 27 28 25 25 27 27 26 25 23 25 28 30 30 24 24 44 51 54 55 56 56 55 55 55 56 56 57 58 58 58 59 59 59 59 60 60 59 57
32 35 35 32 33 33 30 32 30 25 29 24 32 25 29 29 28 28 29 24 29 43 49 53 55 55 55 55 56 55 55 57 57 58 57 57 57 56 57 58 59 58 59 58
30 33 33 33 33 35 31 35 31 31 30 30 28 29 27 28 27 28 29 25 27 40 48 52 55 55 55 55 55 55 55 57 57 57 57 56 56 56 58 58 57 57 58 59
30 33 34 32 34 34 35 32 31 30 32 27 27 27 25 25 26 27 28 26 26 39 47 52 54 55 54 55 55 55 56 55 57 57 56 55 55 55 56 57 57 57 57 58
28 30 32 35 32 34 34 32 24 22 25 22 26 25 25 26 29 30 29 27 28 41 48 52 53 54 54 54 54 55 55 56 57 56 56 55 54 55 55 56 56 56 56 57
24 21 29 35 32 31 33 33 27 21 23 26 24 23 24 29 30 30 31 30 28 39 48 52 53 53 54 54 54 55 55 56 57 57 56 56 54 54 55 55 55 55 55 55
25 25 31 34 34 33 34 33 35 34 33 31 29 32 29 40 29 37 37 33 33 41 47 51 52 52 53 53 54 54 55 55 56 57 56 56 56 55 55 54 55 55 55 55
29 25 29 36 35 35 35 39 34 32 25 25 27 28 34 40 39 38 34 33 36 46 48 50 52 52 53 54 54 55 55 55 55 57 57 56 56 55 55 54 53 53 53 54
33 29 28 35 34 32 35 32 36 36 33 29 28 32 40 41 41 40 39 38 43 46 48 50 51 52 53 54 55 55 55 54 54 56 57 56 56 56 55 53 52 52 52 53
36 33 26 28 31 36 36 34 36 32 32 34 31 29 43 42 41 41 40 42 42 46 47 49 51 52 53 53 54 54 54 54 55 56 57 56 56 56 55 54 53 51 51 52
33 29 23 19 30 37 35 36 36 37 36 30 28 28 41 40 40 43 41 44 44 47 47 48 52 52 53 53 54 54 54 53 54 55 55 56 56 56 56 55 55 53 51 50
34 30 26 20 23 32 30 32 33 34 32 33 31 32 39 41 40 42 43 46 47 48 50 51 50 52 54 54 54 55 55 55 55 55 55 55 54 55 56 56 55 56 54 52
32 26 30 30 30 30 30 29 29 29 31 30 28 35 37 42 43 44 45 45 44 45 46 47 49 51 52 53 54 54 55 55 55 55 55 55 55 55 55 55 55 55 56 55
34 27 29 27 27 28 28 25 28 30 32 32 32 34 41 46 46 46 44 43 42 43 43 44 45 46 47 47 48 49 49 51 55 55 55 55 55 55 55 55 55 55 55 55
32 30 27 20 25 25 24 30 32 33 34 31 30 34 44 44 46 45 46 43 40 40 40 40 40 42 42 43 43 44 45 46 48 48 48 49 53 55 54 54 54 54 54 55
31 30 28 22 24 12 25 35 37 36 37 38 37 36 41 42 42 44 43 40 38 37 37 37 37 37 38 39 39 39 40 41 41 42 42 42 45 46 49 51 55 55 55 54
32 30 24 19 21 19 21 34 36 35 35 38 41 41 40 39 37 37 40 38 36 35 35 34 34 35 36 37 37 37 36 36 36 36 36 37 39 40 43 44 45 46 49 53
32 30 26 24 19 14 26 34 38 37 32 40 41 41 40 41 33 34 36 37 34 33 32 32 32 32 33 35 35 35 34 33 32 32 32 32 34 34 35 37 38 42 45 42
27 28 25 23 21 23 30 40 39 31 33 40 42 42 38 35 36 35 34 32 31 31 31 30 30 29 30 32 34 34 33 31 30 30 30 30 30 31 32 33 35 36 37 35
25 25 24 24 23 19 40 38 34 38 40 40 40 39 37 35 33 32 30 29 28 28 28 28 28 28 28 29 31 31 32 31 29 29 28 28 29 29 30 31 31 32 33 32
28 28 27 26 27 38 39 41 41 39 38 37 39 38 35 32 30 28 27 26 25 26 26 26 26 27 28 28 29 29 31 31 29 28 27 27 28 28 28 29 29 29 30 29
31 34 33 33 34 35 37 37 35 34 32 31 32 31 30 28 27 25 24 24 24 24 25 26 26 26 27 28 28 28 30 29 28 27 26 26 26 26 27 28 28 29 28 27
29 32 33 33 34 35 34 34 35 32 30 27 26 27 27 26 24 23 22 23 23 23 23 24 25 25 25 25 26 27 27 28 27 27 26 25 25 25 24 26 27 26 28 29
29 28 28 29 33 32 32 33 32 28 25 25 24 23 24 24 23 22 21 21 21 21 21 21 22 23 23 24 24 25 26 26 26 25 25 26 25 24 23 21 22 26 26 26

GFSCGP_sfc_dewp_084.txt.gz
Dewpoint
25 21 19 19 24 21 23 24 22 22 25 26 23 23 25 27 27 26 26 27 27 27 24 38 53 56 55 55 56 56 55 55 58 59 60 60 60 60 60 62 62 62 61 62
31 24 23 21 20 20 20 19 19 23 25 24 25 25 26 27 27 27 26 26 28 27 46 52 54 55 56 55 56 56 56 56 58 57 59 59 60 61 61 61 61 60 59 58
29 30 32 27 26 23 23 25 27 27 30 26 27 24 23 24 26 26 28 28 29 27 39 53 55 55 56 55 55 55 55 55 56 59 58 59 59 59 60 61 60 59 58 56
31 31 32 29 27 26 29 32 32 30 28 23 30 24 22 26 29 30 30 30 30 28 40 52 54 54 55 55 55 55 55 55 56 58 58 57 57 57 58 59 60 58 57 55
28 34 34 33 32 34 31 36 34 32 30 28 27 26 24 26 25 28 29 29 29 28 44 51 54 54 55 55 55 55 55 54 57 57 57 57 57 57 58 59 59 59 58 56
27 33 32 29 33 34 34 33 31 30 29 25 24 25 24 25 26 28 28 30 29 27 46 52 54 55 55 54 54 55 55 55 56 57 57 56 56 57 57 57 57 58 58 58
28 30 32 35 30 34 33 31 23 22 25 22 25 25 25 27 27 27 29 30 30 28 46 52 53 54 54 54 54 54 54 54 56 56 56 56 55 56 57 57 57 57 57 57
24 19 29 34 30 29 33 31 24 20 21 25 29 22 24 40 40 40 40 37 32 31 45 50 53 54 53 54 54 54 53 54 55 56 56 55 55 56 56 57 57 57 57 58
23 23 32 34 34 33 33 31 34 31 30 29 28 29 35 41 41 41 41 40 41 36 43 49 52 54 53 53 54 53 53 54 55 55 56 55 55 54 55 55 56 57 57 57
28 23 30 35 34 34 33 39 33 33 22 22 25 28 32 38 38 41 42 42 45 43 39 50 52 53 54 53 54 54 54 55 55 56 56 56 55 55 55 55 54 54 55 56
31 27 28 34 33 32 35 33 36 35 34 26 23 27 40 39 39 39 41 45 47 43 48 51 52 53 54 53 53 54 54 54 55 56 55 55 56 55 54 54 53 53 53 54
36 31 26 27 30 35 35 32 32 31 28 31 28 27 43 43 40 40 40 44 47 47 49 51 52 52 52 52 52 53 53 54 54 55 56 56 56 55 55 54 53 52 52 53
34 29 21 16 27 36 35 35 37 35 35 31 29 27 40 38 39 40 41 45 46 49 51 51 52 52 52 52 52 52 53 53 54 55 56 56 56 56 55 54 53 52 51 52
33 30 22 16 20 29 27 29 31 32 28 26 29 30 30 38 40 40 44 44 45 47 50 51 52 52 52 53 53 53 54 54 54 54 54 54 54 55 56 55 55 53 52 51
29 26 29 28 28 29 28 28 28 29 28 27 25 27 30 35 41 44 45 43 44 44 46 47 49 51 52 53 54 54 54 54 54 54 54 54 54 54 54 54 54 55 54 52
34 27 29 27 26 25 27 24 22 23 25 28 28 30 33 37 46 45 41 40 41 41 42 43 44 45 46 47 47 48 49 51 55 54 54 55 54 54 54 53 54 54 54 54
31 28 25 19 23 25 19 25 29 29 31 30 30 31 39 42 45 45 41 38 38 38 39 39 40 41 41 41 41 42 43 46 47 47 46 47 50 54 54 54 54 55 55 55
29 28 27 23 22 10 17 36 36 34 33 31 36 38 38 41 39 39 39 38 36 36 35 35 37 37 37 37 37 37 37 38 38 39 39 41 42 43 45 47 47 51 53 55
31 29 24 18 20 19 20 34 32 31 30 36 37 39 40 37 35 34 37 36 36 34 33 32 33 34 36 35 34 33 32 33 33 33 34 36 37 38 39 39 40 43 46 44
32 29 25 23 18 11 17 36 38 38 29 37 40 41 38 39 33 31 35 34 34 34 32 30 30 31 32 34 34 31 30 30 30 30 31 32 33 34 35 36 37 39 38 35
27 27 24 23 21 23 31 38 39 29 30 35 37 34 34 31 33 34 35 34 34 33 32 30 29 29 29 32 33 31 29 28 29 29 30 30 30 31 32 32 33 34 34 32
24 25 23 25 23 18 37 38 32 37 36 34 34 33 32 32 32 31 31 29 28 27 28 29 29 29 29 29 31 31 30 29 28 28 28 28 29 29 30 30 31 31 31 30
27 31 28 27 27 35 35 35 36 36 34 36 34 34 33 31 29 29 27 25 26 27 28 27 27 27 27 27 28 28 29 28 28 27 27 27 27 28 28 29 29 28 29 28
25 33 29 33 32 31 33 34 33 33 32 33 34 33 32 28 27 26 25 24 24 24 25 25 24 24 25 25 26 27 28 28 27 26 25 25 25 26 26 26 27 28 28 27
26 29 27 32 34 32 30 31 31 30 30 28 29 29 28 25 24 24 22 22 21 21 22 23 23 23 24 24 25 26 26 27 26 25 25 24 24 23 23 25 25 25 28 27
27 25 24 26 32 30 28 29 30 27 25 24 23 23 23 22 21 20 19 19 19 19 19 19 20 21 22 22 23 23 24 24 24 23 24 24 23 23 21 20 21 25 26 26

GFSCGP_sfc_dewp_087.txt.gz
Dewpoint
25 23 20 20 21 16 21 22 21 21 21 20 19 20 22 25 25 26 27 28 29 30 31 32 35 50 56 59 59 59 60 60 61 62 61 61 60 60 60 61 62 61 62 62
28 23 24 23 22 22 19 17 17 22 23 26 26 26 26 26 25 25 27 28 29 30 30 33 46 53 55 57 58 59 59 59 59 60 61 61 61 61 61 61 61 61 61 62
27 28 30 22 21 19 20 20 23 23 28 29 27 23 22 24 25 26 26 28 28 29 30 33 48 53 55 56 58 57 58 58 59 59 59 60 61 61 61 60 61 61 61 62
30 30 31 28 26 26 24 27 27 30 28 20 29 18 19 24 26 27 29 30 30 30 32 33 46 53 55 56 57 57 57 57 58 59 57 58 57 57 59 60 60 59 60 60
27 33 32 29 29 29 29 34 31 30 29 28 26 25 23 24 22 26 29 30 33 34 34 35 47 52 55 56 55 56 57 56 56 58 58 58 57 58 59 60 59 57 57 57
25 34 34 32 33 34 34 30 30 31 28 24 24 24 20 22 26 34 38 37 34 34 34 40 51 54 55 55 55 55 55 56 56 57 58 58 58 58 58 58 57 56 56 57
30 30 32 34 30 34 31 29 24 24 23 18 25 24 24 28 39 41 42 42 42 40 36 50 53 53 55 55 55 56 55 55 56 57 58 58 58 58 58 57 57 57 56 56
21 21 30 34 29 29 31 30 23 16 21 22 29 24 23 40 41 41 42 44 46 47 45 48 52 54 54 54 54 55 55 54 55 56 57 57 57 58 57 57 58 58 57 56
22 24 32 33 33 33 33 30 32 29 29 25 23 28 31 39 39 39 41 43 45 47 48 44 52 54 54 54 54 54 54 53 55 56 56 56 57 57 57 58 58 58 59 58
27 26 31 33 34 34 33 36 31 31 22 21 22 24 24 37 38 39 40 43 46 48 48 44 49 54 54 54 54 55 54 53 55 55 56 55 55 56 57 57 57 57 58 58
30 27 29 35 32 31 33 32 33 34 33 25 23 23 39 38 37 39 41 43 46 48 49 50 52 53 53 54 54 54 54 53 55 55 55 56 55 56 56 56 57 57 57 57
34 29 25 25 30 35 34 32 31 29 27 32 29 26 39 33 37 40 43 44 46 47 51 52 51 52 52 53 53 53 54 53 55 55 56 56 57 56 55 55 55 56 57 57
33 28 17 28 31 35 32 36 34 32 31 28 27 25 37 28 32 38 43 44 44 45 51 51 52 51 52 52 53 53 54 55 56 55 56 56 56 56 56 56 55 55 55 56
35 29 19 11 21 28 27 27 26 30 26 21 23 23 26 26 29 37 42 42 42 42 44 49 50 51 52 53 53 53 55 55 56 56 56 56 56 56 56 56 55 54 54 55
31 25 28 26 27 27 26 25 26 25 24 22 19 20 24 30 32 40 41 40 39 39 40 42 45 48 51 53 53 52 54 55 55 55 55 55 56 57 57 57 56 56 55 54
34 27 29 23 25 24 22 22 21 21 23 23 24 27 32 35 38 41 39 37 36 36 37 39 40 42 43 45 47 47 50 55 55 55 55 55 56 56 56 57 57 57 56 55
31 30 27 21 23 22 16 22 22 23 28 31 27 30 32 38 40 40 37 35 34 34 34 35 37 38 39 40 40 42 42 43 44 44 44 46 50 50 51 54 55 56 56 57
30 27 28 22 22 6 18 23 31 33 32 32 33 35 35 39 37 36 37 35 33 33 33 33 34 36 35 36 36 37 37 37 38 38 38 39 42 42 43 44 46 48 47 45
31 29 25 22 19 17 20 33 30 32 29 35 34 35 36 36 33 33 35 35 34 33 32 32 32 33 35 33 33 33 32 33 33 33 34 35 37 37 38 39 40 42 40 37
31 31 26 23 15 12 15 33 36 37 29 34 33 32 39 36 32 29 34 34 33 33 33 32 31 31 32 33 32 31 30 30 30 31 31 32 33 34 34 36 36 35 34 33
26 25 22 21 19 20 33 35 38 28 29 34 33 31 29 27 30 32 33 31 32 32 32 32 30 29 29 32 32 31 29 29 29 30 31 31 31 32 32 33 33 33 32 31
23 24 23 22 22 18 34 34 31 35 35 34 32 31 29 28 28 28 29 29 29 29 30 30 28 28 28 28 30 29 28 28 28 29 28 29 29 30 30 31 31 31 31 30
27 29 25 30 28 32 33 31 33 34 33 33 32 32 29 27 27 27 26 26 26 27 27 27 26 26 27 27 27 28 27 27 27 26 26 26 27 27 28 29 30 30 29 29
24 28 28 28 29 28 30 31 31 30 30 30 31 30 29 26 26 25 24 23 22 22 23 23 23 24 24 26 26 28 29 27 26 25 24 25 25 25 26 26 27 27 28 28
25 27 25 30 31 30 27 29 29 29 29 28 28 28 26 24 23 22 22 22 22 21 21 21 21 21 22 23 23 24 25 26 25 24 24 23 23 24 24 25 25 26 27 26
26 25 24 23 29 26 25 27 28 25 25 25 23 21 20 20 20 19 19 18 18 18 19 19 19 20 21 21 22 22 23 24 23 23 23 23 23 22 21 20 21 25 25 26

GFSCGP_sfc_dewp_090.txt.gz
Dewpoint
19 18 18 16 19 15 10 12 10 14 17 16 14 11 10 16 18 21 20 20 21 24 28 31 33 36 40 49 55 57 62 63 63 63 63 62 62 61 62 62 62 62 63 63
22 18 14 18 18 19 17 11 8 9 15 20 18 19 22 21 21 21 21 21 22 23 24 29 32 35 47 49 55 57 60 61 63 62 61 60 61 61 62 62 62 62 62 62
20 19 19 19 23 23 20 17 16 15 18 23 24 19 13 21 22 22 23 24 25 26 26 27 30 34 47 51 55 57 59 61 62 61 60 60 62 62 62 61 61 61 62 62
27 25 26 24 22 20 17 18 19 19 23 18 24 8 10 14 17 23 28 32 32 32 30 29 29 32 45 52 55 57 59 60 61 61 59 60 57 58 61 60 61 62 61 61
23 26 24 24 22 22 19 28 27 27 26 23 20 19 10 17 19 26 33 39 40 38 33 33 31 32 40 52 56 58 59 59 59 59 59 58 57 57 59 61 61 60 61 61
20 30 28 25 25 28 29 31 29 26 24 20 18 18 7 18 26 34 38 40 42 42 42 35 35 35 45 53 57 58 58 58 59 59 58 58 57 57 58 59 59 58 58 60
19 24 30 31 31 31 28 24 22 22 22 14 21 19 16 25 37 39 39 40 42 44 45 44 43 46 49 55 55 57 57 57 58 58 57 58 58 58 58 59 57 56 56 56
20 19 26 31 26 26 26 25 19 11 14 14 22 21 22 36 39 38 39 40 41 43 46 46 45 50 51 54 55 56 56 56 57 57 57 57 58 58 58 59 58 56 56 56
13 14 24 30 27 27 29 29 28 27 24 23 15 20 32 34 35 36 37 39 41 44 48 47 46 50 52 55 55 56 57 56 56 56 57 57 58 58 58 58 58 57 57 57
24 18 28 31 31 33 31 30 29 29 21 18 15 17 21 34 32 34 36 40 42 46 49 50 44 50 53 54 55 56 57 55 55 56 56 56 57 57 58 59 58 58 57 57
32 26 30 32 30 28 32 30 32 31 30 25 19 22 37 33 31 31 37 40 43 48 50 51 51 51 53 54 54 56 55 54 55 55 55 56 56 57 57 57 58 58 58 57
32 28 26 27 33 30 30 28 30 27 28 28 28 23 34 33 25 25 33 40 44 45 47 51 51 52 52 53 54 55 55 54 55 55 55 56 56 56 56 56 57 58 58 58
32 26 23 26 28 31 28 34 32 30 30 27 25 23 34 26 21 28 33 41 42 42 43 45 51 52 52 53 54 54 54 54 55 55 55 55 55 56 56 57 57 58 58 58
38 27 19 15 23 28 30 27 26 28 27 21 22 19 19 21 29 32 37 41 41 40 40 42 43 49 52 53 54 54 55 54 54 55 54 55 56 56 57 57 57 57 57 57
32 25 24 22 22 20 19 19 21 23 22 19 15 16 22 28 33 33 40 39 39 37 37 38 39 41 45 52 53 54 54 53 56 55 53 55 56 56 56 56 56 56 56 56
30 26 24 18 20 20 18 17 17 17 18 21 21 23 24 32 34 40 38 36 36 35 34 35 37 38 40 42 48 49 53 54 54 53 53 55 55 54 55 56 56 56 56 55
29 26 19 18 15 16 14 18 18 19 21 25 24 28 32 35 39 38 37 35 34 33 33 33 35 35 36 38 40 42 43 44 45 45 45 47 49 49 50 54 55 55 56 56
27 24 26 21 20 5 24 25 28 25 30 32 32 32 32 34 35 33 34 34 33 32 32 32 32 34 34 35 35 37 37 37 38 38 39 41 42 42 44 45 46 44 44 42
30 27 24 21 15 13 24 29 28 29 31 32 30 29 29 34 31 31 33 33 33 33 33 31 32 32 34 33 33 33 33 33 33 34 35 36 38 39 39 39 39 39 37 35
30 28 26 22 10 6 26 29 33 34 31 31 29 28 28 35 30 26 30 31 31 32 32 31 31 30 32 33 33 32 31 31 31 32 32 33 35 35 35 35 35 34 33 32
25 25 22 22 21 21 31 32 32 30 30 33 31 30 26 23 27 29 30 30 30 30 30 31 30 29 30 32 32 31 32 31 32 33 32 32 33 33 33 33 33 32 31 31
24 26 26 23 21 17 31 31 30 32 34 34 32 31 29 29 28 28 28 28 28 28 28 29 28 28 29 31 30 29 29 31 32 31 30 30 31 31 32 32 32 32 31 30
28 27 27 27 26 30 31 30 32 33 31 32 32 31 30 27 26 27 27 27 27 28 28 29 28 27 28 29 30 28 30 30 29 30 28 28 29 29 29 31 31 32 31 31
30 28 30 30 29 28 28 29 29 31 30 31 31 30 28 25 25 24 24 24 24 25 24 24 25 26 26 28 28 29 31 31 29 27 26 27 26 26 27 26 28 28 30 29
27 29 27 29 30 29 28 29 30 29 30 27 28 28 26 24 23 23 23 23 23 23 24 23 21 21 21 22 24 26 29 29 27 27 26 25 25 24 23 25 26 26 28 28
26 26 26 26 30 28 27 28 28 26 25 26 24 21 22 22 22 22 21 21 21 20 20 19 20 20 20 21 21 21 23 24 25 24 24 25 24 24 22 21 21 24 24 25

GFSCGP_sfc_dewp_093.txt.gz
Dewpoint
23 11 11 12 15 11 10 8 7 4 3 14 15 13 9 10 10 11 13 15 16 17 19 23 29 33 33 35 40 50 57 66 66 64 64 64 64 63 64 64 64 64 64 63
20 16 13 14 13 13 14 12 15 9 5 5 6 12 12 12 14 16 17 17 17 17 17 20 24 31 36 37 41 51 55 61 64 63 63 63 63 62 63 64 63 64 63 63
18 16 15 14 12 14 16 16 14 9 9 12 15 13 14 15 16 16 17 18 20 23 24 24 24 29 36 39 45 49 53 59 64 64 63 62 62 62 62 62 63 63 63 63
15 17 16 20 14 16 17 15 13 15 14 11 20 10 12 12 12 16 21 28 35 37 35 34 29 29 33 39 48 51 53 59 62 63 60 61 60 59 60 61 62 62 62 62
11 5 17 22 18 18 19 18 16 17 18 19 18 14 12 12 8 19 28 34 37 39 39 38 33 31 30 38 47 53 54 57 61 62 60 61 60 59 59 61 62 62 62 61
18 7 18 20 23 22 19 21 24 25 23 19 17 13 9 10 22 30 35 36 39 40 41 41 37 35 30 35 51 55 56 57 59 60 60 60 60 58 55 60 61 61 61 61
15 10 29 23 20 23 23 26 22 19 17 14 12 11 12 23 33 34 35 37 39 42 44 43 41 34 34 39 53 57 56 56 58 60 60 60 59 58 57 58 60 59 59 59
17 9 22 25 23 22 23 23 18 12 14 12 14 15 11 29 34 33 36 38 39 42 46 46 44 44 44 48 56 56 55 55 57 59 59 58 57 57 57 60 60 59 57 58
17 14 16 23 22 23 23 24 22 23 24 23 21 17 30 30 34 33 33 37 39 42 46 49 48 45 49 54 56 57 56 55 57 58 59 57 57 57 58 59 59 58 57 57
33 23 24 21 22 22 24 23 25 26 18 14 8 8 26 33 31 29 29 36 39 43 46 50 50 45 50 55 55 57 57 56 56 57 57 56 57 57 58 59 58 57 57 57
31 31 27 24 23 19 24 29 27 26 22 19 16 22 35 29 26 25 28 35 40 44 45 47 51 51 51 55 55 56 57 56 56 55 56 57 56 57 58 59 59 57 57 57
29 35 28 21 23 20 24 25 28 25 24 23 27 28 32 30 23 27 31 37 40 43 43 44 46 52 54 54 55 55 57 56 56 55 55 56 56 57 57 57 58 58 56 56
35 34 29 29 31 31 26 25 25 30 29 27 24 22 28 21 23 30 32 38 40 41 41 41 42 45 52 53 54 55 55 55 55 54 55 56 55 56 56 57 58 58 57 57
37 32 30 24 24 30 30 29 29 28 27 21 21 18 20 21 27 30 37 39 40 40 37 38 39 41 43 50 54 55 55 55 54 54 54 54 56 56 56 57 58 58 58 58
35 29 27 27 24 23 25 24 24 24 24 18 16 14 19 28 32 35 38 38 38 37 35 35 37 38 39 41 45 54 55 55 55 55 53 55 55 56 57 57 57 57 58 58
36 28 22 18 16 15 16 16 16 16 16 15 17 19 30 31 34 37 38 36 35 34 34 33 34 35 36 38 40 44 50 54 55 54 54 54 55 55 56 56 57 56 56 56
32 23 19 17 13 11 13 13 14 15 21 28 25 29 30 31 34 34 34 34 33 33 33 32 32 34 35 35 37 38 42 45 45 45 46 48 50 51 51 54 53 53 55 56
33 23 24 19 18 16 22 23 22 27 31 30 29 29 29 31 32 31 31 30 30 31 31 31 31 33 34 34 35 36 36 38 39 39 40 42 43 44 44 44 43 42 41 41
28 27 20 20 17 15 23 24 25 26 31 31 30 29 28 32 28 27 29 30 29 30 30 32 33 32 32 33 34 33 33 33 34 35 36 37 38 38 38 37 37 37 36 35
26 26 26 21 13 13 27 28 31 32 28 31 30 28 28 33 30 24 29 29 29 30 30 30 32 31 32 32 32 32 31 32 32 33 33 34 35 34 34 34 33 33 32 32
23 25 24 22 20 27 28 29 31 30 27 31 30 28 28 24 27 29 30 30 30 30 30 29 29 28 30 32 31 30 30 30 32 34 34 34 34 33 33 33 33 32 32 31
25 27 26 24 22 23 29 28 28 30 34 34 30 31 28 30 30 30 30 30 30 30 29 29 28 28 29 31 31 30 29 32 32 33 32 32 33 33 33 33 33 33 32 32
28 26 27 26 25 31 29 29 31 32 31 33 31 31 30 29 28 28 28 27 28 29 30 29 28 27 28 29 31 29 31 32 32 30 30 30 32 31 30 30 32 32 32 31
32 29 31 29 29 26 27 29 30 30 30 31 31 30 29 27 27 26 26 25 25 26 25 27 26 26 26 28 28 31 32 33 31 31 29 28 27 27 28 26 26 26 29 29
27 30 28 28 30 29 28 29 30 29 30 28 29 29 28 26 25 25 25 25 25 26 26 26 25 25 25 26 27 29 31 33 30 29 30 29 26 24 22 23 25 25 26 27
28 27 27 26 31 28 26 28 28 26 26 27 26 25 26 25 24 23 22 21 20 20 21 21 22 22 22 23 25 26 28 30 29 28 28 28 27 27 25 21 20 24 24 24

GFSCGP_sfc_dewp_096.txt.gz
Dewpoint
24 18 12 11 13 11 11 11 10 10 6 8 11 12 9 17 17 13 14 18 18 21 21 22 33 40 41 43 45 51 62 68 67 66 65 65 64 64 65 66 66 65 65 64
17 19 19 13 7 10 12 12 12 11 11 10 7 6 5 7 8 12 11 12 15 17 18 20 24 37 44 42 45 51 58 67 66 65 65 64 63 64 64 64 64 64 64 64
10 13 16 15 13 8 12 13 12 12 10 9 9 6 10 12 15 15 15 17 19 20 22 27 31 36 41 45 49 50 54 66 66 65 64 63 63 64 64 63 63 63 64 63
16 13 6 8 13 11 11 12 13 15 14 9 9 8 10 13 14 15 16 19 24 35 38 38 38 39 41 45 50 49 52 56 66 64 63 63 62 61 61 61 62 62 63 63
14 13 14 8 11 14 15 14 15 17 15 14 13 12 12 15 12 14 28 34 41 42 42 42 42 41 38 41 52 53 53 54 64 64 63 63 61 61 61 61 61 61 62 62
14 13 13 14 7 15 23 15 18 19 17 16 15 15 13 14 14 23 34 36 39 42 43 43 44 43 39 42 50 54 54 56 63 63 63 63 61 60 59 60 61 61 61 61
20 17 19 15 4 23 23 23 23 22 20 19 17 13 16 18 32 33 33 36 41 44 46 48 44 43 41 42 51 56 54 55 62 62 62 63 61 61 60 60 60 61 60 60
24 17 16 20 20 27 27 24 24 17 18 18 16 13 19 22 32 33 37 38 41 43 46 48 50 50 47 47 55 56 55 55 60 60 61 61 61 60 59 59 61 60 59 59
23 19 20 19 27 30 28 26 30 27 23 25 30 15 29 32 34 32 33 37 41 42 45 47 49 52 49 57 58 58 56 55 58 60 60 60 60 59 59 60 60 59 58 58
26 25 25 23 26 32 29 28 24 26 26 23 29 25 32 35 31 27 27 37 41 42 44 45 47 49 54 56 57 58 59 57 59 59 59 59 58 58 60 59 58 57 58 57
23 28 24 32 28 25 21 28 26 28 25 24 20 27 38 35 28 27 33 37 41 42 42 43 43 46 49 56 55 56 57 58 58 58 58 58 58 58 59 59 58 57 57 57
27 34 26 31 29 30 17 25 30 26 22 22 29 32 41 34 27 34 36 38 40 40 40 40 41 41 42 48 54 55 56 57 58 57 57 58 58 58 59 58 58 57 56 56
33 27 26 27 30 25 18 18 26 32 29 30 27 32 39 35 33 37 38 38 39 38 38 37 38 39 39 42 47 55 56 56 57 56 57 57 57 57 57 58 58 56 56 56
36 29 25 23 26 25 22 22 29 31 28 26 26 30 31 30 32 36 36 36 37 37 35 35 36 36 37 39 40 44 56 56 56 56 56 56 56 56 57 57 58 57 56 56
35 28 32 32 32 31 32 31 34 31 28 22 19 25 28 30 34 35 35 35 35 34 33 33 33 35 35 36 37 40 43 56 57 56 55 56 57 57 57 58 58 58 57 56
36 31 32 30 31 28 31 32 31 21 22 19 20 23 29 31 33 32 32 31 31 31 30 31 31 33 33 34 35 37 39 44 56 53 54 56 56 57 57 57 58 58 58 58
34 33 25 16 11 14 18 16 16 28 29 27 26 27 28 31 30 29 29 28 28 28 29 29 30 31 32 33 34 35 36 40 44 46 47 49 50 50 49 49 48 47 49 47
34 32 22 19 20 20 23 25 30 31 29 28 28 27 28 30 27 27 28 27 26 27 28 28 29 30 31 32 33 34 34 35 37 38 40 42 43 42 42 41 40 40 40 39
32 29 23 20 24 27 28 27 28 30 29 29 28 27 28 32 27 26 29 29 28 28 29 29 29 31 32 31 32 32 32 32 33 34 35 36 38 37 36 35 35 35 34 33
23 27 25 22 15 19 25 27 29 30 25 30 28 27 28 29 26 24 29 30 29 29 29 28 28 28 30 31 32 31 30 31 31 32 34 34 34 34 33 33 33 33 32 31
27 26 25 23 24 25 26 27 29 27 25 31 29 27 25 23 26 29 30 29 31 30 29 29 28 27 28 31 31 30 29 29 31 32 31 32 34 33 33 33 32 32 31 30
24 27 25 27 26 20 27 26 24 30 33 32 29 29 27 28 28 28 28 28 28 28 28 28 27 27 28 29 31 29 29 30 30 29 30 30 30 30 32 34 33 33 32 31
25 27 27 24 25 29 28 29 31 31 29 30 29 29 27 26 26 27 26 26 27 27 27 28 26 26 27 28 29 29 30 31 30 28 26 26 28 29 29 28 29 31 32 31
31 29 29 28 27 25 27 29 30 29 28 29 30 29 27 25 26 25 25 25 25 26 26 27 26 25 25 27 27 29 31 31 31 28 27 25 25 25 26 26 26 26 28 26
27 29 28 27 28 26 25 28 29 29 29 28 29 28 27 25 25 25 25 25 26 26 26 26 25 25 25 26 28 28 30 31 29 29 29 27 25 24 23 24 24 24 26 27
27 25 26 24 30 26 25 29 28 26 27 27 26 25 26 26 24 23 21 20 20 21 21 20 20 20 21 23 24 26 27 27 29 28 27 27 28 25 23 22 21 25 26 26

GFSCGP_sfc_dewp_099.txt.gz
Dewpoint
12 20 22 14 12 12 13 14 11 11 12 14 12 9 9 11 11 10 15 13 14 22 21 21 25 30 29 31 31 56 66 66 66 66 65 64 64 65 65 65 64 65 66 65
10 9 14 22 16 13 11 10 8 9 12 13 10 9 10 9 9 9 11 10 10 11 14 17 19 20 34 33 37 57 66 66 66 66 65 64 65 65 64 65 65 64 65 64
16 13 13 13 16 18 16 11 7 9 13 14 14 11 10 10 9 8 10 6 9 11 13 16 18 19 26 36 37 60 66 66 65 65 64 63 63 64 64 64 64 64 64 63
15 17 16 15 14 9 5 14 12 9 11 13 14 11 11 9 9 9 10 14 14 17 19 32 38 40 37 36 39 59 66 65 65 64 64 62 62 61 62 63 63 63 64 63
2 4 11 13 13 14 13 12 19 13 12 16 14 11 11 14 13 14 19 14 15 24 41 46 46 42 40 38 42 54 65 65 64 64 63 62 62 61 62 62 62 62 62 63
-2 8 18 20 20 14 13 14 24 26 20 16 17 15 13 14 14 18 35 41 43 45 46 47 49 50 51 48 42 46 61 64 64 63 62 62 61 61 60 60 60 61 61 62
18 18 20 20 18 21 22 16 22 22 21 18 18 16 17 18 18 35 42 42 43 45 46 47 48 48 50 51 45 50 53 63 63 62 62 62 61 61 59 59 60 59 60 60
21 18 21 23 22 26 20 21 25 17 19 19 19 16 17 18 24 46 43 43 44 45 45 45 46 48 49 53 51 51 59 62 62 62 61 62 62 61 60 59 60 60 59 59
22 15 20 20 26 27 29 27 26 29 28 27 27 28 33 38 40 42 42 42 43 42 42 43 43 45 46 54 56 56 56 59 61 61 61 61 62 61 60 60 60 59 58 59
26 20 18 18 30 32 30 31 28 31 23 21 29 31 32 36 38 42 40 40 40 40 39 40 41 43 44 47 54 56 57 57 59 60 60 60 59 59 59 59 58 56 56 58
24 25 21 26 28 28 32 30 31 31 27 27 25 31 36 38 41 41 38 38 37 37 36 37 38 41 42 44 45 50 56 57 57 59 58 58 58 59 59 58 57 57 57 57
31 30 24 22 24 33 32 31 31 26 25 26 29 30 38 40 41 38 36 36 36 35 34 34 35 36 38 39 40 42 48 57 58 58 58 58 59 59 59 58 56 57 56 57
32 27 19 20 28 31 30 29 29 33 32 28 27 29 39 39 34 34 34 34 33 33 32 32 33 34 35 36 38 39 41 46 57 57 57 58 58 58 58 58 57 57 56 56
35 30 23 17 20 25 28 29 30 32 28 31 32 31 32 32 31 31 31 31 31 30 30 30 31 32 33 35 36 37 39 42 48 57 57 57 57 57 58 57 57 56 56 56
34 27 28 27 25 27 28 29 34 34 34 31 30 27 31 29 28 28 29 29 28 28 28 29 29 31 31 33 34 36 37 40 43 56 56 57 57 57 57 58 57 57 56 56
36 29 32 31 33 33 34 34 33 32 31 31 29 26 31 28 27 26 26 25 25 26 26 27 28 29 30 31 33 34 35 37 40 44 52 55 56 57 57 58 57 57 56 56
33 31 30 27 31 30 29 30 27 27 27 27 25 26 29 25 25 25 25 25 25 25 25 26 27 29 30 31 32 33 34 34 36 36 40 45 47 47 47 47 46 46 44 43
33 33 31 24 25 20 29 30 29 27 26 25 25 26 28 25 26 26 27 25 24 25 25 25 27 28 30 31 31 32 32 32 32 34 34 37 40 39 40 40 39 38 37 37
35 33 27 24 26 27 24 25 26 30 26 27 25 25 29 28 27 24 28 27 27 27 27 27 28 28 29 30 31 30 31 31 31 31 33 34 35 34 34 34 34 34 33 33
30 31 28 24 22 19 24 25 27 28 20 27 25 24 22 25 18 21 27 28 27 27 27 27 27 27 28 30 30 28 28 28 29 31 31 32 34 33 32 32 32 32 31 31
25 27 25 25 23 23 25 26 27 14 22 28 26 25 24 21 24 27 27 26 27 27 26 27 26 25 27 30 29 28 27 26 28 29 30 30 31 32 33 33 32 32 31 30
24 25 23 24 20 16 27 23 21 29 30 29 27 27 23 23 24 25 25 25 26 25 26 26 24 25 26 28 29 28 28 29 27 27 26 27 28 29 31 31 31 32 30 29
23 30 23 25 22 28 27 27 28 28 27 28 27 27 24 22 22 24 24 25 25 25 25 26 24 23 25 27 28 27 29 29 27 25 24 25 25 26 27 27 28 28 29 27
27 29 25 25 25 25 28 27 27 27 27 28 28 26 25 23 24 23 24 24 25 24 23 24 23 22 23 24 26 28 29 30 29 26 25 24 24 24 25 25 25 26 25 25
26 28 27 25 26 25 25 27 28 28 28 27 28 27 26 25 23 23 22 22 22 23 23 22 22 21 22 25 25 27 28 29 28 27 28 25 24 22 22 24 24 25 26 26
27 25 24 20 27 24 25 27 28 26 26 27 26 25 26 25 23 21 20 19 18 18 18 18 18 19 19 20 23 23 26 25 25 25 26 27 26 24 22 21 22 26 27 28

GFSCGP_sfc_dewp_102.txt.gz
Dewpoint
13 7 11 21 14 15 11 7 7 7 10 13 11 9 13 16 11 11 12 14 17 18 20 23 24 27 27 30 31 51 64 66 67 67 66 65 65 65 65 65 65 65 64 64
11 9 10 16 22 17 14 11 10 11 12 11 9 8 11 12 11 11 11 11 14 14 12 14 17 20 28 29 32 47 62 66 67 66 66 65 65 64 65 65 65 66 65 64
18 17 17 16 14 13 15 16 16 15 14 13 10 9 11 13 13 13 12 11 11 9 9 12 14 17 20 28 32 46 59 65 66 66 66 64 64 63 62 64 65 65 65 65
14 15 14 10 9 12 11 14 14 13 10 13 16 9 10 14 14 14 13 12 11 11 12 29 43 48 48 40 34 44 56 64 65 66 65 64 63 62 63 63 64 64 64 64
4 3 1 3 2 3 6 19 17 14 13 25 17 15 13 15 13 14 14 35 37 41 47 49 49 50 51 51 51 60 61 64 65 65 64 63 63 62 61 62 63 63 64 63
5 4 2 6 17 21 21 20 18 20 27 20 20 21 15 15 16 16 42 45 45 45 45 46 48 48 49 52 55 56 65 65 65 64 64 63 62 61 61 62 62 62 63 63
16 18 18 20 20 23 23 20 18 18 20 16 19 17 16 25 25 23 41 44 44 45 44 43 44 45 46 48 54 50 65 64 64 64 63 62 61 61 61 61 61 61 61 61
20 14 19 21 19 18 17 27 19 14 17 18 19 17 23 40 42 44 44 44 41 40 41 41 42 43 44 45 47 55 60 63 63 62 62 62 62 61 61 60 60 60 60 60
22 18 21 20 20 30 27 26 26 23 22 21 27 25 34 38 40 40 40 39 38 36 37 36 38 40 42 42 44 47 56 58 61 61 61 61 61 61 60 59 60 60 60 59
25 19 19 18 22 26 31 29 24 27 17 17 24 28 33 35 39 39 37 36 34 33 33 34 36 36 39 40 42 45 47 52 58 60 61 61 61 60 59 60 60 59 58 59
24 24 19 22 25 26 31 31 29 29 29 20 23 28 34 34 36 36 36 33 32 31 31 31 32 35 36 38 39 41 43 46 51 58 58 59 59 59 59 59 58 57 57 56
31 27 21 21 22 22 31 32 30 24 21 28 28 28 36 35 34 33 31 31 30 29 29 29 30 32 34 35 36 39 41 41 45 54 57 58 59 59 58 58 57 57 55 56
30 23 18 16 27 31 32 34 34 33 33 29 27 28 36 33 30 28 28 28 27 27 27 28 29 30 31 33 34 35 38 40 43 47 57 58 58 58 58 57 57 56 56 56
34 27 22 17 18 23 25 30 32 32 28 28 26 28 28 27 26 26 25 25 26 26 26 27 28 29 30 32 33 34 36 38 41 46 57 57 58 58 58 57 56 56 56 56
34 28 28 27 25 24 23 32 33 32 32 27 27 26 26 25 25 24 24 24 25 24 25 26 27 28 29 31 32 33 34 37 40 40 44 51 58 58 58 57 56 56 56 56
31 27 30 27 29 28 29 33 28 27 30 30 27 25 26 24 22 22 23 23 23 23 24 25 25 27 28 30 31 32 33 34 36 37 37 40 47 56 56 57 57 55 52 53
29 29 30 27 31 32 24 28 25 25 25 24 22 27 23 21 22 23 22 22 22 23 23 24 25 27 29 29 29 30 32 33 33 34 34 36 38 42 43 45 43 43 42 41
30 31 32 28 29 16 28 32 26 24 24 24 24 28 23 23 24 25 26 22 22 23 23 24 25 26 29 29 28 28 28 30 31 32 32 34 35 35 36 37 36 36 36 35
35 33 29 27 24 26 25 24 24 26 22 26 23 25 27 27 21 22 25 26 24 24 25 25 26 27 28 29 29 27 26 26 27 29 31 32 34 33 32 32 32 33 32 32
32 35 31 28 20 17 22 22 25 27 17 27 24 22 20 26 16 19 24 25 25 25 25 25 26 25 26 29 28 26 25 25 25 26 28 30 31 32 32 32 31 31 31 30
24 27 23 24 21 22 23 24 26 16 18 27 24 22 21 18 21 24 25 24 25 25 24 24 23 24 26 28 28 25 24 23 26 27 27 27 28 30 31 31 31 31 30 29
23 23 20 21 18 15 25 21 20 26 28 27 24 23 21 21 22 22 22 23 23 23 23 23 22 22 24 26 26 26 26 27 26 25 25 25 26 27 28 29 29 30 29 28
22 27 22 22 20 26 26 25 27 28 26 27 24 23 22 20 20 21 22 23 22 22 22 22 21 21 23 24 25 24 28 29 26 24 23 24 25 25 26 26 26 26 27 27
25 28 23 22 24 25 27 27 27 27 27 26 25 25 23 20 20 20 21 21 21 21 21 21 20 19 20 23 24 26 26 28 28 25 24 23 23 23 25 25 26 25 24 25
25 26 25 23 24 24 25 27 27 26 26 26 25 24 23 22 22 21 20 19 19 18 18 18 18 18 19 20 21 23 25 25 25 25 26 24 23 22 22 24 25 25 27 27
27 24 21 19 25 23 24 27 27 26 25 25 23 23 25 24 22 20 17 16 15 14 14 14 14 16 17 18 19 21 23 25 23 24 24 25 25 23 22 21 21 26 27 28

GFSCGP_sfc_dewp_105.txt.gz
Dewpoint
17 7 8 14 18 20 19 18 16 17 16 12 12 11 11 12 11 10 13 14 14 14 15 19 22 25 26 27 29 38 56 66 66 66 66 65 64 65 65 66 66 65 65 64
14 11 10 10 17 20 19 17 16 16 16 15 15 15 15 14 12 11 12 13 13 14 15 16 16 18 18 22 31 38 54 63 66 66 66 65 65 65 65 65 65 65 65 64
18 17 17 14 14 14 15 16 15 15 14 13 12 12 12 14 14 13 13 14 15 29 24 13 13 16 26 27 26 37 51 60 65 66 66 63 62 63 64 64 65 65 65 64
8 10 8 5 3 5 -1 7 11 10 14 12 17 11 14 17 16 17 15 36 45 44 46 44 48 50 50 51 52 42 45 59 64 65 65 63 63 62 63 64 64 65 65 64
7 5 4 3 1 1 -0 8 16 20 18 16 14 15 16 17 16 17 30 43 43 43 44 44 46 48 48 50 53 54 45 56 62 65 64 64 62 62 62 63 63 64 64 64
9 9 6 4 12 17 20 20 17 18 19 15 13 16 15 16 17 21 41 41 40 40 40 41 43 45 46 47 48 54 58 59 63 65 64 63 62 62 62 62 63 63 63 64
17 17 19 20 20 21 21 20 16 12 14 11 13 14 15 36 39 41 40 40 39 37 38 40 41 42 43 43 44 48 57 63 64 65 64 64 63 62 61 62 62 62 62 62
19 11 18 22 19 17 17 20 17 9 12 13 20 19 31 39 39 38 37 36 36 36 35 37 39 40 40 41 42 44 48 52 64 64 64 64 62 62 61 61 62 61 61 62
19 18 19 18 19 21 25 17 19 20 19 19 17 19 34 35 35 34 34 34 34 33 33 33 35 37 39 40 40 42 44 48 52 63 63 63 61 60 61 61 61 61 60 60
23 16 17 16 22 20 25 24 21 25 18 14 17 23 26 30 31 34 33 33 33 32 32 31 32 34 36 38 39 40 43 44 48 56 62 61 60 60 59 59 59 59 58 59
25 23 18 21 20 18 28 29 29 27 25 18 17 23 32 30 31 32 32 30 32 29 30 28 29 32 33 36 37 39 40 43 45 48 56 60 59 59 59 59 58 59 59 59
26 25 20 17 18 19 20 24 33 26 23 25 25 22 34 32 32 31 27 27 27 29 26 26 28 30 32 33 34 36 39 41 43 46 50 59 59 59 58 58 58 57 57 57
28 23 16 15 27 29 31 33 33 35 33 25 23 23 33 32 27 27 26 26 25 26 25 25 26 28 29 31 33 34 35 39 42 44 50 58 58 57 57 57 57 57 56 56
30 24 20 13 15 21 26 28 30 32 29 25 25 23 25 24 23 24 25 25 25 23 23 25 25 27 29 30 31 32 34 36 39 41 42 46 54 58 57 57 57 56 56 55
33 26 27 26 23 25 29 30 31 30 32 24 25 22 23 22 22 23 23 22 21 21 22 24 25 26 28 28 29 30 32 34 36 38 38 40 46 57 57 57 56 56 56 56
34 23 28 25 27 30 25 26 23 28 29 28 24 20 23 21 20 19 20 20 21 22 22 23 24 25 27 28 28 28 29 31 34 34 35 37 38 40 43 51 55 52 49 48
29 26 27 25 29 24 15 24 24 24 24 23 21 23 21 19 19 21 20 20 21 22 22 23 24 25 28 28 27 26 27 28 30 31 33 34 35 35 35 37 39 40 41 40
29 28 28 27 28 14 25 30 27 23 23 23 25 23 21 21 22 23 24 22 21 21 22 23 24 25 28 27 26 26 25 26 26 27 29 32 33 32 32 32 33 34 35 35
34 30 29 26 21 24 27 23 23 25 20 24 22 24 24 23 25 19 23 24 23 23 24 24 25 26 27 28 26 25 24 24 25 26 26 28 31 31 31 31 31 31 32 32
30 33 30 26 20 16 21 21 24 25 14 24 21 20 20 25 17 16 23 24 24 23 24 23 24 24 25 27 27 24 23 23 23 25 26 27 28 29 30 30 30 31 31 30
26 27 22 23 20 21 22 23 28 16 17 24 22 20 19 16 19 22 23 22 23 23 23 22 23 23 24 26 26 25 24 23 23 24 25 26 27 28 28 29 30 30 30 30
21 22 19 21 18 16 23 21 19 25 26 24 22 21 18 18 19 22 22 21 21 20 20 20 19 20 23 25 24 23 25 26 23 22 22 23 25 26 27 27 27 28 28 28
21 24 20 21 18 24 25 25 28 28 25 24 22 22 21 19 19 20 20 20 19 19 18 19 18 18 20 22 24 22 24 26 23 22 21 22 23 25 26 26 26 26 27 27
25 27 21 20 23 24 24 25 25 25 24 25 25 23 22 19 19 18 18 17 17 16 16 17 17 17 17 19 21 23 24 23 24 23 22 21 21 22 24 25 25 25 26 26
24 25 22 21 23 23 24 25 25 25 26 25 24 23 22 21 19 17 13 14 14 13 14 15 16 17 17 18 19 20 23 23 23 23 24 23 22 21 21 22 24 25 26 28
27 23 18 18 22 22 22 26 26 24 23 23 23 23 23 21 17 16 15 14 12 12 13 13 14 14 15 16 17 18 21 23 22 22 22 22 22 21 21 20 20 24 25 27

GFSCGP_sfc_dewp_108.txt.gz
Dewpoint
16 9 13 16 18 19 14 17 19 18 19 18 16 14 15 16 15 15 15 15 14 14 15 16 17 19 23 26 28 30 32 50 65 65 65 64 63 64 65 65 65 65 66 65
15 11 12 10 13 17 16 16 16 16 17 15 14 11 11 12 14 16 15 15 14 15 42 45 41 22 19 21 25 29 31 33 62 63 64 64 64 65 65 65 65 65 65 65
16 18 17 13 13 14 15 15 15 13 10 11 10 8 5 10 14 15 18 18 33 43 44 45 45 47 49 49 49 43 34 38 58 62 65 65 65 64 64 64 64 65 65 64
7 11 7 5 3 5 -0 7 9 5 5 0 16 5 7 10 14 15 14 18 43 43 43 42 43 44 46 46 48 50 53 42 58 64 64 63 62 61 62 63 64 64 65 64
9 8 8 7 7 4 3 7 5 7 16 17 9 8 4 9 10 23 38 41 39 38 39 40 40 41 42 43 44 46 49 52 52 63 63 64 63 62 62 64 63 63 64 64
9 13 8 8 9 12 15 18 18 17 17 11 7 5 6 14 35 36 38 37 38 36 36 37 38 39 40 41 42 43 48 54 50 62 64 64 62 61 62 63 63 63 64 64
18 17 18 20 18 19 18 16 13 10 16 8 8 10 15 34 35 35 35 35 35 34 35 35 35 36 38 39 40 42 44 50 59 62 64 63 62 62 61 62 62 62 62 63
18 12 18 20 19 17 16 17 14 7 10 11 12 13 30 34 33 35 35 35 33 31 32 32 34 35 36 38 40 40 43 46 50 61 63 64 63 62 62 62 62 62 61 62
15 17 18 15 15 18 21 17 16 14 13 13 16 20 31 28 29 32 33 33 31 30 30 31 32 34 34 37 39 41 41 44 47 50 62 64 63 62 61 62 62 62 62 61
23 17 16 16 20 21 21 25 19 23 12 14 16 21 22 26 27 29 30 30 30 30 30 30 31 32 33 35 37 41 41 42 45 48 52 62 61 61 60 60 61 61 61 60
24 22 16 21 19 15 24 24 23 23 24 17 13 18 30 27 28 27 29 29 29 29 29 30 30 32 32 33 35 36 39 40 43 45 49 58 61 60 60 60 60 60 59 59
23 24 19 17 19 23 19 21 25 20 23 24 23 21 31 29 29 27 25 25 25 29 28 29 30 29 30 31 32 34 38 40 41 44 49 58 59 60 59 59 59 58 58 58
28 22 15 14 26 30 27 31 33 31 29 27 17 18 29 28 23 22 23 24 24 25 25 25 25 26 28 28 30 31 33 36 40 42 44 48 52 58 58 58 58 58 58 58
27 23 18 12 10 18 22 26 30 29 24 23 20 23 23 23 19 20 21 23 24 23 24 24 23 25 27 27 28 30 30 33 36 37 40 41 43 51 57 57 57 57 57 56
28 23 24 24 23 24 28 26 26 30 30 25 23 20 21 22 20 21 23 21 21 22 22 22 23 25 26 26 26 26 28 30 33 35 35 37 39 41 45 52 56 56 55 56
35 23 26 22 25 29 23 25 23 23 26 24 22 19 23 23 23 21 20 20 20 21 21 21 22 24 26 25 26 26 27 28 30 32 34 35 36 35 37 38 39 41 41 42
29 26 25 22 26 24 18 23 23 21 22 23 20 21 23 20 19 19 19 20 20 21 21 21 23 25 26 26 26 25 25 28 28 29 31 33 34 33 33 33 33 34 34 35
29 27 27 24 25 14 23 30 24 20 21 22 22 22 22 20 21 22 23 21 20 20 21 21 23 24 26 27 26 25 24 24 26 26 28 30 32 32 32 31 31 31 32 32
33 29 25 25 20 21 26 22 22 23 19 22 21 23 23 23 25 19 22 23 22 21 22 22 24 24 25 25 27 24 23 22 23 24 26 28 28 29 30 30 30 31 30 30
34 33 28 27 18 15 20 21 24 26 14 23 21 20 20 25 17 16 21 22 21 22 22 21 22 22 23 25 26 25 23 22 21 24 25 27 28 28 27 28 30 31 31 30
26 28 23 23 19 19 21 23 27 18 16 22 20 18 19 15 17 20 22 21 21 21 20 20 20 20 21 24 24 23 23 22 23 23 24 25 26 28 29 28 29 29 30 30
21 21 19 20 19 16 22 23 21 23 24 22 20 19 17 16 18 19 20 18 18 16 17 17 17 19 20 22 23 22 22 25 23 22 22 23 25 25 26 27 28 28 29 28
21 22 19 19 17 23 24 24 27 25 23 22 20 20 16 13 16 17 17 17 15 14 14 16 14 16 18 20 21 21 23 24 24 22 21 21 21 22 24 24 25 25 26 26
26 26 20 19 22 22 22 23 25 24 23 23 22 20 19 16 15 13 12 13 13 13 14 15 16 15 15 16 18 21 23 23 23 22 22 21 20 20 22 23 24 24 24 23
23 24 20 20 22 22 23 23 23 24 23 22 22 21 19 17 14 12 10 11 11 12 13 15 14 14 14 15 16 17 20 21 21 21 19 18 18 17 18 21 23 22 25 25
27 24 17 12 20 20 21 21 24 22 21 22 21 21 21 18 16 15 13 12 10 10 12 12 12 12 12 14 15 16 19 19 19 18 18 16 15 16 16 15 15 20 22 22

GFSCGP_sfc_dewp_111.txt.gz
Dewpoint
15 13 14 15 20 19 17 14 14 18 17 19 18 12 9 11 11 14 15 14 16 18 19 23 42 46 43 37 36 34 37 45 55 62 64 64 63 64 65 65 65 65 65 65
15 14 15 11 12 14 14 13 12 15 16 12 5 3 4 6 11 10 10 15 17 20 28 43 45 46 48 49 50 51 49 39 42 57 62 63 63 64 65 65 65 65 65 65
13 14 16 14 12 12 13 12 10 6 7 4 4 2 2 2 6 12 26 39 41 41 41 42 42 43 44 46 47 48 49 52 51 44 58 64 65 66 64 64 65 64 65 65
14 10 9 7 3 5 3 7 6 5 3 -2 8 -1 3 3 12 35 38 37 36 37 36 37 38 39 41 43 44 45 47 48 51 53 51 62 61 60 61 63 64 65 65 65
9 8 10 10 8 5 8 8 10 11 10 13 8 7 1 3 21 32 33 33 33 33 32 33 34 35 37 39 41 42 44 47 50 54 54 62 62 62 62 64 65 64 64 64
10 17 13 12 11 12 18 17 17 18 15 6 4 4 3 26 32 32 31 32 32 31 30 31 32 33 35 36 38 40 42 44 50 55 55 62 63 62 62 63 64 64 64 64
15 12 18 20 17 19 16 13 11 10 12 4 12 9 12 32 33 32 32 30 31 30 30 30 30 32 34 36 37 39 41 42 46 51 54 62 63 64 63 63 63 63 63 63
10 5 19 19 17 13 13 12 9 4 5 6 7 3 21 30 30 30 30 29 29 29 28 29 30 31 33 35 37 38 41 41 45 49 54 61 62 62 63 64 63 63 63 63
10 13 19 18 15 14 17 16 15 12 10 9 7 19 28 27 27 27 29 27 28 29 29 30 29 30 31 33 34 37 39 41 43 46 50 60 62 63 63 64 65 65 64 64
19 15 17 15 20 19 16 19 20 18 14 11 13 14 25 26 26 27 27 27 27 28 28 29 30 31 31 32 34 36 38 40 42 45 48 52 63 63 63 64 64 64 64 63
22 17 12 19 17 14 20 19 19 19 17 17 16 22 30 26 27 26 26 26 27 28 28 28 29 30 32 32 32 33 34 37 41 43 46 52 61 62 63 62 64 63 63 62
23 25 18 17 19 25 20 19 25 21 18 23 23 22 28 28 27 27 22 24 24 28 28 28 28 29 30 30 31 31 32 34 38 42 45 47 51 61 61 61 61 61 60 62
28 23 15 15 28 28 23 25 28 32 27 21 20 22 27 27 23 21 22 22 22 24 25 26 27 27 28 27 28 29 30 32 35 39 42 43 45 50 59 59 59 59 59 59
30 25 19 7 4 13 20 24 27 29 24 20 24 21 21 23 19 19 21 21 23 23 24 23 23 25 25 25 27 28 28 31 32 36 37 40 40 43 47 55 57 57 58 57
30 22 24 24 21 22 27 25 25 22 25 24 22 19 21 22 21 21 21 21 20 21 21 23 24 25 25 25 25 25 27 29 32 32 34 36 38 38 40 41 43 45 44 44
32 24 26 21 22 27 22 25 25 23 26 23 21 18 21 21 20 19 20 20 19 20 21 22 23 23 24 26 26 25 25 27 28 30 32 33 35 35 35 36 37 38 38 37
30 27 24 21 25 24 21 23 23 23 24 25 21 20 21 19 18 19 19 20 20 20 21 21 22 24 25 26 26 25 26 27 26 28 29 31 32 34 33 33 33 33 33 34
30 28 27 23 25 17 24 28 23 21 21 22 21 21 21 20 21 22 22 21 19 20 20 20 21 22 25 25 26 24 23 24 26 25 27 29 30 30 32 32 31 32 32 31
32 30 24 24 21 22 24 23 24 23 19 22 22 23 23 23 25 20 21 22 21 21 21 21 23 23 23 25 26 25 24 23 23 24 26 27 29 29 30 30 31 31 31 30
34 32 26 24 19 15 21 21 24 26 19 22 21 21 23 24 19 18 21 21 20 21 21 20 22 21 22 24 26 25 24 23 23 24 25 26 27 28 29 30 30 31 31 30
25 27 24 25 19 19 20 22 26 21 21 22 19 20 22 18 19 20 21 19 19 19 19 19 19 20 21 23 25 23 24 24 24 24 25 25 26 27 28 29 30 32 31 30
22 21 21 23 19 16 21 25 23 24 24 21 20 20 18 19 19 19 19 18 17 17 17 18 17 18 19 21 23 22 23 25 25 24 23 24 25 26 27 27 28 28 29 29
22 23 20 19 18 23 25 25 27 24 22 21 20 19 18 17 17 17 17 17 17 17 17 18 17 16 18 19 21 20 23 23 22 21 21 22 23 24 25 25 26 26 27 26
26 26 19 20 21 22 23 25 24 24 23 22 21 20 19 16 15 14 15 16 16 16 16 17 17 16 16 17 18 20 21 22 20 19 19 21 21 22 23 25 25 25 24 25
25 24 20 20 22 21 22 24 24 23 23 22 21 20 18 16 14 13 13 14 15 15 15 15 15 15 16 17 18 20 21 21 21 19 18 19 19 20 19 21 22 23 24 24
27 23 20 20 22 21 21 24 24 22 22 21 20 19 17 16 14 12 10 10 10 10 10 10 12 13 14 14 16 17 18 18 18 17 15 15 16 16 16 16 16 17 18 19

GFSCGP_sfc_dewp_114.txt.gz
Dewpoint
19 15 13 12 14 13 11 10 7 6 10 12 12 8 5 3 3 5 6 9 11 25 36 40 43 44 45 46 47 48 50 52 43 41 54 57 62 63 64 64 65 65 67 68
18 14 14 15 14 13 12 9 8 9 12 10 3 0 -1 0 4 8 8 23 36 37 38 39 40 42 44 44 46 48 48 49 50 45 41 55 58 61 62 64 66 66 66 66
12 7 14 14 11 12 12 11 10 7 3 2 2 -1 -4 4 5 20 34 35 35 35 35 36 38 39 41 42 44 44 46 47 48 51 50 43 56 58 60 64 66 66 65 66
12 10 13 13 11 10 8 7 5 4 4 -2 2 -2 4 2 10 27 31 33 33 33 33 33 34 36 37 38 41 42 44 45 46 49 50 51 46 53 58 61 64 65 67 66
10 10 11 12 10 8 7 10 9 9 8 8 5 2 5 1 6 27 32 33 33 32 32 31 32 33 34 37 38 40 42 43 45 48 50 52 50 55 56 61 62 64 66 66
11 13 11 10 10 11 11 12 10 11 11 7 4 0 1 12 29 31 32 31 31 30 31 31 32 32 33 35 36 37 39 40 42 45 49 52 55 53 55 57 61 62 65 65
10 11 12 15 10 14 14 12 8 7 12 6 5 6 3 30 30 29 29 29 30 30 30 30 30 30 32 32 34 35 35 37 39 43 46 50 54 56 59 57 60 62 63 63
8 6 12 17 13 10 14 14 7 -4 -3 -2 9 6 13 29 28 28 28 29 29 28 28 29 30 31 31 32 33 35 34 35 37 41 44 48 53 56 58 59 58 61 63 63
9 5 15 18 16 14 12 13 11 11 10 10 6 5 25 27 28 27 27 28 28 28 28 28 28 30 30 30 32 33 34 34 37 40 44 48 53 59 60 61 62 62 64 63
13 10 10 13 17 15 13 15 17 16 14 10 8 10 26 28 27 27 28 27 27 28 28 29 28 30 30 30 31 32 33 33 36 40 44 47 52 58 61 63 63 63 64 64
17 15 9 15 13 10 17 17 18 18 18 16 16 26 30 28 28 26 27 26 30 28 29 31 31 31 32 32 30 31 32 33 35 40 44 47 52 61 62 63 63 64 64 64
19 23 15 13 16 20 16 17 20 20 18 19 21 25 27 27 27 26 22 23 24 28 28 30 30 30 31 30 30 30 31 32 34 38 42 44 46 51 62 62 63 64 63 64
25 20 16 16 28 26 28 23 20 26 29 23 22 25 28 29 24 23 23 23 23 25 26 27 28 27 28 28 29 28 29 32 33 36 40 42 42 44 48 57 60 61 61 61
29 23 22 12 9 13 18 25 27 27 25 22 26 26 24 24 23 22 22 23 25 26 26 26 26 26 27 28 28 27 28 30 32 34 35 38 39 41 43 45 47 48 52 56
29 21 26 25 20 20 25 26 25 26 25 24 27 23 23 24 23 22 25 23 23 24 23 24 25 26 27 27 27 26 27 29 31 31 32 35 37 36 38 39 40 42 42 43
27 23 28 25 24 26 28 26 27 27 23 26 25 20 25 21 23 22 23 23 22 23 23 24 25 25 26 27 28 26 27 28 29 30 31 31 34 34 34 34 36 35 37 36
32 29 28 23 22 26 24 24 25 25 25 26 25 23 24 21 20 22 22 23 22 22 23 23 25 25 27 28 29 28 29 29 28 28 29 30 31 32 33 33 32 32 32 33
32 30 29 24 26 19 26 29 25 23 24 25 24 22 21 21 22 23 23 23 21 21 21 22 23 24 26 26 26 26 25 26 27 27 29 30 30 30 31 31 31 31 31 31
34 32 27 24 21 23 25 26 25 25 22 23 23 23 23 23 23 22 22 23 23 23 23 23 24 24 24 26 26 25 25 25 25 26 27 29 30 30 30 30 31 31 30 30
35 33 29 24 18 16 23 22 25 25 23 23 23 23 24 24 24 22 23 23 23 22 22 22 22 22 23 25 26 26 26 26 26 27 27 28 29 30 30 31 32 32 32 31
29 31 25 23 24 21 21 23 26 23 24 24 24 26 27 24 24 23 23 22 22 22 21 21 21 20 21 24 24 24 24 23 25 27 28 28 29 29 30 31 31 31 31 31
25 26 25 24 23 18 23 25 25 26 26 25 26 26 24 23 23 22 21 20 20 20 20 20 19 20 21 23 23 22 21 23 24 25 26 26 27 28 29 29 30 29 30 30
25 26 25 23 22 24 26 27 28 26 26 26 25 24 24 22 22 23 21 20 20 20 20 20 19 19 21 22 23 21 22 23 22 23 24 25 26 26 28 27 27 27 28 27
26 28 24 24 23 23 25 25 26 26 27 25 24 23 23 21 21 21 20 19 18 18 18 19 18 19 19 21 22 22 22 24 23 21 22 23 23 25 25 25 25 23 23 24
28 27 23 22 23 23 24 26 26 26 25 24 24 23 22 20 19 19 19 19 18 17 17 17 17 16 17 18 19 21 21 21 21 20 21 22 20 21 21 21 19 19 21 21
28 28 25 27 26 26 26 26 26 25 24 23 22 20 19 17 15 14 12 10 7 8 8 8 9 10 10 11 14 14 16 17 18 18 17 17 18 18 18 18 19 17 16 16

GFSCGP_sfc_dewp_117.txt.gz
Dewpoint
16 13 12 13 14 11 12 11 8 5 4 5 8 8 5 5 3 4 3 5 6 21 35 36 39 41 42 44 45 45 47 49 50 49 42 47 59 61 64 66 66 65 66 69
15 16 16 11 11 14 14 9 7 6 5 8 9 7 2 2 3 3 6 8 29 33 32 34 36 38 41 42 43 45 45 46 47 47 48 45 47 55 61 64 65 67 67 68
13 15 12 10 11 12 10 8 8 7 7 5 4 2 4 5 4 5 26 30 29 32 33 33 34 35 37 39 41 41 43 44 46 48 47 48 51 49 58 62 63 65 67 68
10 10 9 9 10 9 8 6 7 7 6 4 8 4 8 9 7 16 27 31 33 33 32 32 33 34 35 36 39 41 41 42 43 46 47 49 47 46 50 60 62 63 66 67
11 8 11 10 7 10 10 11 10 9 8 9 6 3 7 8 6 21 30 31 32 32 31 31 32 32 33 34 36 38 40 40 42 44 46 47 49 50 51 52 62 63 65 66
12 11 10 10 10 10 10 10 12 11 9 8 9 7 5 17 28 27 28 30 30 30 30 30 30 31 31 33 34 36 37 38 40 42 44 45 48 50 51 53 56 61 63 65
12 11 11 13 12 13 13 14 12 11 9 8 9 6 6 26 28 28 28 29 30 30 29 29 28 29 30 31 32 32 34 35 37 39 41 42 44 48 51 52 55 60 62 63
13 14 11 13 15 9 9 13 12 7 6 5 2 4 16 26 27 28 28 29 29 28 28 28 28 28 29 30 31 31 31 33 35 36 38 40 42 45 49 52 55 56 61 63
9 7 10 14 13 13 9 10 11 12 11 10 6 4 22 27 28 27 28 28 28 28 28 28 28 28 28 29 30 31 31 32 34 35 37 38 42 45 48 53 57 58 61 63
13 12 7 7 13 15 14 10 14 15 12 9 6 6 24 28 27 28 28 28 28 28 28 28 28 29 29 31 31 31 30 30 32 34 36 39 42 46 49 55 59 61 61 63
10 16 11 10 11 10 11 15 13 14 18 16 16 27 31 27 28 28 27 27 30 29 29 32 32 30 31 31 30 30 30 30 32 34 37 39 44 46 50 57 61 62 62 62
15 20 15 9 8 12 13 14 16 19 15 21 17 25 27 28 29 26 25 26 25 28 28 31 32 31 31 31 32 30 30 30 33 34 36 41 42 45 47 55 60 62 61 62
19 17 14 13 17 23 25 22 16 22 26 23 23 26 28 28 25 25 25 25 25 25 25 26 30 30 31 30 31 30 30 30 32 33 35 38 39 41 41 44 47 50 58 59
26 23 23 15 19 20 21 21 23 23 23 20 24 29 26 27 24 24 26 27 27 26 26 26 27 29 31 31 31 30 29 30 31 33 33 35 36 37 38 39 40 43 44 43
25 21 26 22 18 17 21 24 23 28 26 26 29 25 25 26 25 26 27 26 25 25 25 26 27 28 29 30 32 32 30 30 31 31 31 33 34 35 35 36 36 37 38 38
25 23 28 24 23 24 28 28 26 30 29 26 27 24 27 26 26 25 25 25 24 24 24 25 26 25 27 29 32 32 31 31 31 30 31 31 32 32 32 32 33 34 34 33
29 30 28 25 21 23 26 29 28 29 25 28 25 25 26 25 23 24 24 24 23 23 23 22 25 26 26 28 29 30 31 32 30 30 31 31 31 31 31 31 31 30 31 32
34 31 29 25 25 19 27 29 28 28 27 26 25 27 26 23 25 25 25 24 22 21 21 21 23 23 25 25 25 26 25 26 28 28 29 31 31 30 31 31 31 30 30 30
35 32 29 25 22 25 25 27 26 26 24 28 25 23 23 23 23 24 24 23 23 22 22 23 23 23 23 24 24 24 24 25 26 26 28 29 30 30 30 31 31 31 32 30
29 33 29 26 19 17 24 25 26 26 25 25 25 24 24 24 27 24 23 23 22 22 22 21 21 21 22 25 22 24 23 24 26 27 27 28 29 29 30 30 31 31 32 32
30 31 27 24 24 24 23 23 26 25 26 26 26 27 28 26 26 25 24 22 22 22 21 21 21 21 23 24 25 23 23 23 26 27 28 27 28 28 28 29 30 31 31 30
25 28 28 25 25 23 24 25 25 29 29 28 29 31 27 26 24 23 22 22 21 21 21 21 21 22 23 24 24 22 23 24 25 26 26 27 26 28 27 26 27 28 27 28
25 28 28 25 25 26 27 30 30 29 28 28 28 27 26 25 24 24 22 20 20 21 21 22 22 21 23 24 24 22 24 25 24 25 25 26 27 25 26 25 23 23 25 24
27 27 27 25 25 24 26 27 27 28 28 27 27 26 26 24 24 22 21 19 18 17 18 17 18 20 21 23 23 24 23 25 25 24 25 26 25 27 25 23 23 20 20 21
31 28 26 25 25 24 26 27 28 27 27 26 26 26 25 23 22 21 21 20 18 17 17 16 15 14 15 18 21 23 24 23 25 25 25 26 24 26 25 22 20 19 20 18
29 32 28 30 27 27 28 28 27 26 26 25 23 22 22 21 19 17 13 8 6 6 7 6 7 7 7 10 13 13 15 17 19 19 19 21 21 21 21 20 21 19 18 17

GFSCGP_sfc_dewp_120.txt.gz
Dewpoint
19 16 13 14 16 15 14 12 11 12 13 10 10 7 5 9 11 10 8 8 13 16 33 34 38 38 39 41 42 43 45 48 48 48 49 50 50 53 64 65 66 66 66 68
15 16 15 17 17 15 12 12 14 13 9 9 7 7 8 9 9 8 8 15 29 31 32 33 35 37 39 39 40 41 42 44 45 45 46 48 50 51 53 62 65 66 66 67
19 18 18 15 12 11 12 13 13 9 8 7 8 7 8 8 11 10 21 28 31 32 32 32 33 35 37 37 38 38 40 41 43 45 44 46 47 49 50 51 57 65 65 66
15 15 13 13 11 11 11 11 9 8 8 6 8 4 7 9 9 13 29 32 31 31 31 31 31 32 33 35 36 37 37 38 39 43 43 45 46 47 50 51 53 61 65 65
14 12 10 9 10 11 9 11 11 10 10 10 8 6 10 13 12 29 30 30 30 30 30 30 30 30 30 32 33 35 36 35 36 39 42 42 44 46 48 50 52 54 59 64
9 9 11 10 11 10 10 10 10 11 11 10 9 8 8 19 26 27 27 28 29 29 29 29 29 29 29 30 31 32 32 32 34 36 38 39 40 42 44 47 50 52 57 61
13 12 11 12 11 12 11 12 12 11 13 12 12 9 24 26 27 27 28 28 28 28 28 28 27 27 28 28 29 30 30 30 31 33 35 36 38 39 41 43 47 50 53 57
11 12 14 14 13 12 12 11 13 7 11 12 10 7 21 26 27 28 28 28 28 27 27 27 27 27 28 28 28 29 30 30 30 32 33 35 36 38 39 41 45 48 52 55
15 13 10 12 13 12 13 12 10 13 11 12 9 8 26 29 27 27 27 27 27 27 28 28 27 28 28 28 29 29 30 30 30 31 33 34 36 37 39 41 44 47 50 54
16 15 13 13 11 12 13 13 15 14 10 9 8 12 25 28 26 27 28 28 27 28 28 29 30 30 30 30 31 32 31 31 31 32 34 35 37 39 40 42 44 46 49 54
12 12 11 14 12 9 12 15 14 13 12 12 14 23 31 28 28 28 26 26 29 28 29 31 31 31 32 32 33 32 31 31 31 32 34 36 39 41 43 45 48 48 50 53
15 18 16 15 13 10 9 10 13 19 15 13 16 24 28 28 28 26 24 25 25 28 29 31 32 31 32 32 32 32 32 31 32 33 34 36 38 39 40 42 45 50 52 55
17 16 14 10 14 11 9 17 18 21 25 20 20 24 28 27 25 25 25 26 25 27 28 29 30 30 30 31 32 32 32 31 32 33 33 34 35 36 37 37 40 41 42 45
27 21 22 14 17 20 24 30 23 22 21 19 23 26 26 24 24 25 25 26 26 28 27 27 28 29 30 31 32 32 31 31 32 32 32 32 33 34 35 36 35 36 38 37
23 19 24 21 16 13 18 20 18 26 23 24 28 28 25 25 26 27 26 26 25 26 25 26 27 28 28 29 31 32 31 31 32 31 31 32 33 32 32 33 34 33 34 34
23 20 27 23 19 20 22 24 21 27 29 29 28 25 26 27 28 26 26 25 24 25 24 24 24 23 25 26 29 30 31 30 31 30 30 32 32 32 31 31 31 32 32 32
27 30 23 19 22 23 23 29 30 30 27 25 24 25 27 26 24 25 25 25 23 21 21 20 22 22 24 24 25 26 26 28 28 29 30 30 31 31 31 32 30 30 30 31
32 30 24 23 25 18 27 28 26 27 27 30 25 26 27 25 25 26 26 23 20 19 19 19 20 20 22 21 21 23 23 24 26 26 27 28 30 29 31 31 31 31 31 29
34 30 27 24 20 25 24 25 26 26 26 28 26 27 25 24 23 23 22 21 21 21 21 22 22 21 22 23 22 21 22 23 23 24 25 26 26 27 27 28 30 31 31 29
31 32 29 24 24 20 25 25 27 28 24 28 25 24 23 24 24 22 23 21 21 22 22 21 22 21 22 23 23 22 22 23 23 25 23 24 25 23 25 26 27 29 29 30
27 29 26 23 23 26 24 25 26 23 26 29 27 27 27 26 26 25 23 21 21 22 21 22 21 21 22 22 22 21 21 22 24 24 26 23 23 24 22 23 25 25 26 25
25 25 24 24 24 22 24 24 24 30 31 31 31 30 26 25 25 23 23 22 22 22 22 22 20 20 22 22 21 20 21 23 24 25 23 25 23 23 22 19 21 22 22 23
26 29 29 26 26 27 29 31 31 30 31 30 29 26 25 24 22 23 22 20 21 22 23 23 19 19 21 22 21 19 21 23 22 23 23 23 25 23 22 19 18 17 19 18
28 28 27 26 26 25 27 28 29 30 30 29 27 26 25 24 23 23 22 19 17 16 18 18 19 19 18 21 21 22 22 22 23 22 23 24 23 23 22 21 19 17 16 16
32 28 27 26 26 25 27 30 30 29 29 28 27 26 25 23 22 23 22 20 19 19 19 18 17 14 17 19 19 20 21 22 22 23 22 23 23 23 23 21 20 19 18 17
30 34 27 29 28 27 29 31 28 27 27 25 25 23 23 21 20 19 15 10 7 8 7 6 7 8 9 12 14 15 17 18 19 20 20 20 21 21 21 21 22 22 21 19